GFSSGP_925_rhum_000.txt.gz
RH
13 8 12 24 16 28 26 22 26 40 64 60 60 71 88 92 76 80 98 86 82 96 96 86 80 77 76 76 74 73 77 76 72 72 75 67 55 46 37 25 19 26 53 63 63 51 36 35 38
9 14 20 27 30 27 23 21 48 53 58 50 56 63 75 82 88 98 95 95 82 97 96 88 84 82 79 79 78 80 83 77 74 73 62 51 44 40 35 23 22 24 23 26 28 25 26 26 28
10 17 21 28 34 24 24 42 46 49 45 44 49 51 66 76 88 94 97 96 94 95 91 91 87 83 82 80 84 88 81 75 73 62 51 43 41 39 37 23 18 19 19 19 20 20 20 21 22
18 21 20 24 23 21 20 37 44 46 42 42 45 58 52 74 88 89 99 96 92 94 92 90 86 84 85 85 85 85 76 74 66 52 41 42 39 40 34 18 15 16 17 22 29 31 28 25 24
22 23 22 21 19 18 18 30 37 48 49 44 41 55 62 96 86 99 96 93 91 93 90 88 87 87 85 86 84 79 78 66 50 42 41 38 34 32 19 23 22 26 38 42 43 45 44 42 43
24 24 23 21 18 21 27 37 46 48 47 49 56 60 74 100 100 100 99 96 88 91 92 88 87 86 86 80 82 81 71 56 46 42 38 34 32 29 39 42 41 40 41 42 42 43 43 42 40
22 22 21 19 29 24 20 36 44 46 48 50 47 68 86 97 88 96 97 88 92 96 90 92 90 88 86 87 82 72 64 51 43 40 40 44 38 46 50 48 46 45 43 44 42 41 41 41 41
23 21 21 27 25 29 12 25 37 44 50 40 44 89 95 91 99 97 98 98 98 98 100 100 92 94 92 84 73 61 55 46 43 40 52 54 56 58 58 55 52 51 48 46 46 44 41 39 40
17 24 24 22 27 24 17 21 16 35 47 43 44 59 72 98 100 99 95 97 99 99 100 95 87 88 76 69 60 55 46 42 41 47 57 57 60 59 61 63 59 53 50 48 50 52 50 46 45
22 25 20 14 14 27 22 26 31 42 46 50 52 72 93 99 99 95 93 94 98 100 99 86 80 70 66 55 46 39 37 42 49 58 60 60 60 62 59 57 54 49 48 51 51 50 51 52 53
18 19 12 7 9 9 21 17 30 46 45 51 59 84 90 100 99 100 100 98 78 57 70 62 57 49 44 38 37 37 47 52 62 67 63 62 63 59 50 45 44 46 46 48 49 48 46 49 53
12 12 8 9 10 10 21 13 37 25 30 43 54 71 77 86 85 85 84 71 70 62 56 50 45 39 36 36 42 48 56 59 61 65 60 58 59 53 47 46 45 47 48 46 43 42 46 50 53
10 8 11 10 9 11 9 17 28 17 36 43 51 62 67 71 70 65 56 47 61 59 60 55 51 42 45 43 51 56 59 63 64 66 65 63 66 60 50 49 48 45 42 40 38 36 40 46 47
13 10 10 14 10 9 11 12 11 16 51 46 48 57 58 61 56 54 52 53 58 58 58 59 58 62 61 67 63 65 70 66 70 72 72 76 65 58 51 49 38 34 35 36 36 38 41 41 39
11 10 11 11 12 12 15 14 14 27 49 48 43 45 45 43 40 41 42 46 49 56 61 66 70 74 64 66 68 82 84 82 75 77 82 74 56 51 39 36 36 35 33 34 38 38 36 33 31
14 17 15 11 14 16 11 13 20 41 52 56 55 53 56 57 48 39 36 34 42 56 63 72 74 64 62 66 71 77 74 73 79 64 51 47 42 40 37 36 34 34 36 38 34 33 34 35 32
19 19 16 14 16 16 15 24 40 38 54 56 60 58 61 66 68 62 52 42 34 56 67 76 67 59 66 65 88 82 51 48 49 48 41 38 35 35 35 35 35 38 37 35 35 35 34 35 33
16 17 17 17 17 44 40 60 61 62 57 70 73 74 75 71 72 75 81 72 69 76 77 78 70 67 72 77 73 42 40 41 39 36 36 36 36 36 34 34 36 38 37 35 34 31 30 38 40
16 17 18 20 25 48 57 60 60 69 74 74 75 73 70 67 64 67 75 80 84 88 86 84 81 79 53 45 46 42 41 42 42 40 39 38 38 37 36 36 34 33 32 37 36 32 37 42 52
26 29 34 32 34 47 50 52 50 54 59 67 70 70 65 64 62 57 58 58 66 71 73 55 52 46 42 38 40 40 42 42 41 40 39 40 39 38 35 32 29 27 30 34 36 36 38 52 69
34 28 28 39 42 42 44 50 53 48 60 62 64 61 61 63 66 56 48 46 44 46 43 36 37 33 32 30 30 33 36 43 47 44 42 42 40 36 34 36 42 39 33 38 43 44 44 60 62
31 28 33 45 44 51 38 70 46 53 62 62 62 64 65 61 54 49 40 35 32 32 30 31 32 32 32 32 33 34 38 43 47 45 41 46 46 45 47 47 49 47 46 46 52 56 57 65 69
32 30 32 31 38 39 42 62 51 57 65 65 65 62 59 55 55 51 45 44 41 37 36 36 35 36 37 37 38 41 43 40 47 45 47 42 40 42 46 49 52 50 51 55 59 61 61 55 49
29 38 45 51 52 60 44 54 60 67 62 62 57 60 61 60 56 54 48 43 41 37 35 36 40 43 43 43 44 44 44 43 41 41 39 45 41 41 43 57 57 61 62 62 59 49 42 39 35
39 44 64 58 69 71 49 52 51 48 52 56 58 60 62 59 62 62 54 51 48 46 45 44 44 42 40 40 39 39 42 42 44 46 52 51 46 43 46 63 68 63 57 56 53 44 36 34 36
33 43 65 57 79 61 46 58 51 43 45 50 53 56 64 63 62 62 61 54 50 46 43 43 42 44 47 47 47 47 47 48 50 52 52 51 49 50 54 68 64 60 72 53 52 36 31 33 34
34 44 40 69 67 67 65 47 43 52 52 53 54 58 68 67 69 68 60 50 49 50 48 46 47 40 31 23 19 22 21 15 13 13 17 19 34 55 69 70 68 69 59 69 62 41 34 35 36
30 37 43 66 54 64 64 58 64 56 58 55 58 63 69 67 68 63 55 52 51 52 57 48 30 23 21 21 20 18 17 15 13 13 14 24 55 74 73 69 66 76 69 56 54 44 38 42 50
38 40 55 58 69 68 81 68 51 53 55 54 60 67 68 71 66 61 54 48 43 41 36 28 24 24 24 22 22 22 22 22 23 24 22 45 64 69 67 65 74 68 49 50 49 38 40 46 53
32 36 41 57 44 85 82 56 55 58 50 60 70 69 70 64 61 56 48 34 28 26 25 24 26 25 24 23 24 26 27 30 33 37 43 53 63 62 59 62 63 63 47 41 36 37 42 48 54

GFSSGP_925_rhum_003.txt.gz
RH
18 11 18 21 17 20 20 18 24 54 66 62 62 63 71 74 79 81 97 88 77 99 98 84 73 68 68 69 68 70 71 69 68 69 66 55 47 40 30 28 44 63 69 57 41 25 22 22 21
12 13 20 22 16 16 18 20 47 56 56 53 50 49 61 73 69 93 94 96 83 94 97 86 76 72 73 72 71 73 74 72 71 68 57 48 44 38 29 29 29 28 26 22 19 19 20 20 19
12 22 17 20 24 16 20 40 45 49 50 49 64 57 61 69 72 87 87 98 89 95 90 81 78 78 77 75 75 79 77 73 71 57 48 46 42 39 27 22 22 20 19 22 26 25 24 23 31
18 18 16 19 20 19 17 41 43 42 41 36 46 56 66 58 68 75 98 97 82 84 86 84 84 82 79 80 84 81 77 74 63 52 46 44 42 40 23 18 17 25 38 40 41 40 40 41 38
21 18 19 19 17 17 18 36 41 48 47 38 34 58 71 96 86 92 97 96 82 84 88 88 86 84 84 87 86 81 78 74 59 47 47 40 38 24 24 24 34 40 42 44 45 45 43 42 45
21 18 18 17 20 22 24 33 40 38 39 39 48 59 77 99 100 99 98 86 82 91 96 90 87 87 88 89 86 84 78 62 47 48 43 35 30 36 44 44 44 45 47 48 45 44 43 42 42
20 18 17 17 28 24 32 39 45 38 37 48 46 74 94 98 99 94 78 82 92 97 97 96 96 89 92 89 86 86 73 55 48 46 42 37 42 48 50 50 50 47 47 46 43 41 40 38 39
18 16 19 27 26 22 19 31 38 44 46 40 48 79 93 89 89 83 93 95 96 92 97 99 92 90 91 92 94 84 68 53 50 42 47 48 52 52 52 50 49 47 45 44 44 43 43 43 44
17 18 28 23 24 25 22 25 22 36 41 40 39 62 67 98 100 94 94 95 92 90 91 94 100 94 100 95 90 81 66 52 47 43 53 56 56 58 58 57 52 48 44 44 45 48 50 49 49
18 19 18 18 21 24 19 18 30 39 40 42 63 85 89 92 93 92 94 93 91 93 92 94 97 100 99 96 86 75 59 51 46 50 56 58 61 63 64 63 54 50 47 46 49 50 48 50 58
20 17 13 9 6 15 21 18 30 38 38 38 58 91 90 93 89 85 86 87 86 94 98 100 100 99 95 86 73 58 51 50 56 60 62 64 66 68 60 51 47 48 50 51 48 46 49 54 57
15 14 8 6 8 18 18 23 37 28 24 33 58 84 89 87 86 88 85 87 95 99 96 96 86 71 64 56 51 54 57 60 68 72 68 71 71 64 52 46 47 50 50 42 35 36 38 44 49
13 10 12 9 11 17 13 27 31 14 37 42 64 77 81 90 88 87 82 87 87 86 79 76 72 61 58 56 56 62 70 73 77 83 82 74 73 64 51 50 47 38 33 33 33 33 36 40 41
12 11 12 11 10 10 14 12 13 21 38 52 67 70 73 74 72 66 63 68 72 72 84 72 71 65 66 65 63 59 62 70 78 65 71 78 74 63 50 36 34 35 35 32 33 34 35 34 32
12 11 12 14 14 15 14 14 20 33 41 46 60 59 59 55 53 54 50 57 65 76 76 77 72 63 59 54 48 46 50 54 72 84 90 75 62 37 32 35 39 33 32 32 32 31 30 30 30
13 16 14 12 15 17 10 14 31 36 41 43 42 44 46 48 51 55 40 44 59 73 81 80 64 56 55 58 57 46 56 59 70 71 64 52 41 38 34 32 32 33 32 31 31 30 39 39 36
19 16 17 16 26 17 18 28 43 42 45 48 49 48 50 52 62 81 62 55 58 70 84 79 60 50 46 56 66 65 58 50 49 44 38 34 34 34 34 34 35 36 35 35 35 38 39 44 42
17 17 17 17 23 32 38 50 52 54 48 54 55 58 54 59 68 87 92 96 95 90 82 67 59 52 62 70 71 48 29 36 37 34 34 35 36 36 36 37 38 37 35 36 36 37 47 52 55
16 17 18 20 33 42 51 53 55 56 56 60 59 56 59 65 75 87 99 98 97 85 70 66 59 62 63 60 38 34 37 40 35 34 35 36 37 37 36 34 30 29 31 31 29 29 39 44 60
26 28 34 34 35 39 45 55 54 55 60 61 58 58 59 65 68 78 91 93 88 86 74 68 66 62 47 39 41 41 39 40 36 37 38 39 39 37 35 43 46 47 46 43 38 43 45 55 72
32 31 35 34 36 35 38 47 57 56 58 59 58 57 57 61 65 69 81 86 87 78 69 65 57 39 42 37 32 34 38 44 45 44 41 41 42 43 43 42 45 49 48 54 53 63 59 52 66
34 32 37 39 36 36 34 38 55 58 62 60 58 57 56 51 50 52 57 63 65 46 42 42 42 39 36 35 36 37 46 48 47 42 44 44 44 43 43 44 47 53 54 68 70 67 63 59 51
35 37 33 32 32 32 37 37 44 55 63 60 57 56 52 47 41 39 39 40 40 36 38 37 37 38 40 39 40 40 38 38 40 42 46 49 47 45 43 44 49 57 58 61 67 64 56 49 43
38 37 40 43 40 43 38 34 41 56 53 55 53 54 49 44 42 42 46 47 46 40 42 42 42 43 40 39 39 39 44 48 50 50 52 52 44 45 45 44 52 61 65 62 56 41 43 44 43
34 38 48 49 54 47 46 44 34 38 45 46 49 49 49 48 48 49 45 47 54 55 51 46 45 48 42 42 41 38 36 33 32 32 43 36 47 46 52 50 62 75 56 56 56 51 38 44 39
36 37 53 57 60 45 45 48 33 36 36 40 41 43 50 51 53 50 52 52 51 55 53 52 51 47 33 21 14 10 7 6 7 7 9 13 34 39 36 65 76 63 61 55 64 63 50 39 42
33 36 40 58 60 53 46 42 34 42 40 46 49 49 51 51 53 54 56 56 53 52 55 47 36 21 16 18 17 16 17 17 19 19 19 20 24 52 68 77 75 68 60 73 69 60 56 53 54
31 35 39 47 56 54 45 51 40 49 43 44 50 49 52 52 55 56 55 62 64 60 49 28 24 23 22 20 21 23 22 23 22 23 27 28 39 66 79 72 67 60 65 66 54 58 58 43 62
35 38 50 45 53 42 48 37 43 43 40 43 42 49 52 55 56 53 56 62 68 52 36 26 26 26 22 21 23 25 25 26 28 31 34 40 51 68 76 70 65 61 58 56 43 40 38 41 60
32 36 38 44 39 62 61 36 48 52 45 45 44 53 54 54 52 50 49 47 41 34 31 26 27 24 22 23 26 28 29 32 35 40 44 50 61 67 70 70 71 73 61 43 33 36 39 43 60

GFSSGP_925_rhum_006.txt.gz
RH
28 22 16 15 15 12 14 14 27 45 52 46 46 49 57 56 64 72 73 76 74 80 87 85 66 65 68 67 66 67 65 64 68 70 62 52 43 33 26 29 36 50 69 58 32 21 20 20 24
18 14 16 12 15 15 13 13 24 44 43 38 44 40 41 47 54 69 73 86 82 81 81 79 68 67 68 67 69 70 68 70 71 64 52 43 37 30 30 35 38 36 30 23 22 20 22 32 35
14 16 11 10 10 13 14 22 39 38 35 33 44 46 51 50 48 64 87 91 88 81 80 82 73 71 70 70 71 72 72 71 67 56 46 43 42 31 26 26 23 25 32 37 38 38 39 34 28
10 12 12 12 10 9 16 30 33 34 33 33 43 51 46 41 45 67 86 86 91 88 86 83 76 76 77 74 76 76 74 74 65 52 47 45 44 28 22 20 32 42 42 42 39 39 38 42 41
10 10 11 11 11 11 17 27 28 30 28 32 33 47 41 61 69 75 86 86 92 90 96 84 85 84 78 80 82 82 77 76 65 53 49 44 38 22 23 32 41 44 44 41 39 40 43 45 44
10 11 12 12 11 15 12 24 29 28 24 27 33 41 47 74 71 83 91 85 90 87 94 90 87 81 83 86 88 81 82 78 59 52 46 42 30 40 41 41 44 47 46 45 44 44 44 42 42
12 10 10 11 18 22 19 25 29 28 26 28 31 46 76 78 80 84 82 81 87 85 91 90 88 90 90 91 87 89 80 67 57 52 44 36 43 49 48 48 48 47 46 45 44 44 46 45 45
12 10 11 14 21 26 26 29 24 20 26 30 33 44 84 74 82 88 85 86 93 92 90 92 89 89 89 90 80 85 76 64 59 51 48 47 53 50 50 50 48 47 45 43 44 45 45 46 47
12 10 12 20 23 32 29 29 23 22 32 34 34 40 53 74 68 73 80 86 90 87 86 79 78 82 86 82 91 77 71 60 52 55 56 61 61 63 58 53 46 44 43 45 48 48 47 47 57
14 12 14 15 19 20 18 19 25 32 35 35 43 50 65 66 68 70 75 81 76 76 94 90 89 90 91 81 80 76 71 63 64 68 75 63 76 73 73 58 45 43 46 48 49 48 50 52 47
13 12 10 12 16 14 15 16 20 25 34 29 47 57 66 64 66 74 74 80 74 80 92 98 87 83 80 74 66 56 56 64 68 80 82 77 79 74 66 58 56 60 54 53 48 47 46 55 50
15 11 11 7 6 13 16 17 23 20 19 23 43 55 67 68 70 62 65 54 60 68 83 89 75 78 80 60 56 62 61 70 71 79 84 84 80 70 69 55 56 59 53 51 46 44 51 50 46
14 11 9 6 8 15 18 23 23 20 26 34 46 54 56 56 54 48 46 49 53 56 66 73 75 75 72 67 68 69 71 74 82 82 87 68 65 62 78 63 54 52 46 45 44 41 39 36 35
11 8 8 8 11 11 19 20 15 18 30 38 47 46 48 52 45 46 45 47 48 57 69 72 66 68 71 72 77 73 70 68 65 94 81 71 55 51 65 57 47 46 45 42 38 35 33 33 34
9 8 8 10 10 11 8 11 20 26 32 41 40 40 43 43 42 38 38 39 44 57 66 66 70 77 75 69 68 65 75 61 57 63 72 69 68 63 61 49 50 45 44 41 39 38 37 35 34
9 8 10 13 9 11 9 11 22 29 29 35 38 43 45 42 39 38 40 37 44 59 66 66 71 73 51 46 51 50 55 59 79 70 71 70 59 43 51 49 45 36 42 42 42 41 36 36 37
11 10 10 11 15 10 8 11 25 31 28 31 36 39 39 42 43 45 38 37 46 58 65 69 69 53 45 47 48 59 49 62 58 45 43 41 37 37 46 52 53 49 45 47 44 39 42 36 38
12 9 8 9 18 11 14 23 26 33 30 31 32 35 37 38 42 49 41 42 49 61 65 72 64 55 66 62 65 55 47 46 44 44 46 48 49 53 49 52 54 46 41 40 43 45 42 44 47
9 11 10 14 24 23 25 25 28 33 35 38 35 35 35 39 51 57 62 59 58 65 71 67 68 68 63 57 53 48 47 49 45 45 52 51 50 49 49 43 46 49 46 53 52 46 41 42 46
11 11 17 22 25 22 25 32 32 32 38 36 37 37 40 48 52 63 68 67 65 65 63 64 64 62 54 50 48 51 50 47 44 48 52 48 48 44 43 50 47 48 48 47 56 53 44 34 45
18 16 22 16 25 23 24 30 34 40 40 42 39 38 41 47 53 59 65 66 66 66 67 63 56 48 48 52 48 47 48 46 42 42 40 48 52 48 47 49 50 51 49 46 52 53 52 46 41
19 21 21 25 22 20 24 22 35 40 45 44 46 45 47 50 52 55 60 64 64 67 62 51 46 50 50 44 46 47 41 39 46 42 45 49 53 54 51 49 52 52 48 48 53 52 55 49 37
25 24 23 22 21 23 24 22 34 39 45 47 47 47 48 49 48 48 49 50 47 50 48 47 45 45 47 48 46 42 43 43 44 46 46 44 42 45 44 45 48 49 46 52 62 60 51 46 46
26 25 25 24 24 29 21 24 21 37 34 42 43 43 43 42 37 34 36 36 37 43 48 48 44 46 47 48 51 51 48 40 34 29 25 21 20 20 23 28 47 56 58 67 63 57 56 53 47
25 24 28 28 32 32 32 29 18 22 29 35 42 38 40 36 31 29 31 32 38 46 50 46 44 46 49 49 43 36 29 25 21 23 21 24 22 23 26 35 42 55 65 66 63 64 64 54 46
25 23 25 33 38 22 33 26 18 24 25 30 32 32 34 33 33 32 32 34 41 48 45 45 45 45 40 32 26 25 25 25 25 30 34 31 32 36 46 56 62 71 69 67 79 71 58 50 45
27 28 27 39 46 40 23 24 24 27 28 30 30 31 32 32 34 34 38 40 44 45 49 46 37 30 28 29 29 32 34 38 40 40 37 35 38 43 50 69 72 75 72 79 64 53 50 47 43
24 24 32 34 45 39 24 30 23 33 31 31 31 34 31 31 34 38 41 44 44 48 47 38 30 29 32 32 34 36 38 41 42 39 38 40 43 47 54 63 71 72 70 59 54 47 42 42 39
28 26 28 28 38 29 24 14 26 27 29 32 32 32 31 34 37 41 43 46 46 46 39 33 31 34 32 31 37 40 41 41 42 41 41 44 49 50 55 60 67 66 57 53 60 45 41 40 40
24 23 20 24 29 42 49 20 26 32 31 27 29 31 31 35 37 40 44 50 50 40 34 32 32 30 30 32 37 39 41 43 44 44 44 50 53 55 58 62 64 60 57 59 47 41 41 41 42

GFSSGP_925_rhum_009.txt.gz
RH
16 26 14 8 13 12 14 11 9 28 42 40 34 36 41 45 56 69 58 66 69 74 75 75 63 63 66 67 64 62 64 65 70 67 57 46 35 32 34 32 30 33 55 59 52 29 33 32 31
24 13 8 9 15 15 11 8 12 41 45 34 32 33 34 47 45 61 62 66 67 74 78 79 66 65 69 69 69 68 67 71 68 56 47 39 33 29 28 27 26 32 54 62 48 35 32 28 26
16 8 7 8 12 12 11 13 30 32 30 32 35 29 32 35 45 53 63 66 74 79 76 79 69 65 70 72 73 73 73 71 62 53 48 40 34 28 29 28 36 50 54 51 41 35 37 36 36
10 6 8 12 12 9 9 28 31 28 28 28 32 43 31 34 39 62 69 68 74 80 86 76 69 69 72 75 77 76 74 70 60 54 47 45 36 27 24 35 44 47 48 44 42 44 45 46 44
8 6 7 10 10 9 8 28 23 26 31 28 27 37 36 36 50 53 63 73 84 84 92 80 77 78 76 80 79 78 80 70 58 54 47 43 25 23 28 40 41 40 42 44 46 46 46 44 42
6 7 10 11 11 9 8 20 28 35 30 28 26 31 36 47 46 58 79 95 83 90 90 85 82 82 81 82 84 84 82 68 56 51 40 31 36 39 40 41 42 43 43 43 44 44 44 42 44
8 8 10 10 10 11 12 16 34 34 32 33 28 39 42 43 48 63 98 69 90 76 86 83 90 85 83 84 87 86 76 58 52 42 34 39 47 46 44 43 44 46 45 44 46 46 46 45 45
7 9 10 9 11 21 14 18 21 22 25 23 20 36 50 42 65 79 88 90 92 98 88 86 85 90 94 90 90 81 66 52 47 45 42 50 46 45 42 56 46 44 44 46 45 45 44 44 47
8 11 10 10 18 35 20 22 16 16 19 22 50 32 40 54 65 70 78 86 87 87 88 84 80 79 81 88 70 58 52 44 42 53 52 62 60 56 55 52 43 42 43 44 46 45 42 43 52
9 10 9 12 20 29 24 19 27 20 26 30 41 36 51 54 59 63 65 71 70 77 74 79 80 83 74 64 65 61 57 52 55 60 60 51 63 55 48 51 39 39 42 46 43 42 44 48 40
9 12 13 22 15 15 16 16 15 33 30 26 39 44 42 48 58 58 57 46 47 67 78 77 79 72 59 56 48 44 47 54 62 68 59 69 61 66 57 55 52 52 52 48 45 43 43 49 45
12 10 10 8 11 11 13 11 27 47 62 40 27 36 35 46 55 52 52 44 56 67 72 65 60 62 59 48 42 44 52 56 56 63 67 68 63 70 65 58 56 49 46 47 44 42 44 40 36
11 10 9 7 7 12 12 14 15 18 20 24 33 38 36 41 39 40 35 37 44 49 56 53 57 61 59 50 56 58 64 69 73 74 74 72 68 61 53 53 44 59 47 44 44 41 36 32 31
10 10 7 9 11 14 17 14 12 23 22 30 34 32 31 32 30 30 32 35 38 45 55 57 54 58 59 64 66 62 64 63 63 73 83 77 69 66 63 65 59 49 48 45 41 38 37 36 34
8 8 8 13 12 14 10 13 17 24 24 28 27 26 28 26 27 28 30 34 38 46 53 55 62 63 65 63 57 57 63 60 61 68 85 91 79 81 62 57 46 50 45 43 38 39 37 34 34
9 9 16 15 10 8 6 14 16 20 24 26 26 27 28 28 26 25 26 29 40 46 49 56 62 63 60 60 53 50 61 62 68 66 76 74 67 55 48 56 55 52 46 44 45 41 39 39 36
9 12 13 14 7 5 7 12 17 16 21 25 27 29 29 29 26 28 29 29 38 47 52 55 61 62 75 54 64 62 55 58 54 49 50 51 51 51 50 48 50 53 42 40 42 40 42 41 40
13 10 10 9 8 6 9 14 16 16 18 24 25 29 31 32 30 31 30 29 38 48 53 58 60 60 59 55 56 52 47 45 41 40 43 45 44 50 48 43 52 50 41 41 46 52 48 45 40
10 8 8 8 8 8 12 12 15 17 17 20 22 26 29 30 31 37 33 34 39 49 53 60 57 59 55 48 44 43 43 44 42 43 48 47 48 45 47 44 45 45 44 47 48 49 48 44 34
9 10 11 11 12 16 13 16 16 18 19 20 21 23 25 29 36 38 42 41 43 51 55 56 57 56 45 42 39 42 41 41 40 45 49 46 48 45 43 48 48 47 48 46 46 46 49 40 32
10 10 15 15 16 15 13 20 23 21 23 24 23 22 24 31 38 43 47 48 50 54 54 53 51 46 41 43 44 42 41 42 38 38 38 45 51 50 48 46 46 48 46 40 39 40 48 43 38
14 14 14 14 18 18 12 21 20 26 27 28 27 28 30 32 37 43 48 51 53 54 52 46 44 44 47 36 40 42 37 36 43 41 42 44 41 40 36 33 36 40 44 42 39 39 50 48 40
32 16 16 16 18 16 18 16 58 26 28 28 30 30 32 35 39 42 45 51 48 50 48 43 43 38 40 42 42 40 40 39 38 35 29 24 22 21 20 21 25 30 41 44 47 50 52 49 47
18 19 17 15 16 25 15 21 34 26 22 26 30 34 37 39 40 39 41 43 47 47 46 44 38 40 44 47 50 48 40 31 27 26 22 21 20 22 24 29 34 36 38 48 49 54 55 66 61
17 19 22 23 28 26 16 20 16 13 18 21 31 35 38 37 35 32 34 32 36 41 44 41 39 42 46 46 39 33 30 28 24 26 25 28 25 26 29 40 44 44 44 51 60 63 76 77 58
18 15 23 28 26 18 20 20 13 14 13 16 26 30 34 34 29 28 28 28 34 40 42 38 40 43 43 33 30 31 27 27 27 31 32 28 29 30 36 42 51 50 54 65 65 76 78 72 56
16 24 17 24 28 30 18 12 12 19 18 20 28 30 33 31 26 24 25 28 33 40 41 41 40 37 31 31 36 36 34 37 37 36 34 30 32 33 34 44 49 60 60 72 77 62 56 44 46
21 16 25 21 31 34 18 17 14 24 22 22 28 29 30 27 25 26 26 30 36 40 42 43 37 30 33 38 38 35 35 38 38 37 35 35 37 39 40 42 45 51 55 64 53 47 50 51 42
23 20 20 22 29 35 26 16 15 13 19 22 25 26 27 27 26 27 29 34 38 40 43 40 31 32 36 35 33 37 36 38 38 37 37 37 41 40 41 42 47 46 46 46 48 50 53 42 42
20 20 20 30 26 30 39 22 16 19 19 20 22 23 25 24 25 27 33 36 38 42 41 35 32 34 33 31 35 37 38 37 36 37 38 40 42 43 45 48 48 45 44 44 43 43 40 41 44

GFSSGP_925_rhum_012.txt.gz
RH
9 14 25 13 13 14 15 13 9 23 37 30 27 31 43 45 56 74 85 78 77 82 61 57 58 57 58 58 57 60 69 78 74 62 49 41 37 39 42 40 42 51 64 61 60 47 30 26 26
19 19 16 10 14 16 14 9 41 35 34 29 28 29 35 56 53 60 69 72 70 73 76 67 63 64 64 64 67 70 79 77 62 52 42 37 34 36 34 34 46 62 74 69 62 39 35 34 30
28 19 8 9 12 16 13 16 28 38 33 32 32 28 30 48 49 56 68 72 73 72 73 81 68 68 71 73 77 78 76 66 56 45 39 34 25 26 24 42 50 66 70 57 43 39 39 37 34
15 8 7 13 12 10 10 19 29 28 27 27 29 36 29 30 44 53 70 75 80 77 78 69 70 73 76 78 78 76 68 58 49 40 38 29 20 17 36 40 41 43 39 38 40 40 40 39 37
14 7 8 9 12 10 9 26 44 66 54 57 45 32 31 42 45 58 70 76 91 97 84 81 83 84 84 83 79 76 66 52 44 38 36 22 16 29 39 40 39 38 40 42 42 41 42 42 40
10 8 10 10 8 8 8 34 48 63 65 52 61 29 35 42 50 78 76 88 96 91 89 87 90 90 95 86 79 78 61 48 43 32 28 25 33 38 40 41 40 41 42 44 45 45 44 42 41
13 8 9 9 9 13 9 29 36 48 42 34 37 63 80 37 80 86 81 80 87 80 94 78 91 92 88 83 81 73 52 42 38 31 29 40 41 40 39 39 39 41 43 43 42 42 41 38 45
9 9 10 9 10 13 31 36 47 42 28 24 32 47 51 64 97 79 74 92 92 95 99 97 84 99 85 85 74 59 44 43 38 31 40 39 38 35 55 63 39 37 38 41 42 42 36 39 44
6 10 11 10 11 38 53 52 37 32 21 28 31 43 43 69 79 84 96 88 72 77 87 90 81 85 81 74 66 53 38 34 40 40 57 61 63 59 66 50 33 33 35 36 38 37 42 46 47
9 12 12 29 32 40 52 70 48 21 35 40 43 75 68 64 69 74 80 97 92 94 86 80 80 77 73 68 62 42 43 56 59 60 59 65 61 51 47 54 47 50 54 45 51 45 45 49 46
9 12 10 41 48 41 32 47 24 27 46 65 81 60 51 57 63 65 66 69 74 75 81 78 69 69 66 60 56 53 56 58 66 63 63 59 64 62 60 57 64 57 51 51 46 45 47 43 39
10 8 10 31 36 37 23 24 32 36 52 70 70 44 48 52 55 50 54 59 62 68 73 75 68 57 51 46 43 46 54 58 62 67 64 64 65 67 62 60 56 50 48 47 47 46 39 35 34
10 10 9 10 14 15 20 21 30 33 38 41 49 31 42 46 44 40 39 51 56 59 55 58 61 52 47 45 56 59 63 65 69 74 69 72 68 63 57 54 54 54 50 48 46 39 39 36 35
9 10 8 8 10 19 24 25 21 29 29 32 30 29 35 36 34 32 35 39 47 50 54 57 59 56 54 62 63 59 62 63 55 70 77 76 71 71 68 64 54 48 46 44 40 39 40 38 38
10 12 9 12 12 15 34 21 20 24 27 30 28 27 27 27 28 29 33 36 45 51 55 53 58 64 66 62 58 59 47 58 66 72 83 89 74 70 66 52 54 53 52 39 39 41 40 40 38
11 10 14 16 14 12 10 18 18 24 26 26 25 26 26 25 26 28 32 34 45 50 54 58 62 66 63 58 55 53 64 66 63 66 63 63 55 51 54 49 50 50 44 43 45 42 44 45 45
13 15 24 19 14 8 6 15 16 20 23 25 26 27 27 27 25 26 29 35 43 48 56 61 63 62 55 54 56 66 64 54 45 46 47 48 51 51 49 48 53 48 45 41 44 50 51 52 50
18 15 17 15 11 6 7 14 15 17 50 82 25 26 28 28 25 26 26 33 44 49 53 62 63 69 54 61 56 56 49 45 42 43 47 45 48 49 45 47 47 49 47 47 48 50 52 51 49
14 13 12 10 7 7 12 14 15 14 26 26 28 28 29 30 28 29 27 31 44 51 53 60 62 64 54 56 49 46 43 43 44 49 48 48 45 45 46 47 49 48 49 49 47 47 50 50 45
13 13 10 8 8 9 10 13 13 14 15 19 22 28 29 30 30 33 31 32 42 51 54 58 58 59 57 44 45 43 42 41 42 48 48 51 51 49 47 47 47 47 48 49 46 42 43 48 46
12 13 15 12 9 9 24 18 14 14 14 15 17 19 24 28 35 37 34 38 42 52 56 56 57 55 41 42 46 44 40 40 43 42 46 47 47 45 41 35 33 36 41 46 45 42 45 52 50
23 20 14 18 27 18 23 33 52 32 16 19 20 21 22 25 33 37 42 43 52 54 55 54 51 45 46 39 39 40 41 45 44 42 41 35 28 26 22 21 22 24 29 40 47 47 49 52 51
23 21 18 13 17 22 30 30 40 39 30 23 24 24 26 30 34 41 44 55 54 55 53 46 43 43 39 40 43 40 42 40 38 29 26 22 22 22 23 27 33 36 39 37 43 52 56 57 64
17 18 19 13 16 47 32 39 43 42 33 32 22 26 28 31 36 39 53 54 54 53 48 44 40 39 42 46 46 45 34 31 29 26 24 26 25 26 28 34 41 46 46 47 55 59 63 67 70
14 18 26 38 47 40 15 28 36 36 33 61 68 27 31 36 39 40 53 51 49 50 47 42 39 43 49 50 41 34 31 27 29 28 29 30 28 29 32 37 44 50 50 57 60 63 70 70 73
18 14 33 78 79 43 21 27 15 20 29 49 38 29 35 38 41 40 39 44 46 47 46 40 40 45 48 37 32 30 29 28 30 34 34 30 31 33 33 37 44 50 60 56 60 71 67 73 71
12 18 14 23 52 39 22 12 8 15 14 15 27 31 37 38 37 36 36 35 40 43 44 40 40 44 40 32 35 36 33 32 36 37 36 32 34 36 34 40 42 46 58 54 63 61 61 57 61
19 14 26 26 39 38 19 19 21 21 19 18 26 32 34 34 32 31 31 32 36 41 43 40 40 42 34 35 40 37 37 39 38 37 36 36 38 41 40 40 42 44 48 60 56 54 51 53 55
20 20 18 17 34 56 52 23 14 16 16 20 21 30 32 34 32 28 26 28 34 41 42 43 41 35 33 41 40 36 37 39 39 38 38 38 40 42 42 43 45 46 45 43 46 47 44 51 52
17 22 18 55 37 50 60 34 14 16 14 16 18 23 28 30 29 27 27 28 35 41 41 45 41 32 37 38 36 37 38 39 37 37 38 39 42 42 43 46 48 47 46 46 50 49 46 48 59

GFSSGP_925_rhum_015.txt.gz
RH
13 8 18 27 27 25 26 20 18 44 47 38 41 54 71 70 78 87 98 81 67 67 71 69 68 66 58 58 62 67 73 65 51 42 36 34 31 33 30 30 35 44 64 65 59 34 29 27 26
12 13 22 30 22 27 26 27 57 49 40 36 36 41 57 77 68 97 96 90 79 77 78 65 54 56 58 63 70 76 70 57 43 36 34 30 28 28 33 45 51 63 73 74 59 34 31 30 33
13 25 34 22 23 24 23 29 51 41 37 35 37 35 41 74 75 85 83 95 92 89 73 64 60 63 66 75 82 77 65 49 39 33 27 23 22 31 45 49 53 63 63 50 35 34 33 28 34
25 20 13 16 19 16 15 26 48 49 57 49 46 43 35 51 57 74 84 84 78 80 67 69 69 72 78 83 81 67 53 42 35 32 23 19 22 36 39 38 38 47 45 39 37 36 33 34 32
26 22 14 15 16 13 19 45 57 64 67 53 42 40 50 78 65 69 83 98 99 83 82 80 80 84 87 87 74 57 44 38 31 30 18 16 33 34 34 32 34 37 37 37 38 37 36 44 38
29 16 18 17 11 8 49 54 57 64 59 50 46 42 57 84 71 96 92 98 98 92 92 90 88 97 94 91 67 48 42 35 28 24 19 26 33 33 32 33 34 35 36 39 39 37 36 40 45
27 23 19 13 11 29 45 46 55 59 53 48 45 76 76 97 100 99 100 96 92 94 97 98 100 84 80 84 63 45 38 32 22 22 32 32 31 30 31 32 33 34 36 37 36 32 35 43 49
18 18 18 15 14 45 46 49 45 46 49 36 52 64 74 97 92 100 99 100 100 95 95 92 88 97 88 82 59 42 35 26 23 33 32 32 32 40 46 36 31 33 34 32 33 37 44 49 44
12 16 16 34 58 60 66 53 47 40 41 44 66 57 94 98 100 95 96 82 73 96 66 57 62 84 78 69 51 34 30 29 37 43 52 54 48 63 52 37 30 32 38 40 45 44 48 47 44
18 18 17 40 43 53 50 48 44 39 56 78 56 69 90 92 94 84 82 95 90 98 68 59 69 89 72 56 38 32 39 37 48 60 63 67 64 63 52 56 43 51 58 52 48 50 50 45 38
16 16 28 40 35 41 42 50 50 43 56 56 61 67 86 77 94 80 79 85 96 98 93 77 75 66 61 48 40 56 61 65 63 66 63 69 64 65 64 67 66 54 54 53 53 46 40 35 35
15 12 11 34 34 46 44 51 48 46 49 61 59 66 72 73 90 81 93 88 89 94 79 68 73 66 56 50 56 54 58 62 61 68 65 62 65 60 59 59 54 51 49 48 44 40 38 36 35
13 12 12 27 28 37 36 44 37 52 51 46 59 61 68 63 70 87 79 83 83 80 74 71 69 64 59 59 57 66 68 69 72 71 70 67 66 58 54 58 56 50 47 46 43 38 37 36 36
11 12 9 10 20 26 28 34 32 34 52 55 59 61 57 57 61 68 67 70 73 74 68 60 49 50 60 61 60 62 65 60 51 64 66 71 70 68 63 60 52 49 48 41 37 37 39 42 41
13 12 10 16 27 27 22 36 39 35 44 49 52 58 53 45 44 54 60 60 56 63 61 57 56 61 60 59 57 58 56 50 61 75 76 79 82 68 56 52 49 48 42 43 43 44 44 43 45
14 14 17 17 18 26 24 37 41 38 39 40 40 38 44 38 42 44 53 55 57 58 56 54 70 62 60 57 57 50 59 64 64 64 62 55 51 52 49 46 45 41 41 43 45 48 48 48 48
18 25 26 19 15 18 23 33 36 33 34 37 36 36 36 37 39 40 52 55 55 54 53 68 68 64 59 54 56 66 59 45 43 42 44 43 44 48 50 49 46 46 47 49 48 48 50 50 55
22 28 25 24 16 16 13 24 36 36 40 50 44 49 38 37 39 36 50 53 53 53 60 68 64 61 56 61 62 54 44 48 46 45 49 46 45 43 48 51 51 50 49 50 48 45 48 49 48
18 16 23 20 16 13 16 23 35 44 53 38 60 70 62 38 34 32 46 51 53 58 65 66 62 53 62 60 54 50 50 45 46 46 46 45 47 47 47 46 47 48 48 48 47 46 41 39 48
22 24 22 14 9 9 18 22 23 51 49 42 66 67 68 48 38 33 47 55 56 58 64 65 64 61 62 55 49 45 44 43 41 47 47 47 47 48 47 41 41 40 41 42 47 46 43 47 50
21 25 21 18 12 14 21 28 30 26 34 47 53 62 44 41 40 43 44 60 59 58 62 63 61 55 56 62 48 47 44 45 50 50 51 47 41 37 29 23 22 23 25 36 43 49 52 52 52
28 21 25 19 24 28 20 47 46 27 27 27 32 38 38 39 42 45 49 60 60 65 60 62 58 59 55 46 45 41 42 48 52 45 32 28 27 24 21 22 24 28 31 33 35 45 57 55 58
22 19 22 23 25 36 28 40 48 35 30 31 29 32 37 44 46 50 55 58 59 60 60 59 58 45 44 42 40 42 46 41 33 32 27 23 22 22 24 26 29 33 44 49 55 62 61 63 63
18 20 22 27 32 57 37 39 53 48 34 32 34 27 36 46 53 54 53 59 61 60 62 57 46 41 42 42 41 42 42 35 33 25 23 23 26 27 29 31 32 44 51 62 62 63 63 62 64
23 31 48 46 69 65 39 44 37 41 30 32 35 31 36 49 56 69 69 66 61 63 50 42 41 46 44 44 41 36 33 31 27 26 26 27 28 29 32 32 37 46 56 60 57 55 60 65 68
24 29 59 54 85 63 47 44 34 22 29 31 31 34 40 53 58 66 62 59 63 53 43 40 43 49 49 46 41 32 28 29 30 29 30 30 30 32 33 35 37 44 60 56 50 58 52 60 67
21 32 30 67 69 83 51 31 22 32 36 45 45 46 51 56 61 63 58 57 54 47 41 42 46 50 49 44 35 31 29 28 31 32 32 32 33 35 37 39 40 42 45 58 56 58 57 60 59
21 21 38 54 69 55 31 30 35 30 31 44 54 48 55 58 58 62 54 54 52 47 44 42 45 49 41 33 31 30 31 32 34 36 35 35 37 38 40 41 42 44 44 46 56 58 54 46 52
27 27 23 31 56 61 74 46 18 22 23 41 46 46 49 50 48 50 46 49 47 45 44 42 44 47 37 34 36 38 36 36 37 37 38 38 39 42 43 43 45 47 48 47 47 47 47 48 53
20 24 35 63 36 72 76 53 20 18 17 20 29 39 44 44 43 41 40 44 48 48 45 42 44 44 35 37 40 37 38 39 39 40 38 39 41 42 43 43 46 48 49 49 49 50 51 54 53

GFSSGP_925_rhum_018.txt.gz
RH
18 18 18 29 32 30 28 23 17 38 47 48 56 71 83 80 85 73 92 85 91 97 89 82 75 68 56 59 64 67 61 46 38 34 30 25 26 27 33 39 42 48 50 29 29 34 36 36 40
17 16 24 34 28 28 25 21 46 51 43 39 39 55 74 86 86 96 98 97 98 90 96 89 80 58 60 66 72 68 55 43 35 34 30 23 25 33 36 36 38 34 37 31 27 28 34 37 38
18 24 43 33 30 27 24 35 56 58 47 38 39 38 61 92 89 93 91 93 91 99 93 84 64 61 68 76 76 57 46 37 36 29 24 21 32 42 38 29 36 33 32 31 31 36 32 34 34
27 25 27 16 18 17 17 28 51 47 42 44 40 51 58 87 84 90 76 73 80 92 88 71 62 64 73 78 64 45 38 36 33 27 21 28 36 38 36 33 31 32 33 33 34 43 35 34 35
29 24 19 17 15 13 15 41 60 76 68 53 38 55 74 94 97 100 100 100 98 95 74 67 69 73 77 72 51 44 36 36 26 20 20 29 29 29 28 30 30 33 35 35 33 38 44 35 40
35 22 21 20 15 24 54 58 60 71 69 51 45 68 90 100 99 100 98 100 93 94 88 91 93 92 91 65 52 44 35 28 21 15 28 28 29 29 31 33 34 36 36 35 35 37 45 44 42
32 32 28 21 18 32 51 56 65 59 58 53 57 84 95 94 98 99 99 92 97 97 100 98 94 86 79 78 47 37 30 24 17 21 29 28 31 32 33 34 34 34 33 30 34 45 48 43 46
29 24 20 16 60 68 62 60 51 52 50 44 47 74 97 96 99 99 98 97 94 96 99 90 74 68 71 75 51 35 26 20 26 32 33 32 33 32 33 30 30 33 34 43 43 45 48 45 41
16 22 22 20 50 50 59 58 45 45 56 62 71 87 93 100 100 100 98 86 78 85 93 75 72 76 84 72 44 34 27 32 38 38 36 54 57 50 38 35 38 41 41 49 50 50 48 41 39
20 24 21 22 45 53 48 45 44 50 63 76 95 92 99 99 97 96 97 95 85 86 100 90 65 67 82 56 42 36 33 38 43 54 54 59 64 62 57 44 48 59 58 55 55 56 46 39 36
18 22 20 40 38 47 48 48 51 50 67 59 94 90 90 92 93 91 93 94 59 65 90 75 70 76 78 53 39 39 41 56 63 66 71 61 64 67 66 67 52 55 52 49 42 38 36 35 33
18 15 16 40 40 41 40 47 54 51 50 60 84 80 90 89 91 89 89 95 81 69 60 65 80 79 62 40 46 58 60 66 71 68 69 67 68 65 61 57 53 50 48 45 42 39 37 35 36
17 15 14 30 36 38 39 43 39 52 62 68 70 76 87 79 81 84 84 92 98 98 68 71 77 72 57 45 57 64 71 73 68 68 67 65 64 57 53 54 50 47 45 43 40 36 36 37 38
18 14 12 32 35 32 38 41 37 44 63 69 69 71 83 82 81 88 84 91 96 86 82 73 72 69 60 62 62 63 70 71 72 71 70 69 61 56 56 55 51 47 42 42 40 39 40 42 44
22 14 22 28 30 30 34 40 51 45 59 66 68 70 69 84 77 80 81 85 87 81 73 74 71 69 60 63 71 74 74 67 64 69 73 72 72 68 60 51 44 43 43 46 46 46 46 46 46
22 16 21 24 27 30 30 48 40 48 54 60 57 64 66 71 80 79 82 81 80 74 69 63 63 65 66 66 62 59 62 62 70 77 78 72 58 55 50 44 44 43 45 48 48 48 48 48 51
24 23 24 20 19 28 28 51 44 43 47 55 61 65 55 60 65 70 72 69 71 67 61 64 66 63 62 61 52 52 64 59 61 54 52 52 49 49 50 47 46 47 49 49 48 47 47 49 52
23 27 27 24 18 27 32 40 46 43 46 56 56 56 50 53 57 63 63 65 66 61 61 67 65 63 61 54 60 61 48 44 45 44 46 45 46 48 49 49 50 50 49 49 49 48 44 42 42
22 21 24 24 20 19 26 42 48 47 48 62 62 55 55 49 50 58 62 63 61 58 61 70 68 63 56 64 55 49 48 48 49 48 46 43 41 43 45 46 46 45 44 43 42 48 45 43 48
23 24 26 25 20 14 27 44 44 51 40 48 57 58 44 53 50 59 62 64 61 58 64 74 67 61 58 57 48 45 47 48 46 47 46 46 47 46 44 42 40 40 37 42 47 48 49 50 54
24 25 28 24 15 22 27 32 37 43 44 45 50 42 39 48 45 57 62 65 65 72 74 70 63 56 59 57 49 49 47 49 49 47 48 49 47 45 41 32 25 24 25 28 32 48 55 56 57
31 22 26 23 24 27 21 44 41 36 37 49 45 60 50 58 39 49 60 66 70 74 70 65 62 57 60 58 50 50 48 50 50 50 51 44 37 33 26 23 24 27 32 39 46 47 55 60 58
29 27 22 24 34 32 32 43 34 44 29 46 52 54 56 54 40 45 61 64 68 72 71 65 65 65 60 62 51 47 47 48 52 45 29 26 24 24 25 28 30 30 42 54 59 62 62 61 60
21 21 34 36 42 57 45 38 43 48 30 24 38 47 49 46 48 63 62 64 68 69 71 72 68 65 65 62 56 50 45 51 40 28 26 24 25 27 30 31 31 42 53 61 60 59 56 58 62
25 37 47 43 66 60 43 42 39 32 37 33 34 39 41 45 63 73 76 70 78 76 75 68 62 56 51 48 50 48 46 46 36 29 24 27 30 33 33 32 36 41 56 60 58 51 57 56 62
28 33 54 46 72 50 50 57 42 30 28 31 30 38 55 64 60 67 73 73 80 80 67 58 47 47 48 46 47 47 39 34 30 27 28 29 30 32 34 36 38 42 56 62 59 57 58 54 62
24 30 32 65 76 69 58 36 23 35 40 36 43 45 57 68 76 75 74 72 74 67 57 55 50 48 48 46 43 37 32 29 30 31 29 29 32 35 35 38 40 42 43 46 50 66 60 62 63
24 23 36 58 61 63 40 39 40 31 33 38 47 49 48 65 76 79 71 69 65 56 51 50 49 47 50 46 40 33 30 31 32 33 31 32 33 36 34 40 41 43 46 47 48 49 48 48 49
37 31 28 41 60 57 69 47 25 27 31 34 46 50 52 66 71 71 68 64 59 52 50 48 49 50 52 54 44 33 31 32 33 33 34 40 36 37 37 41 42 44 46 48 50 49 52 52 54
30 30 33 60 35 77 78 51 28 23 23 36 46 48 56 60 63 64 64 62 59 52 48 46 46 48 51 51 36 32 35 34 35 36 38 39 39 39 40 43 41 44 48 50 49 47 47 57 55

GFSSGP_925_rhum_021.txt.gz
RH
24 22 20 28 35 33 30 26 18 32 56 59 64 70 90 97 79 68 98 90 97 100 89 81 70 53 54 60 62 58 43 31 28 24 25 23 23 31 30 30 31 39 62 65 63 58 38 40 45
21 18 26 31 30 32 27 22 26 47 52 52 61 72 83 97 85 97 95 95 99 98 99 86 68 59 61 66 64 53 39 32 28 24 24 22 33 36 33 29 27 26 36 57 53 57 38 34 43
22 32 43 37 33 27 25 24 55 52 58 51 49 54 75 96 86 93 99 100 98 100 98 89 74 69 69 71 61 42 33 34 26 29 29 37 36 35 30 30 28 32 40 37 36 41 42 34 33
29 31 26 19 19 19 17 19 52 53 49 54 47 67 81 98 87 96 100 99 98 99 100 84 72 70 72 69 49 37 35 37 29 40 40 49 36 42 37 34 35 32 40 42 37 36 44 37 32
26 25 23 18 16 13 26 60 55 65 65 64 63 89 92 98 100 99 99 100 100 91 93 78 64 68 71 56 42 40 42 33 27 31 41 43 47 48 42 35 34 35 34 39 43 38 39 39 36
38 24 24 21 18 14 58 64 65 65 65 58 70 84 96 100 99 99 99 100 98 100 95 85 86 90 75 50 42 42 35 25 23 28 34 36 41 40 35 33 35 35 35 39 45 43 42 44 38
36 35 31 22 25 44 60 59 63 64 56 53 64 91 97 98 100 98 96 94 93 94 97 99 100 98 78 61 48 36 36 20 24 36 37 35 34 32 31 34 35 32 33 42 47 45 44 48 42
36 30 22 18 54 54 56 54 51 50 52 52 60 95 98 98 100 100 100 100 89 87 84 86 90 92 82 64 48 29 22 19 33 35 35 33 32 34 34 37 36 40 43 45 48 50 44 43 42
20 29 28 19 58 44 53 51 46 59 72 86 88 93 94 100 100 100 100 100 100 100 93 92 84 74 68 57 44 34 27 30 37 37 35 36 38 36 39 37 39 42 50 52 52 50 43 40 39
24 32 27 20 38 49 50 48 48 58 80 93 93 96 100 99 99 94 99 100 100 100 97 74 65 69 69 65 47 37 33 44 40 40 48 60 57 46 41 45 56 55 54 53 54 49 40 37 34
21 24 20 32 40 46 47 48 51 62 70 83 96 97 94 96 96 98 95 98 99 98 79 70 72 77 81 65 51 34 40 48 44 50 63 66 63 62 58 57 58 55 51 46 44 37 35 34 35
20 18 20 22 38 45 48 49 52 60 64 78 85 84 90 90 90 90 93 87 99 100 90 75 70 77 82 69 52 42 49 53 60 69 63 62 66 66 65 52 51 48 44 41 40 38 37 37 39
19 17 16 24 40 40 43 45 45 68 85 82 84 85 86 83 89 84 88 86 88 93 87 73 74 80 82 54 46 46 57 69 69 70 66 66 65 62 59 53 49 46 44 42 39 38 37 40 42
19 22 19 29 40 39 43 44 44 65 86 87 81 87 73 71 78 86 88 91 88 82 70 75 79 83 77 51 54 64 70 72 68 70 70 70 63 57 53 50 48 44 42 41 41 42 44 45 45
23 16 27 35 38 42 36 41 48 63 75 89 85 86 74 76 80 82 84 85 75 66 65 72 78 76 64 49 61 72 76 74 71 73 75 66 60 57 56 51 46 43 45 46 47 48 49 48 49
22 17 34 27 31 36 31 49 49 66 70 80 83 90 78 80 78 83 79 85 80 77 74 68 74 78 75 69 65 66 77 77 74 74 73 71 71 63 52 42 40 44 46 47 48 48 48 47 49
26 23 26 28 25 35 31 54 53 63 65 76 75 83 88 86 78 78 78 84 79 74 70 72 75 77 75 73 76 77 78 71 70 75 79 74 62 52 44 44 46 47 46 48 49 49 46 46 45
27 25 27 26 24 31 36 53 58 60 62 67 75 80 83 86 81 77 79 83 78 75 73 74 75 72 73 68 67 73 74 73 72 68 60 54 50 48 46 46 47 49 50 48 45 44 45 44 45
27 23 24 24 20 25 39 52 56 58 62 68 71 72 73 78 72 75 79 79 80 76 73 68 67 72 67 65 67 67 60 53 51 50 48 46 46 48 45 44 48 46 42 39 40 45 46 46 47
23 25 27 25 22 20 28 47 52 56 55 58 64 66 63 66 66 71 73 73 76 74 69 72 70 71 65 60 61 54 47 48 48 49 46 43 43 44 43 44 40 36 32 31 36 41 46 55 55
27 25 28 29 20 26 35 43 54 49 45 48 55 54 53 59 63 70 70 72 73 73 69 67 70 66 62 59 55 49 49 53 53 51 48 47 46 45 42 34 28 25 23 23 26 34 52 56 55
31 25 26 27 23 35 24 51 45 52 52 47 46 60 50 53 55 66 68 71 72 72 69 65 68 67 64 60 52 48 51 56 53 51 51 48 41 36 30 26 24 24 21 23 36 43 50 60 61
29 27 27 25 37 34 32 41 37 47 54 45 41 44 54 57 52 62 67 67 70 70 74 72 74 70 65 60 54 49 53 52 50 53 47 37 31 28 26 26 27 24 24 42 56 60 61 60 59
22 22 36 43 44 54 37 40 41 54 42 42 34 41 42 64 62 52 63 65 70 73 78 79 78 71 65 62 58 50 53 55 52 51 42 29 28 28 30 31 30 35 44 53 59 58 49 49 53
28 36 46 42 62 58 44 44 42 30 34 32 34 38 49 55 57 65 73 70 72 78 81 83 80 78 64 69 68 57 54 54 52 46 31 29 31 32 33 31 31 34 42 58 61 56 59 54 53
29 33 54 44 64 43 51 52 39 30 32 33 35 36 44 61 55 66 70 72 76 79 83 83 78 78 74 74 70 63 58 56 50 38 29 28 30 31 31 35 40 43 54 64 64 64 66 60 62
26 32 33 67 77 72 52 46 24 28 34 44 44 51 60 60 71 70 72 74 77 80 81 78 74 75 72 68 71 70 60 53 44 33 28 29 29 28 36 39 39 41 43 44 50 59 68 62 62
26 32 36 59 54 57 50 38 38 33 31 44 54 48 56 73 81 81 78 75 78 80 79 75 72 68 67 59 57 58 52 46 36 30 29 26 29 35 38 40 37 39 43 46 49 48 48 48 47
36 33 37 44 62 59 66 49 34 31 25 30 32 52 50 72 82 81 77 79 80 78 74 70 67 60 59 54 54 55 48 37 32 32 29 30 34 36 34 35 35 38 44 47 49 51 50 48 52
31 34 36 62 39 78 78 53 29 26 25 28 32 37 54 59 76 76 74 77 73 68 68 68 66 60 56 52 52 51 45 36 36 33 31 34 35 36 37 37 40 39 40 47 50 51 48 47 49

GFSSGP_925_rhum_024.txt.gz
RH
21 19 19 25 35 34 29 25 22 22 62 74 72 74 87 94 76 77 99 92 89 99 88 73 57 54 60 61 50 34 26 21 25 19 21 31 33 52 57 62 68 70 72 67 54 44 48 52 52
19 18 26 32 31 32 22 22 25 45 60 64 56 71 92 91 84 95 94 98 99 98 92 76 68 65 63 58 49 36 25 27 20 21 31 33 40 45 51 60 67 70 69 68 45 39 47 47 50
21 33 36 35 35 28 24 20 61 62 62 51 49 72 87 94 87 96 94 97 97 99 96 84 88 70 65 59 43 40 26 27 28 30 48 39 48 52 41 48 64 72 72 59 39 31 33 37 41
27 33 22 24 25 21 19 17 36 53 55 55 53 88 90 98 89 99 100 98 96 98 94 87 80 64 66 56 44 33 44 24 35 36 49 64 64 50 36 45 50 60 72 53 38 34 30 31 40
23 28 27 19 18 14 25 65 68 67 64 69 65 92 94 99 100 100 100 99 99 100 98 83 67 64 69 55 42 48 22 27 32 53 58 67 58 37 32 34 41 42 41 46 41 37 35 33 34
35 25 26 24 18 16 58 62 66 66 66 62 84 84 95 100 98 100 100 100 100 100 100 96 87 80 71 51 48 28 43 30 58 66 65 58 40 33 34 35 33 38 45 47 48 41 38 37 37
34 34 29 23 24 36 58 57 65 66 60 69 74 91 97 98 100 100 98 94 96 97 94 97 99 97 64 47 41 43 25 52 49 55 45 35 33 33 36 36 38 42 48 46 47 50 46 40 39
37 32 26 23 32 54 55 55 54 53 66 65 71 94 94 98 100 99 100 98 98 97 100 100 95 87 85 67 64 41 37 42 51 35 33 34 34 38 40 39 41 42 46 49 48 48 45 40 38
23 32 32 22 42 42 55 54 56 75 91 86 88 92 92 100 100 99 100 100 98 88 93 94 84 82 74 60 46 43 53 46 33 35 37 36 37 38 40 43 46 49 50 51 50 44 41 39 37
28 37 28 22 23 43 51 51 54 74 91 91 96 97 100 100 100 98 99 100 100 100 89 78 80 86 71 58 62 42 28 32 36 36 37 39 40 40 42 47 49 52 54 56 48 42 38 35 35
23 27 22 19 31 47 47 49 52 76 82 83 96 97 97 96 98 99 97 98 100 99 100 100 91 83 70 60 50 24 29 39 40 44 54 54 44 43 47 59 60 54 51 46 40 36 35 35 36
23 21 20 20 40 48 47 53 56 62 71 78 87 89 88 90 94 94 95 99 100 98 86 86 74 67 64 86 60 38 42 43 49 62 67 63 61 62 58 59 52 46 41 40 39 38 37 38 39
22 18 17 18 50 46 45 53 60 97 86 78 81 85 86 88 91 93 94 98 93 91 81 79 77 84 90 72 53 38 46 49 53 61 66 66 68 67 54 50 47 44 43 42 40 38 39 41 43
20 20 25 36 44 43 47 52 64 93 91 85 84 86 88 76 83 91 93 93 100 100 85 74 73 88 91 69 51 43 51 60 67 72 69 71 65 61 55 50 47 45 42 41 41 43 44 45 46
26 22 29 40 42 44 40 48 78 87 88 87 92 91 86 76 82 88 90 91 95 96 92 77 69 91 88 69 53 52 62 74 74 72 73 71 64 57 52 50 47 44 43 42 44 47 49 49 48
22 20 35 31 36 38 41 57 78 86 90 83 85 87 80 82 82 81 78 74 79 83 80 75 83 87 83 69 51 65 76 78 75 78 76 68 59 56 54 51 43 40 42 46 48 49 48 47 48
27 23 30 34 34 38 35 58 66 79 88 92 91 91 82 86 82 82 76 69 68 69 70 74 77 81 75 67 59 69 81 80 79 78 76 69 66 60 52 43 40 45 47 48 49 49 45 43 46
30 26 29 32 28 36 39 57 66 75 76 86 93 95 89 87 83 77 78 75 76 76 70 69 76 74 73 73 76 74 83 84 80 79 78 79 68 55 46 43 46 50 49 49 46 42 44 46 48
28 25 24 24 22 33 42 60 66 76 72 78 84 92 94 90 77 76 76 73 81 84 79 75 77 75 79 80 86 90 86 86 83 82 76 67 57 50 47 48 50 50 46 43 44 44 46 47 49
28 26 28 26 20 23 43 55 61 68 68 67 72 83 85 86 83 80 79 80 83 80 77 73 75 76 79 76 77 82 76 70 64 62 56 55 54 51 50 49 46 42 35 32 33 36 46 55 55
27 26 27 29 24 32 42 52 60 52 52 60 64 66 71 78 84 80 83 83 82 81 78 73 71 73 76 73 72 68 66 59 57 54 51 56 54 50 48 41 30 26 23 22 24 31 42 52 54
25 26 26 30 27 36 29 38 44 57 60 55 58 66 65 66 71 74 80 80 82 82 79 77 71 73 73 68 65 60 56 58 53 50 49 50 51 46 37 30 24 22 21 25 33 43 46 57 59
25 27 30 29 35 36 35 39 36 51 57 54 51 53 60 59 64 70 76 74 77 76 79 77 74 75 73 69 64 59 51 51 51 53 52 50 42 35 30 26 25 20 19 22 39 51 56 55 53
24 24 35 44 45 53 36 40 43 52 45 44 46 48 48 59 64 63 68 71 77 74 74 79 78 76 77 71 67 58 52 52 53 56 52 41 37 32 30 28 22 18 33 44 52 54 51 52 48
32 36 47 45 61 57 46 47 41 29 36 41 45 45 44 46 65 67 78 76 77 74 73 77 80 82 81 75 73 66 55 52 50 55 52 38 35 33 31 28 25 37 44 46 56 54 57 56 51
34 38 57 45 63 43 49 48 32 29 30 32 35 37 42 50 57 60 64 72 74 78 79 82 85 85 81 82 80 72 62 55 56 55 52 43 34 31 30 24 24 44 37 26 46 60 61 61 60
32 36 35 68 77 71 52 43 27 25 33 42 42 42 45 65 66 63 60 69 75 79 80 78 84 84 81 83 86 78 72 64 60 60 54 39 32 30 29 28 41 28 27 33 42 51 64 69 64
29 37 42 57 50 55 50 44 36 27 31 42 47 48 51 63 74 73 74 73 75 77 79 83 82 78 72 82 86 79 79 76 68 64 52 34 31 34 31 35 28 32 40 39 43 47 54 57 49
36 37 45 47 61 58 66 47 37 29 29 28 33 46 49 60 82 84 81 75 74 76 76 75 80 83 81 80 82 84 81 78 76 66 42 31 32 30 30 28 32 39 40 43 48 50 50 50 48
30 35 42 63 44 78 78 54 28 30 29 27 29 33 45 52 77 86 87 83 81 79 86 81 81 79 78 76 79 80 77 76 65 47 36 33 33 30 33 32 37 39 42 42 48 51 53 50 49

GFSSGP_925_rhum_027.txt.gz
RH
21 19 20 22 21 23 20 17 20 17 34 71 67 55 64 72 66 60 100 98 100 100 94 90 66 59 54 49 43 36 34 30 20 24 62 60 64 71 71 72 66 63 65 62 49 45 45 49 46
19 19 26 23 18 17 12 18 23 51 54 57 62 73 71 88 80 90 97 97 100 99 93 90 90 89 76 62 72 70 66 26 25 45 43 60 67 76 72 66 56 48 46 49 50 47 50 52 40
24 32 25 24 23 17 16 18 36 53 54 51 58 73 80 88 83 94 99 100 100 100 96 93 87 86 64 61 57 54 37 45 31 46 41 58 67 70 68 62 49 45 42 46 44 41 45 43 37
29 27 16 20 20 19 17 14 43 44 47 48 63 85 80 98 93 99 99 96 99 100 98 90 80 66 67 60 58 46 30 37 48 36 43 58 57 64 66 61 53 48 39 32 32 36 41 39 41
22 20 23 19 16 13 14 51 62 55 53 66 62 84 84 99 100 100 100 98 92 100 92 82 73 72 68 71 54 34 31 37 46 40 49 46 49 54 53 52 52 45 38 35 33 33 37 40 42
24 19 20 18 15 14 28 54 59 59 61 65 70 73 95 100 98 100 100 100 99 99 97 99 88 85 85 77 51 35 42 42 47 42 42 34 40 42 45 48 46 46 42 39 37 37 38 40 38
26 23 20 21 22 36 49 54 60 58 55 69 68 80 94 97 100 100 100 100 100 100 99 98 98 95 84 56 52 50 63 55 44 43 38 32 36 36 36 40 51 50 48 47 41 40 40 37 36
26 23 24 22 22 25 48 50 57 54 64 64 68 79 93 98 100 100 100 99 100 100 100 100 92 78 69 62 72 69 60 52 40 42 39 36 38 41 39 40 47 50 49 50 50 43 39 38 37
21 24 22 20 24 33 49 51 63 71 72 74 80 81 92 100 100 99 100 100 100 100 99 98 90 61 76 75 67 64 59 51 59 45 35 36 50 46 42 44 47 50 52 48 46 41 39 37 36
23 27 22 18 17 32 46 50 59 69 82 83 93 97 100 100 99 98 97 100 100 100 100 93 84 77 63 60 56 50 58 34 38 37 37 42 45 43 46 49 53 55 55 48 43 39 36 35 34
23 23 21 18 17 38 51 49 54 67 74 76 94 91 95 94 98 98 100 98 100 100 100 95 88 79 69 57 50 48 31 42 45 40 40 42 44 44 47 55 56 56 50 44 39 37 36 36 36
23 20 19 18 28 44 44 48 56 62 60 68 79 82 90 92 92 91 94 98 99 96 98 90 75 68 69 65 60 50 54 55 45 45 47 46 44 51 63 59 52 48 43 39 38 38 38 39 39
22 18 17 18 37 50 46 53 67 89 82 85 81 84 84 90 92 85 84 93 99 99 100 98 85 76 72 67 69 53 54 40 43 60 64 64 61 59 60 50 44 43 41 41 41 39 39 40 42
21 18 22 35 44 43 52 64 60 85 75 80 80 76 78 84 91 87 88 87 93 94 100 96 100 96 76 82 66 43 42 45 58 65 70 71 69 61 52 48 46 46 43 41 40 40 43 44 45
25 24 30 40 42 43 38 50 76 81 79 83 79 78 80 75 88 86 85 82 82 81 87 95 96 84 91 85 56 40 48 54 62 71 75 70 65 59 54 50 48 44 42 40 42 45 48 48 47
21 22 32 32 37 41 34 54 83 83 81 83 82 82 79 70 76 86 89 88 86 85 89 92 88 87 95 87 53 45 56 65 72 76 76 72 66 61 53 49 47 45 42 44 47 49 49 48 48
26 22 31 34 34 38 34 55 68 79 78 74 75 73 68 69 73 82 86 85 88 89 92 88 80 74 89 81 54 53 62 76 80 79 76 72 62 55 52 51 45 43 47 47 47 48 47 54 54
29 26 28 33 29 36 37 53 72 84 82 83 73 69 71 68 65 72 78 77 79 84 86 86 78 82 87 78 60 63 75 85 85 83 80 71 62 58 53 46 44 47 48 49 48 38 39 49 54
28 26 25 23 22 34 39 47 67 78 79 81 81 81 71 62 57 70 74 77 76 80 84 84 83 79 87 82 73 79 82 90 89 87 80 74 69 58 49 46 48 50 50 42 37 37 44 58 52
29 27 26 25 22 28 33 42 55 72 72 67 70 76 73 63 64 71 74 78 82 79 85 88 85 79 83 78 72 82 81 90 94 88 83 80 68 55 50 49 50 48 39 32 32 40 59 60 53
29 29 30 28 26 32 36 34 55 54 64 60 60 61 64 67 70 70 75 77 78 82 87 86 84 76 76 74 76 83 89 87 81 75 70 68 60 54 51 50 46 35 25 21 23 30 47 53 55
29 25 28 29 27 28 27 26 35 54 54 53 52 54 57 61 64 62 70 74 78 81 87 86 87 77 80 77 81 80 83 77 70 66 62 61 57 53 51 44 31 23 20 20 28 36 40 52 56
26 30 29 30 31 36 36 30 24 46 54 49 48 48 49 53 57 61 64 66 72 77 85 86 87 81 81 80 80 78 77 74 62 60 55 58 56 52 45 35 27 20 16 27 41 48 45 43 44
29 30 33 39 40 41 36 32 28 33 39 37 39 44 45 48 54 54 60 66 69 79 84 85 89 86 87 77 76 74 70 66 61 57 55 53 50 43 36 30 24 20 24 50 62 48 42 44 50
29 34 39 39 47 44 43 41 30 24 26 32 37 40 41 42 46 52 57 64 68 79 85 88 90 86 90 79 78 75 68 63 56 52 52 52 49 44 36 32 28 19 48 64 44 38 46 47 51
33 32 46 44 51 36 46 44 22 24 27 28 29 31 36 42 43 47 49 57 65 76 78 84 86 85 92 86 80 76 71 67 62 59 58 55 52 49 42 35 25 32 48 40 46 49 55 47 57
34 36 34 56 70 58 40 34 25 21 24 34 36 37 38 36 42 47 47 53 63 72 76 79 83 84 91 88 82 80 77 76 76 70 64 59 58 52 42 34 29 37 67 41 51 66 48 57 64
30 33 42 49 51 51 41 42 29 24 22 26 32 35 36 44 45 52 52 53 63 70 73 83 82 81 85 90 90 85 86 85 88 78 67 65 62 49 40 34 32 64 46 47 45 39 42 57 65
37 38 43 41 47 45 45 34 30 27 25 27 26 31 40 40 49 50 53 58 62 70 76 82 82 81 84 95 85 88 90 94 92 84 79 72 65 52 43 33 53 37 40 42 36 34 44 49 58
32 36 40 53 44 56 56 41 25 28 28 29 25 27 34 40 41 55 60 67 72 74 77 81 86 88 92 85 85 93 96 98 94 90 84 78 78 59 38 37 34 35 38 38 38 55 52 51 59

GFSSGP_925_rhum_030.txt.gz
RH
34 28 20 16 15 11 12 10 10 14 17 46 47 31 21 42 38 47 77 86 75 69 69 84 96 98 88 80 70 58 48 35 36 44 47 49 55 52 60 59 65 75 82 82 82 87 76 41 39
24 18 17 12 12 12 10 10 15 26 31 40 47 52 49 72 62 82 96 94 78 74 71 71 77 75 72 64 56 51 48 50 70 55 53 56 53 50 55 54 64 80 82 83 85 82 41 40 39
24 22 14 13 10 11 10 14 12 32 39 37 44 56 84 76 68 71 84 95 85 79 76 77 70 62 56 51 47 53 65 79 76 72 60 62 52 49 50 56 61 67 70 87 79 44 38 42 37
18 17 12 12 11 10 10 8 14 25 30 33 39 60 78 84 84 80 93 98 92 84 82 85 71 61 55 52 66 73 71 74 72 69 68 57 50 56 52 55 53 56 64 54 46 39 42 40 35
15 13 13 12 12 9 8 16 39 38 29 40 42 61 66 99 99 83 96 100 94 91 92 84 78 73 69 77 73 78 69 54 72 75 67 52 54 58 60 52 42 34 34 38 40 40 42 39 34
14 13 13 11 10 13 16 28 42 42 43 47 46 54 77 100 100 100 100 100 98 96 99 95 84 83 87 89 79 67 62 61 67 57 61 58 64 57 48 43 38 35 34 37 39 42 41 36 33
16 13 12 18 21 25 36 40 41 44 41 50 45 54 89 97 100 100 100 100 100 100 99 98 94 88 87 70 59 63 70 61 58 51 58 58 52 51 46 44 41 38 38 39 40 40 38 35 34
14 14 15 18 18 23 30 38 42 42 43 47 46 60 93 98 100 100 100 100 100 100 100 94 88 79 50 66 61 65 60 70 54 48 51 46 43 44 50 49 48 48 42 42 41 39 37 36 36
14 14 17 16 15 17 24 36 42 49 49 51 59 56 89 100 100 99 100 100 100 100 100 100 93 92 66 64 58 74 76 62 56 45 41 46 54 50 54 60 52 51 51 46 41 40 38 36 35
15 14 14 12 12 14 21 34 41 46 51 62 82 97 100 99 94 94 98 99 100 100 100 93 87 84 80 79 72 91 86 78 68 50 62 64 63 54 56 67 52 51 48 43 40 38 36 41 39
15 15 14 13 14 13 32 37 40 41 43 48 84 96 95 94 89 89 98 100 99 100 100 100 100 97 89 77 78 88 75 56 53 48 59 70 66 64 64 69 65 58 50 46 43 43 44 47 42
17 14 14 14 15 22 35 40 51 46 58 56 73 88 90 84 87 90 94 100 100 100 100 97 79 55 49 46 50 59 56 60 65 45 68 70 61 64 63 60 59 55 52 54 53 52 55 51 49
18 15 14 15 18 36 34 38 46 66 70 65 75 78 85 85 79 77 83 92 98 96 96 71 58 51 57 63 52 56 67 61 55 59 60 57 57 65 62 61 54 51 52 52 52 52 48 50 49
17 17 18 19 26 36 40 43 42 70 67 73 75 73 90 86 73 68 71 85 89 89 95 87 76 65 62 57 62 57 57 53 58 63 72 74 62 68 63 59 54 53 50 51 48 46 45 44 44
18 21 20 22 32 33 34 36 50 64 56 63 69 59 54 65 65 64 61 76 81 87 86 76 77 76 66 71 77 58 61 60 62 73 89 81 74 68 62 54 55 55 55 55 54 51 50 45 42
18 17 21 25 28 32 32 37 56 65 58 52 50 52 53 58 64 63 59 68 69 71 80 80 78 79 78 81 72 57 61 62 67 78 85 82 71 68 64 59 58 56 55 50 50 48 46 43 38
17 19 21 23 24 29 30 33 44 66 56 43 45 50 47 50 54 55 62 55 65 64 67 70 74 76 87 90 77 63 64 69 75 83 82 82 70 67 62 58 61 62 54 54 50 50 43 40 36
18 18 17 23 24 26 27 31 39 57 54 50 41 42 42 42 46 59 60 62 60 62 67 68 76 79 85 78 67 54 66 74 85 84 76 78 67 66 64 63 68 58 52 53 50 45 40 37 35
20 18 17 16 20 25 24 23 36 48 55 57 48 42 40 40 40 49 54 59 61 62 63 65 68 73 78 71 62 58 68 75 84 84 81 78 68 68 66 63 65 55 50 49 51 43 44 40 42
22 19 19 17 18 21 19 21 29 42 49 47 46 49 43 38 38 44 49 52 56 60 65 65 66 70 72 64 55 56 62 68 82 89 86 81 74 68 68 63 59 54 54 54 48 42 38 38 46
22 19 21 20 20 19 20 20 29 34 42 44 44 40 40 35 37 40 47 50 54 54 59 59 62 65 69 62 57 69 74 82 88 89 89 85 78 69 66 65 57 58 51 46 45 43 39 41 49
23 18 20 22 22 21 21 20 22 25 38 45 43 44 40 36 33 35 45 50 52 54 55 58 57 60 66 68 60 68 63 66 76 90 84 75 78 71 63 63 60 57 42 38 39 41 47 50 53
19 20 21 21 21 24 24 19 19 28 30 28 32 36 37 34 32 35 35 42 51 53 56 62 62 63 65 71 67 67 66 62 67 80 68 72 75 70 60 59 57 50 42 41 40 50 62 63 50
21 23 24 24 24 30 23 21 16 17 17 16 20 25 30 31 32 31 34 39 42 51 56 60 65 63 64 69 76 68 65 66 75 69 70 72 74 66 61 56 55 50 43 49 60 52 66 59 56
21 22 28 30 33 32 29 30 18 14 14 17 18 17 23 27 30 33 34 36 41 46 55 60 64 60 64 68 74 76 75 74 78 75 74 70 66 63 61 58 56 50 44 56 52 57 69 63 55
23 19 28 39 36 25 32 28 18 14 17 17 19 20 20 24 28 30 32 34 38 46 53 61 62 62 62 69 75 76 80 83 83 81 73 68 67 64 64 60 64 56 43 48 59 75 71 63 54
26 26 19 32 46 33 23 21 16 14 13 20 21 22 22 22 21 25 27 33 39 45 53 61 61 64 63 68 76 78 83 84 86 87 74 71 71 69 62 62 68 62 52 50 74 72 65 62 63
24 21 30 30 41 38 25 24 18 15 14 15 14 17 18 24 27 26 28 30 35 42 49 59 62 64 63 69 77 79 83 84 94 93 84 79 73 75 75 74 59 63 49 61 79 65 64 60 65
29 27 27 26 30 31 31 23 15 15 14 15 15 18 20 22 25 32 33 34 36 42 49 57 65 67 65 64 74 80 86 94 98 98 98 92 83 76 74 64 65 80 52 79 68 64 52 66 65
20 20 25 33 32 36 42 27 14 15 15 18 17 17 20 25 26 34 36 41 43 47 50 53 57 58 59 64 71 78 98 100 99 98 98 94 86 83 72 68 84 51 65 60 62 52 60 67 76

GFSSGP_925_rhum_033.txt.gz
RH
28 30 17 11 14 11 11 9 6 9 9 18 23 23 13 36 54 55 71 69 56 63 74 96 93 94 95 92 78 70 55 32 25 43 48 48 48 55 60 66 77 82 86 88 81 76 66 39 36
22 14 12 10 12 11 9 6 8 8 16 26 31 39 28 59 57 66 74 78 65 65 75 96 94 95 95 89 76 60 43 35 42 52 52 53 57 59 65 78 86 84 86 87 79 76 48 37 36
21 14 12 12 11 9 12 9 10 11 23 26 27 41 62 69 49 60 76 81 73 66 66 97 97 97 97 84 68 58 49 45 56 59 56 61 61 63 77 84 85 85 88 87 79 57 38 36 33
15 12 10 9 10 7 8 7 9 15 16 22 24 50 59 76 65 65 80 74 79 76 76 88 100 98 86 75 67 60 57 55 65 66 68 71 63 59 67 74 79 84 89 80 56 42 34 31 29
11 10 11 11 9 8 7 7 13 20 18 22 25 43 72 82 84 67 63 85 93 78 92 84 88 82 75 64 63 63 56 67 79 72 70 65 57 52 51 59 61 62 62 43 42 39 32 31 30
12 8 11 10 8 8 9 14 19 25 25 28 28 49 77 99 98 94 98 97 93 90 97 89 83 80 75 72 66 64 67 78 82 72 75 65 59 55 42 37 36 40 41 40 40 37 32 32 32
13 11 11 11 14 34 26 24 26 30 30 29 31 50 86 90 100 100 100 100 100 100 98 97 87 84 90 81 74 72 78 78 82 86 69 58 53 44 39 34 35 38 38 41 39 36 33 34 33
11 11 12 13 15 35 20 23 27 29 29 32 35 45 72 96 99 100 100 100 100 100 97 95 93 95 85 84 86 83 73 82 81 80 62 56 48 40 40 38 38 39 40 40 39 36 36 36 34
9 12 17 13 12 14 14 23 27 31 34 35 58 70 90 100 99 100 100 100 100 100 100 95 91 87 78 65 69 74 80 72 71 65 55 56 49 52 58 56 42 41 42 41 39 38 37 35 34
11 11 13 11 12 13 17 23 28 30 37 49 88 88 99 99 92 91 98 100 100 100 100 95 82 90 73 71 69 66 53 47 72 61 59 55 50 62 66 50 50 49 45 42 40 37 40 42 37
11 14 12 11 13 14 22 25 31 33 72 66 76 92 90 88 89 96 98 100 100 100 100 100 95 82 74 55 55 61 65 69 67 70 64 66 58 56 62 55 54 51 44 44 41 45 42 46 38
13 11 11 12 12 18 25 25 28 39 53 58 78 82 83 80 80 94 99 100 100 100 100 100 95 77 63 69 74 76 81 75 68 67 69 56 62 62 64 60 60 56 51 48 50 52 56 49 46
13 12 11 12 13 23 25 29 31 53 56 63 79 77 72 70 71 86 99 100 100 100 99 100 96 94 92 94 81 66 52 50 55 42 62 50 56 58 54 54 54 51 54 53 51 54 46 47 45
14 13 13 12 16 22 29 31 34 50 48 60 60 72 87 71 60 71 87 96 97 100 92 90 82 79 73 59 53 52 55 43 47 52 53 56 54 60 57 61 54 51 50 50 47 43 43 38 39
14 15 14 14 17 20 30 52 39 48 47 56 64 56 58 80 61 49 71 86 92 87 87 76 62 49 46 47 43 40 43 46 50 47 56 62 54 64 60 56 53 52 50 50 48 46 43 39 35
14 13 22 23 18 20 39 71 44 42 38 41 43 43 44 47 45 47 54 65 74 86 69 56 48 60 62 54 60 59 51 49 46 52 74 71 68 69 65 55 55 54 54 51 44 43 42 38 33
13 16 31 28 15 20 38 75 37 37 34 36 33 35 35 42 42 49 58 63 70 72 66 70 72 61 62 60 63 53 50 60 53 57 75 78 68 66 64 57 58 59 53 48 46 44 40 38 33
16 14 15 24 20 18 23 22 34 36 35 35 31 31 31 34 36 43 46 53 57 65 67 67 71 71 70 76 71 54 48 53 51 69 71 73 65 66 68 57 61 62 53 50 46 44 38 35 34
16 15 15 18 22 17 20 28 24 33 34 38 31 36 30 29 31 45 46 46 51 56 58 57 59 60 66 73 59 46 45 51 61 76 74 68 63 68 68 59 67 63 52 47 51 45 43 36 38
15 15 14 15 14 15 15 18 28 28 32 32 31 34 32 28 28 36 46 45 47 51 54 54 54 57 58 54 48 42 42 45 54 74 70 68 71 65 67 62 65 62 50 51 53 42 38 35 42
15 16 18 16 16 13 14 16 16 18 25 29 28 26 26 28 28 32 37 43 47 48 48 50 52 53 55 50 47 42 41 47 51 65 74 76 75 70 66 66 62 59 50 55 53 47 39 36 45
17 13 17 16 17 21 15 26 18 16 22 28 29 27 25 25 25 27 32 37 42 44 49 50 48 48 50 50 44 41 46 46 52 60 67 74 82 77 64 64 66 60 55 49 52 45 40 45 43
16 17 16 17 18 18 16 17 21 12 19 21 24 27 26 24 23 25 29 33 36 40 44 49 47 47 48 53 51 45 50 51 51 58 72 82 72 76 69 64 67 63 59 47 45 40 48 53 62
14 18 18 18 20 29 20 17 25 14 13 14 16 20 24 23 23 21 23 29 34 37 42 46 46 44 46 50 56 54 53 55 48 58 68 69 70 74 72 63 65 66 56 46 47 50 61 67 65
17 20 28 32 32 32 18 19 16 19 11 12 12 14 18 22 22 20 21 24 28 35 42 45 47 46 46 49 54 60 59 57 57 57 69 65 70 75 74 73 69 70 60 53 58 56 53 66 72
19 18 27 58 58 33 22 23 15 11 11 11 10 10 11 16 20 21 20 21 24 29 38 46 46 47 46 52 54 58 66 65 66 69 72 75 76 72 83 80 81 74 61 63 71 51 62 73 83
19 23 15 22 26 33 25 16 12 12 10 11 12 14 14 14 17 20 20 22 24 26 33 43 46 46 48 48 56 62 69 74 72 80 80 86 77 79 85 83 78 64 66 76 60 74 72 84 70
19 17 26 25 51 45 22 19 18 14 11 11 10 13 13 16 19 18 18 21 23 26 30 40 46 46 46 51 59 67 69 73 77 82 94 90 87 87 78 76 83 72 78 58 78 80 84 70 60
22 24 23 21 24 39 34 23 14 13 12 12 12 11 12 15 19 24 22 22 23 27 32 38 46 50 48 53 58 67 72 74 80 91 96 96 93 84 73 79 81 77 72 73 75 76 71 62 62
16 20 21 34 34 33 35 28 12 12 12 13 12 12 13 16 17 23 27 28 28 30 33 37 45 50 50 55 58 67 77 82 89 97 99 98 94 90 84 75 82 85 80 77 85 81 65 56 70

GFSSGP_925_rhum_036.txt.gz
RH
17 29 28 20 17 15 14 10 8 6 8 37 40 39 48 59 36 57 79 65 62 84 92 82 83 82 90 78 68 58 48 32 22 24 31 42 58 66 72 78 81 89 80 79 78 75 54 31 36
28 21 12 12 18 17 11 11 8 7 18 31 28 36 46 72 58 68 76 75 75 78 94 98 85 87 91 78 68 57 44 33 30 36 45 60 67 67 70 80 80 82 79 79 76 67 31 29 43
20 16 13 15 16 15 11 10 11 9 8 17 21 35 53 74 66 61 86 73 68 77 88 98 96 93 90 76 68 61 50 41 40 53 62 67 72 75 78 79 83 82 80 80 70 32 27 31 45
20 13 12 14 10 8 8 8 7 9 11 12 24 67 57 66 60 64 73 78 89 88 90 99 99 94 86 77 67 57 54 51 53 64 68 70 80 81 78 82 83 82 80 76 34 29 27 28 36
12 11 15 13 11 7 6 6 7 13 15 29 19 80 71 72 77 91 83 87 51 75 98 100 100 94 88 76 62 53 51 51 69 78 71 70 82 83 84 85 82 64 52 40 32 31 30 33 35
16 12 12 12 10 23 29 37 12 15 18 18 57 60 69 99 98 100 99 85 81 63 99 100 99 96 83 67 60 60 66 77 79 70 72 68 70 68 69 70 60 44 38 36 32 32 33 34 36
14 13 13 11 16 33 43 52 42 24 20 78 82 82 76 96 100 100 98 93 67 71 100 100 100 93 80 77 72 67 72 75 81 77 68 59 52 52 52 47 43 37 38 37 33 34 34 34 35
10 12 13 14 13 18 39 43 34 30 50 78 67 82 80 96 99 100 100 100 100 91 95 92 89 84 89 84 81 85 84 81 76 68 65 57 43 37 37 42 40 40 40 38 35 35 36 35 35
9 14 15 16 13 14 11 17 54 50 61 54 72 88 96 99 99 98 100 100 99 100 100 95 92 90 78 78 86 86 85 81 72 66 62 48 46 42 47 40 41 42 41 39 38 37 36 36 33
11 13 16 10 12 14 12 18 26 49 52 67 58 84 95 92 94 98 99 100 100 100 100 94 92 88 77 74 65 54 81 78 67 55 52 58 59 63 52 42 42 43 42 40 39 39 40 40 39
10 13 12 10 12 12 16 21 25 47 69 66 74 85 91 92 94 92 98 100 100 100 100 99 89 88 68 64 71 79 74 66 54 60 57 57 66 58 49 50 48 46 44 41 40 42 51 45 41
11 10 10 10 11 14 21 23 26 50 48 60 75 77 74 82 95 96 98 100 100 99 100 99 90 84 82 80 69 54 59 58 61 68 62 62 62 53 50 52 54 48 45 43 45 54 51 43 45
11 10 11 10 11 15 18 25 35 55 72 68 69 65 68 82 92 98 100 100 100 100 100 96 90 81 67 61 52 46 55 63 63 67 66 60 57 62 55 60 60 52 53 50 52 52 49 47 44
13 13 12 10 11 16 24 34 40 50 56 66 64 71 73 72 84 95 97 100 100 99 100 100 90 85 75 73 68 67 76 72 66 50 50 47 60 58 58 61 58 55 54 53 52 48 46 43 42
11 14 12 12 12 18 25 31 46 46 48 56 58 61 60 64 68 76 91 98 98 99 97 89 81 80 92 93 91 87 80 54 49 48 48 58 52 56 60 59 56 54 52 51 47 43 41 40 37
14 13 16 16 16 28 35 65 38 42 48 52 46 51 48 54 56 72 81 91 95 91 92 93 98 89 75 76 68 66 60 46 41 44 52 51 57 60 62 61 55 53 52 51 49 45 43 39 35
14 16 17 21 17 30 40 66 43 43 35 42 42 41 48 56 42 58 71 78 76 77 76 77 78 63 62 60 54 46 42 51 54 48 61 65 66 65 66 61 56 55 55 53 46 46 42 39 34
17 20 17 23 18 18 46 64 69 66 30 32 31 35 37 45 47 52 60 66 72 65 58 56 58 55 56 50 44 47 52 52 51 48 61 62 67 69 67 63 58 57 56 52 47 45 42 38 36
12 17 21 17 18 19 22 55 73 70 30 31 29 30 30 33 47 52 55 67 68 64 62 60 60 63 62 64 66 68 51 53 54 55 66 70 67 69 67 66 60 60 58 52 50 47 40 38 36
12 14 16 15 17 16 13 34 61 70 35 27 29 35 30 30 41 47 52 56 69 68 68 74 75 70 66 72 75 65 53 49 52 59 68 66 78 66 67 68 63 65 61 52 50 51 44 40 37
13 15 14 16 19 15 14 14 42 39 26 27 26 32 30 28 39 44 48 52 56 66 66 65 69 73 72 73 62 62 47 46 48 62 60 66 72 67 67 67 66 66 62 54 53 51 43 42 42
16 11 15 19 18 19 17 27 22 23 23 27 26 28 29 29 28 38 43 48 52 56 59 56 54 56 58 57 54 51 45 44 48 65 70 66 68 74 70 67 67 64 62 58 56 53 46 40 46
15 15 17 17 17 20 20 23 15 16 18 23 27 27 26 26 28 31 37 42 47 50 55 54 51 53 54 56 56 50 44 42 43 51 60 68 76 78 80 70 65 66 63 59 56 53 49 43 52
12 17 19 19 19 32 26 20 18 17 16 17 20 25 25 25 26 27 30 34 41 46 50 53 50 50 49 51 51 52 49 46 50 53 58 68 68 71 80 74 67 68 65 65 66 74 55 60 60
14 19 30 32 32 40 22 21 20 18 22 28 24 27 43 25 26 27 28 31 34 40 47 51 53 51 49 49 53 52 53 50 52 53 60 74 78 77 79 75 66 67 71 79 84 76 62 64 67
18 19 34 45 55 43 46 32 16 15 15 12 12 27 30 25 26 26 24 29 32 36 43 47 49 50 47 48 51 57 54 56 62 58 60 68 76 74 72 73 70 69 83 88 83 59 63 58 67
19 24 17 26 41 62 75 32 13 13 13 10 10 12 14 14 24 24 23 22 29 35 40 46 46 47 46 46 49 51 60 62 64 62 68 77 77 73 71 72 74 96 93 85 64 62 67 66 85
17 14 33 28 44 55 32 27 21 20 13 11 11 13 14 16 16 20 23 23 24 28 38 45 47 45 46 46 50 55 59 63 64 68 73 88 86 78 76 75 94 92 86 78 63 69 70 84 81
18 22 26 30 28 53 47 32 22 23 13 13 13 13 13 16 22 22 22 20 21 24 27 42 47 46 45 46 50 58 60 63 65 80 86 94 91 89 87 87 85 82 81 75 74 74 74 86 81
16 20 21 37 36 36 56 35 17 21 16 15 13 12 14 15 19 23 26 24 24 24 26 39 44 45 46 47 59 60 62 72 77 84 88 89 93 92 87 78 79 82 85 88 81 69 85 87 82

GFSSGP_925_rhum_042.txt.gz
RH
18 21 31 32 36 38 35 26 19 19 22 40 43 46 73 76 72 73 94 78 76 96 92 75 85 90 64 48 40 36 39 42 43 44 68 83 73 55 58 61 62 62 66 77 82 86 89 90 92
18 18 31 38 34 38 34 23 17 18 32 43 50 56 69 78 68 86 93 82 94 86 83 70 87 97 60 55 50 43 41 48 54 58 70 83 66 55 55 51 48 53 62 72 79 83 73 54 52
19 23 28 33 38 36 31 20 29 40 48 51 62 68 79 83 72 80 76 96 77 74 73 85 64 85 90 79 46 62 76 81 73 70 86 86 65 54 49 45 46 51 60 74 77 53 44 44 50
27 26 29 29 30 26 20 19 35 54 55 51 60 69 71 98 92 94 70 84 67 71 65 86 61 90 82 73 74 78 86 74 76 82 85 84 55 54 52 45 43 45 61 54 47 42 40 48 51
29 29 30 31 29 22 18 32 52 64 59 58 56 75 79 90 95 96 85 89 90 92 78 91 94 94 82 81 74 76 78 75 82 87 87 79 60 59 57 47 39 33 29 34 37 37 39 55 62
32 30 35 38 29 20 23 34 60 58 56 58 57 66 82 93 92 99 92 81 95 96 92 84 90 94 93 81 71 59 80 80 82 81 87 70 62 65 54 37 32 32 34 35 33 32 38 52 60
28 32 34 29 23 21 29 38 60 64 62 70 63 63 70 90 99 97 87 91 93 92 89 92 82 63 97 85 81 63 75 76 80 79 84 83 66 58 42 31 31 34 36 37 29 28 36 38 40
27 28 28 24 21 23 28 37 54 60 75 67 69 74 82 93 100 94 97 100 92 95 97 95 100 100 80 82 88 61 67 80 88 80 78 77 62 50 37 33 32 35 37 36 30 34 35 36 37
17 26 29 22 19 18 27 38 62 61 62 70 79 85 96 99 100 99 97 100 100 100 92 98 98 97 85 92 62 65 69 78 83 80 82 78 63 48 38 37 35 36 38 36 31 34 34 35 36
22 28 22 18 16 17 35 45 63 58 64 84 87 94 100 96 100 100 99 100 100 100 100 92 61 96 97 86 86 77 74 80 84 82 76 67 52 42 39 39 41 41 39 37 35 36 38 36 36
18 23 16 15 16 19 56 57 50 52 56 69 85 94 94 97 99 100 100 98 100 100 100 98 97 92 78 77 75 72 67 64 66 63 57 53 45 42 42 42 41 40 39 39 40 44 44 39 36
17 17 16 14 16 20 40 58 76 65 64 67 85 88 91 93 95 99 100 100 100 100 100 100 100 97 94 87 75 72 65 50 45 46 41 40 40 42 44 43 42 42 40 41 48 50 45 41 36
21 17 15 15 20 47 49 66 86 90 86 85 84 87 89 88 93 99 99 100 100 100 100 100 100 94 89 79 80 68 60 52 44 49 45 40 38 42 43 44 44 42 41 46 52 52 43 40 34
22 24 21 16 16 54 75 85 68 86 84 90 83 94 92 90 94 100 100 100 100 100 100 99 92 88 86 72 70 65 68 60 54 60 56 50 44 43 44 46 47 44 43 46 53 50 44 40 36
22 22 21 18 17 35 43 49 69 83 84 86 91 94 96 89 93 95 99 99 100 99 99 100 88 79 63 68 66 67 69 71 64 63 60 52 49 46 47 52 50 47 48 51 55 47 46 45 39
24 24 25 18 30 32 30 44 59 82 80 86 91 88 94 96 89 92 98 100 100 100 100 100 86 89 80 74 71 66 58 58 51 59 62 63 64 62 61 63 59 53 57 55 55 48 47 47 41
30 34 29 26 23 37 36 45 50 71 73 81 80 87 93 96 94 90 93 100 100 100 99 98 99 91 78 80 65 55 51 46 38 36 36 55 58 62 60 61 61 61 58 57 54 53 45 42 40
35 32 27 29 35 38 51 47 59 66 68 69 80 69 88 90 94 91 90 97 99 99 99 96 95 90 79 77 74 53 52 48 40 38 42 53 58 59 57 59 59 59 57 54 52 46 45 43 40
28 30 30 23 27 39 50 48 57 71 77 74 74 70 70 86 85 92 97 95 98 97 96 88 87 86 79 77 77 79 62 45 44 41 36 43 52 57 59 60 58 61 58 54 51 51 46 46 43
29 30 29 22 23 29 52 53 52 67 72 78 63 69 70 78 89 90 97 92 94 96 97 94 91 80 79 79 81 76 62 55 48 44 42 50 55 54 65 66 65 62 60 55 55 54 49 46 43
29 31 29 22 21 26 51 54 54 47 61 56 59 53 63 79 88 83 90 90 90 93 93 96 93 86 79 80 79 74 69 60 56 46 48 54 54 65 65 67 66 64 65 58 57 55 49 47 42
34 26 23 21 28 33 28 44 70 53 55 53 55 51 66 73 76 77 79 86 85 85 84 83 86 85 84 78 69 66 65 65 65 66 61 49 51 59 64 67 68 68 66 60 59 57 53 50 45
31 27 24 23 28 29 30 36 33 52 55 52 56 48 56 64 71 76 77 79 79 73 74 75 79 75 72 72 65 62 60 58 61 67 54 48 48 50 65 69 64 69 70 64 64 64 60 52 48
22 20 24 29 36 47 34 38 44 63 45 41 46 42 55 62 65 67 72 75 73 68 64 63 63 63 70 68 68 63 62 69 76 72 62 57 46 53 60 67 61 67 76 73 72 70 61 52 53
24 30 44 47 55 58 39 46 44 30 37 40 43 43 41 59 62 63 69 74 69 67 66 65 64 65 70 74 69 64 69 71 75 70 66 65 63 55 58 66 70 71 77 77 74 75 62 57 62
29 32 54 54 70 47 49 48 38 27 29 31 32 37 39 44 55 58 60 68 71 66 66 68 67 70 70 74 72 68 72 77 76 69 64 66 59 55 58 69 75 75 78 80 77 74 64 62 70
28 34 30 40 57 66 55 46 34 30 28 29 31 34 37 41 44 52 54 58 64 70 68 67 68 71 69 69 69 70 73 76 78 73 65 62 51 47 66 66 64 76 88 92 82 75 67 70 73
23 23 35 51 55 65 58 52 44 33 25 24 25 38 37 40 38 41 48 52 55 60 67 69 68 67 67 69 72 72 72 73 75 75 67 65 61 77 85 88 72 73 88 92 76 77 77 84 87
27 30 34 40 60 64 66 57 45 35 29 24 23 22 30 37 40 39 40 44 48 52 58 66 69 67 67 67 66 67 67 69 72 80 80 80 87 85 78 87 90 88 95 94 90 89 90 92 93
24 25 32 49 53 63 71 46 32 30 35 25 22 17 25 27 31 35 40 39 42 44 48 56 63 67 67 67 67 69 72 74 83 83 86 91 93 89 78 100 98 97 91 88 91 94 95 96 94

GFSSGP_925_rhum_045.txt.gz
RH
24 25 33 31 33 42 42 29 23 26 20 50 56 72 89 85 88 64 93 92 99 96 69 56 50 55 64 75 64 37 40 81 83 87 86 85 76 80 76 74 84 85 86 86 87 88 91 94 77
22 26 31 34 36 39 33 26 30 61 57 50 61 66 72 87 75 88 93 87 96 98 88 76 64 62 63 62 88 80 29 72 85 87 89 76 74 69 64 74 85 87 87 87 86 87 91 89 88
22 22 28 38 42 36 32 22 33 44 52 58 66 73 76 85 76 79 73 85 93 100 89 82 74 68 72 80 79 76 74 80 88 89 90 76 66 58 56 70 82 84 86 82 74 63 50 64 74
27 27 31 32 31 28 24 21 40 54 47 51 62 67 86 83 78 81 72 89 95 100 98 95 80 64 70 67 84 70 69 83 90 89 80 68 52 44 48 62 77 84 82 73 60 46 64 69 71
29 31 32 31 31 26 21 27 50 60 56 54 59 60 83 99 89 82 80 97 76 81 84 84 85 74 70 89 80 86 34 82 88 87 82 58 43 44 49 64 78 78 69 54 48 57 65 66 59
34 32 38 38 31 24 20 36 59 59 55 56 58 68 90 100 100 98 94 95 100 90 73 80 84 81 94 93 81 88 65 79 90 87 77 57 43 42 44 48 52 43 37 41 52 61 62 60 54
30 36 36 33 30 22 28 44 56 62 64 67 66 68 91 93 99 99 96 91 100 98 91 87 88 97 87 81 87 76 73 79 87 82 77 64 49 40 34 30 34 34 34 39 42 59 61 58 57
30 32 30 30 24 22 33 42 57 60 60 70 71 74 86 95 99 100 100 99 96 98 98 100 98 100 90 84 84 67 61 77 84 79 79 58 41 33 34 36 37 33 33 38 38 37 37 50 58
22 31 34 26 21 20 33 45 64 60 68 76 85 92 96 99 98 99 100 100 99 100 99 98 95 100 91 89 69 76 68 80 83 78 72 62 45 35 35 37 37 33 30 36 39 36 36 45 55
26 32 25 20 17 19 32 46 64 67 66 85 89 88 97 98 100 100 100 99 100 100 100 93 95 98 100 89 78 72 74 69 68 79 67 50 39 34 34 37 37 32 30 32 36 38 36 44 53
22 27 22 18 17 24 51 59 54 54 58 68 83 97 94 96 99 100 100 100 100 99 92 99 85 80 91 97 82 81 71 64 67 78 57 48 40 38 37 38 39 37 34 34 35 40 37 36 41
19 19 18 19 16 46 57 60 70 66 55 61 76 91 96 96 95 99 100 100 100 100 99 99 100 99 86 80 79 79 74 60 70 78 57 42 41 41 42 41 39 38 37 40 44 42 39 36 38
22 21 22 20 21 42 56 65 70 86 81 84 91 93 93 95 95 99 99 100 100 100 100 94 97 99 100 96 96 74 78 66 65 74 50 40 42 44 43 42 41 40 42 46 49 45 41 35 37
22 25 26 22 42 57 65 78 77 86 89 91 94 97 91 92 93 99 100 99 99 100 100 99 98 96 98 97 97 81 77 69 74 57 47 40 41 43 44 43 42 41 42 50 51 47 39 35 34
22 24 24 20 28 50 60 66 89 84 93 94 96 88 86 82 92 94 99 100 98 99 100 100 98 99 94 97 84 66 55 57 56 45 41 42 41 42 44 45 44 43 44 51 54 46 43 37 35
24 26 29 21 31 37 32 47 54 91 95 96 98 99 93 86 80 92 99 100 100 98 99 100 100 90 87 89 81 70 58 46 52 52 45 43 41 43 46 48 47 46 46 50 56 47 46 43 36
32 31 30 28 21 36 40 44 51 94 90 94 96 97 97 95 93 93 97 99 100 99 96 100 98 98 96 89 80 73 69 59 67 64 58 52 49 48 50 55 52 49 51 53 56 51 47 48 42
33 35 30 29 26 40 46 45 58 93 89 87 91 93 96 98 90 88 93 100 100 100 100 98 96 93 95 85 77 69 73 69 68 62 64 64 63 62 65 62 64 57 56 58 57 55 51 47 43
28 30 33 30 24 33 46 48 52 78 85 85 89 86 93 95 93 93 84 94 100 100 100 100 100 96 95 90 77 76 77 60 57 55 58 61 63 65 68 66 63 62 62 59 58 59 54 46 44
33 35 36 30 25 32 40 51 53 75 81 78 74 81 75 90 98 97 97 94 100 100 98 97 98 97 88 74 71 76 68 57 50 44 36 46 49 52 60 62 61 62 63 62 59 56 50 51 49
36 38 35 32 26 36 46 44 59 52 66 76 73 65 65 77 95 96 95 97 99 100 99 96 94 95 89 84 84 78 75 62 49 45 44 46 43 43 53 59 61 63 64 64 58 53 50 52 52
40 31 30 34 30 39 34 49 34 57 62 65 66 70 66 71 82 89 94 98 100 97 95 93 91 90 88 84 80 78 71 65 60 49 42 39 41 42 53 63 64 68 69 66 62 56 56 54 48
36 30 34 35 34 34 32 39 32 59 62 60 59 63 62 68 74 85 87 92 94 94 93 94 92 86 79 79 79 77 73 68 58 54 52 51 45 43 52 57 68 70 72 70 68 64 63 61 52
27 30 30 34 41 52 35 38 42 53 46 43 46 50 55 64 71 71 76 83 90 90 91 89 92 92 86 82 77 76 74 70 68 63 61 58 49 46 51 52 56 61 69 71 71 72 68 68 62
31 33 49 48 57 56 36 53 46 31 39 42 43 46 51 61 69 72 75 80 84 86 85 85 86 87 84 83 80 76 71 68 65 66 64 63 57 57 52 52 55 59 66 79 77 78 80 75 73
37 37 58 53 67 44 49 56 40 33 29 31 39 36 47 56 64 70 71 73 77 80 77 77 76 77 77 78 77 76 75 69 66 64 70 66 60 58 54 55 54 54 71 88 92 94 95 85 80
37 41 33 42 61 66 54 46 35 34 31 33 37 46 50 54 63 65 66 70 73 72 71 69 67 67 68 70 73 70 70 70 68 68 70 72 65 68 68 70 72 78 80 72 88 93 82 96 85
28 28 38 54 54 69 56 57 45 28 25 26 33 36 46 45 55 60 62 64 71 70 66 66 62 61 60 62 64 75 75 70 67 71 77 78 76 72 68 75 92 89 83 96 100 100 97 99 88
32 36 36 38 57 46 48 51 48 32 32 29 29 32 45 48 48 51 58 58 64 69 67 66 65 62 62 63 67 70 73 74 76 76 77 81 81 78 78 89 91 87 96 100 100 100 100 98 89
27 32 37 44 48 69 68 38 29 36 36 37 35 29 27 43 44 43 46 53 57 62 68 71 69 67 67 71 73 74 74 74 76 73 80 84 83 81 98 93 93 70 90 96 100 100 97 90 88

GFSSGP_925_rhum_048.txt.gz
RH
24 25 34 27 30 40 41 33 26 27 32 65 71 72 77 75 59 52 92 89 99 92 75 82 70 65 55 45 64 51 69 74 90 89 86 86 79 78 80 88 89 86 85 85 86 88 90 91 93
23 29 30 33 35 38 31 28 24 44 56 57 60 72 72 80 80 91 92 90 99 96 85 79 72 70 64 62 78 56 68 90 82 83 86 81 81 86 91 89 86 85 85 85 88 93 95 93 92
24 24 28 37 43 37 33 25 21 41 52 59 65 72 78 76 75 82 77 85 100 96 76 72 67 68 63 79 80 68 66 58 74 82 84 84 88 91 88 85 85 84 87 87 89 94 95 73 69
30 28 31 35 32 29 25 22 22 48 45 54 62 62 84 83 80 89 78 93 99 100 82 78 73 64 63 63 74 78 82 81 78 84 81 85 90 91 88 86 85 85 79 75 81 86 78 68 54
26 30 33 33 34 28 26 22 40 52 56 51 60 61 78 86 90 98 89 95 98 100 94 90 75 63 61 59 69 72 82 84 77 82 81 87 88 91 90 88 84 71 63 75 88 70 68 55 47
33 34 38 35 30 25 23 28 54 54 55 55 56 67 89 98 88 90 100 94 93 98 99 86 80 73 66 64 61 49 75 91 44 78 86 88 87 89 92 85 63 46 47 51 64 68 58 46 37
32 37 35 33 31 25 25 50 51 57 60 64 68 69 86 89 92 98 100 98 98 89 99 87 86 82 79 77 74 51 69 85 76 80 85 86 86 87 82 61 43 49 61 63 64 59 51 46 43
34 34 33 33 28 23 23 44 58 60 54 74 68 72 79 87 98 99 98 98 100 99 95 83 90 100 91 80 60 53 64 61 63 78 82 82 69 70 54 40 44 56 63 63 61 58 56 50 49
25 34 36 27 24 20 40 45 60 60 68 79 87 90 87 77 100 100 99 100 98 100 100 100 100 99 90 72 58 78 73 73 70 80 80 61 53 43 38 37 39 38 42 49 56 57 58 54 52
28 35 29 24 20 20 27 41 52 66 65 80 94 89 92 94 99 100 99 100 100 99 100 100 100 100 98 89 70 65 53 62 78 75 66 48 37 38 36 37 37 37 36 36 39 48 54 55 53
26 29 24 21 20 20 27 56 61 63 58 60 81 94 96 96 98 99 100 99 100 100 100 99 100 99 100 100 76 83 88 75 63 60 57 41 37 38 37 36 38 38 38 37 41 46 50 51 49
21 22 19 19 18 28 53 62 63 57 54 60 72 93 90 94 96 99 99 100 100 100 100 100 99 96 98 98 98 67 63 65 64 58 50 40 37 38 38 35 36 36 40 39 36 39 39 47 50
20 21 23 23 26 29 58 62 65 79 76 83 94 96 97 89 93 100 100 100 100 99 100 100 96 96 90 91 99 95 90 83 62 55 44 39 39 39 39 37 35 37 41 42 39 38 37 41 49
24 25 26 24 21 55 60 73 78 75 89 92 98 84 95 94 91 99 99 100 100 99 100 100 100 98 99 100 97 96 82 67 49 67 50 43 40 41 40 39 38 40 46 43 41 42 37 38 43
23 26 25 21 20 47 62 56 85 80 93 94 99 83 81 88 92 88 97 99 99 100 100 100 100 100 99 100 98 97 90 86 77 69 55 46 43 44 42 40 40 43 48 48 48 42 35 35 42
25 27 30 22 37 38 43 45 43 95 96 96 96 84 80 83 77 93 97 99 100 100 100 100 100 99 100 92 91 94 93 73 84 61 60 48 45 44 43 43 42 43 51 52 52 43 40 35 34
34 33 30 26 23 38 40 47 56 95 95 96 98 94 86 81 80 85 98 99 98 98 98 100 100 100 100 98 97 93 92 85 68 63 62 52 48 47 45 45 45 44 47 54 54 47 42 39 36
38 39 35 32 24 39 48 51 51 97 98 94 94 97 97 90 84 83 94 100 100 99 100 100 100 96 98 100 99 86 75 69 53 65 59 55 50 48 47 49 48 46 47 51 58 52 48 46 42
29 31 33 30 26 25 30 37 30 90 99 97 94 94 96 98 91 86 85 98 100 100 100 100 100 100 93 93 93 80 77 75 54 55 68 54 51 53 52 60 60 51 53 56 58 60 54 52 50
31 32 36 31 27 29 34 40 48 76 90 90 89 91 89 95 98 94 83 97 100 99 100 100 99 99 100 95 95 84 78 75 65 72 78 63 65 64 67 60 69 73 70 64 63 61 60 58 52
38 40 37 34 34 31 43 43 49 50 73 83 82 74 78 82 98 92 87 90 99 100 100 99 98 96 98 93 93 80 71 70 65 64 59 63 62 58 60 61 65 66 67 65 63 63 64 61 53
43 36 34 35 37 45 36 55 36 38 56 73 73 82 74 72 85 96 88 87 93 98 97 97 98 94 87 88 83 77 74 70 66 60 53 51 51 49 47 51 57 61 64 68 65 65 63 59 53
36 34 37 36 43 37 37 44 36 58 45 53 60 68 74 70 75 93 96 93 96 100 100 94 96 97 93 86 79 75 74 70 63 63 52 46 44 44 42 45 49 56 66 67 69 70 68 59 54
30 33 37 40 48 60 44 43 42 42 40 35 42 54 60 71 72 80 87 96 100 100 100 100 96 94 93 87 78 70 74 72 70 66 59 48 43 42 39 41 44 50 58 70 72 74 76 74 65
32 40 53 51 64 66 41 48 38 29 33 36 32 42 53 63 70 80 91 94 99 100 99 100 99 97 93 90 86 83 81 78 75 71 67 64 54 44 43 50 46 46 54 55 68 74 86 86 82
42 43 62 58 69 46 51 56 42 35 30 31 35 40 44 62 65 74 82 84 91 95 95 96 98 96 93 91 87 83 82 79 74 69 69 63 61 56 53 56 52 48 51 60 67 82 94 95 94
42 46 35 46 57 69 53 44 35 32 35 35 34 34 47 60 70 71 74 79 84 88 89 89 90 91 89 88 88 86 83 80 78 75 71 67 67 68 64 58 48 46 57 72 83 90 88 94 96
32 33 47 58 54 64 56 56 44 31 33 30 29 32 44 56 65 70 72 73 78 81 80 82 79 77 81 82 81 82 82 81 79 76 72 68 64 64 60 51 50 67 74 80 90 89 79 86 90
36 40 38 45 60 58 58 51 47 32 30 28 29 30 36 55 57 65 69 68 71 74 77 78 77 76 75 77 78 78 80 77 75 73 70 65 57 52 55 62 71 74 78 92 98 99 100 99 100
29 32 42 59 50 72 72 45 27 39 34 39 37 34 33 45 52 56 63 65 69 73 74 75 76 71 69 69 72 74 72 79 80 78 67 46 72 82 68 73 73 74 96 99 100 100 92 94 100

GFSSGP_925_rhum_051.txt.gz
RH
23 28 35 24 20 23 24 22 24 20 36 49 62 64 51 67 60 44 89 98 97 75 92 70 58 55 61 80 80 83 79 82 78 79 75 84 89 91 86 83 83 83 83 82 83 83 84 90 95
24 29 27 23 21 23 23 21 20 18 41 46 51 59 63 51 72 77 84 90 99 90 98 92 59 53 68 79 85 86 92 88 81 78 83 87 90 88 86 84 84 82 81 82 82 84 88 94 93
25 24 21 23 27 22 23 20 18 20 42 51 55 61 67 61 67 77 87 88 100 97 94 94 68 53 61 74 87 86 90 89 90 88 75 87 86 85 83 84 83 81 78 87 85 90 93 93 78
29 23 23 24 23 22 20 18 18 23 38 44 53 50 66 83 77 98 89 87 100 97 95 95 87 61 56 65 85 91 87 83 80 81 79 84 84 85 80 82 82 81 92 94 91 94 88 75 78
24 22 24 25 25 23 21 19 18 32 44 45 54 49 58 85 96 99 94 85 93 100 98 93 82 69 67 82 84 91 89 78 64 82 86 84 85 79 79 83 86 84 88 93 94 74 63 65 71
24 25 27 24 24 21 20 19 38 44 44 48 49 53 64 89 86 97 99 90 89 100 96 84 74 68 73 74 76 82 76 75 87 81 83 82 85 82 82 84 80 78 84 90 71 54 48 51 57
24 26 24 27 25 23 20 40 40 43 50 49 57 53 62 76 91 96 99 90 96 97 98 88 80 68 62 56 66 67 79 75 84 81 77 85 84 84 87 78 66 72 79 67 62 46 40 44 45
24 24 30 27 23 19 18 39 47 48 43 67 58 55 60 76 90 99 95 90 99 97 97 100 91 78 68 66 65 71 68 74 78 81 79 83 90 87 78 54 58 61 65 67 51 43 44 44 48
22 25 25 24 23 17 26 34 49 53 54 67 72 78 75 83 91 98 95 99 99 99 92 95 99 99 79 72 77 65 68 69 79 84 80 89 92 81 57 69 53 57 65 58 52 47 48 48 49
21 26 23 19 18 17 16 32 32 54 59 63 80 73 83 84 94 94 98 97 99 100 99 92 100 99 91 88 90 68 70 73 78 91 83 91 80 64 64 52 56 60 60 58 56 51 52 66 75
23 23 22 18 16 16 18 31 45 51 47 52 67 73 78 87 92 94 99 100 99 100 100 100 98 96 97 97 79 80 76 75 82 93 86 75 56 46 43 53 70 67 64 81 71 60 74 74 72
23 21 19 16 18 21 23 45 52 51 47 52 57 70 79 78 90 96 99 99 99 100 100 100 99 99 100 98 88 87 86 87 86 83 64 49 48 56 42 41 42 43 59 73 68 70 55 50 47
22 18 19 19 22 24 45 47 48 57 62 68 80 85 85 79 83 97 100 100 99 100 99 100 100 100 100 99 98 85 87 87 77 65 53 46 52 48 45 40 38 38 39 44 48 55 52 50 46
20 20 22 22 19 39 43 54 68 58 72 77 83 81 84 79 82 87 99 100 100 100 99 99 100 100 99 100 93 91 80 80 84 62 44 39 42 38 38 40 40 38 36 40 44 46 49 55 47
23 26 22 21 19 34 52 50 62 62 73 77 88 76 78 84 85 80 90 99 100 100 100 99 99 100 99 100 100 96 94 79 80 67 39 40 41 40 36 37 42 42 42 38 39 40 40 45 57
24 27 27 20 31 45 40 26 30 66 73 73 81 77 71 76 72 74 86 97 100 100 100 98 95 98 93 100 98 96 87 79 84 74 62 58 38 41 39 38 38 45 45 45 42 37 39 48 54
31 26 28 22 24 43 38 34 37 78 75 70 80 75 74 74 72 76 92 95 100 99 99 100 99 93 94 94 100 100 94 88 77 71 74 61 43 44 41 40 41 47 50 50 45 39 34 37 43
30 31 30 25 26 37 39 36 35 72 75 68 70 80 80 79 75 75 90 94 100 100 100 100 100 100 100 98 90 98 97 88 78 62 76 66 50 47 44 44 42 44 53 55 50 46 39 38 38
26 28 28 26 22 24 26 26 23 39 79 77 72 74 78 82 73 76 83 96 98 100 100 100 100 100 100 100 100 97 97 92 86 73 84 68 56 51 49 46 46 45 48 55 57 53 47 45 41
28 28 28 25 26 26 24 26 27 46 65 70 70 71 69 74 84 77 82 91 99 99 100 100 100 100 100 99 100 96 94 84 85 86 73 67 56 54 53 52 51 49 52 51 57 60 63 63 52
32 32 33 28 29 27 34 31 24 33 51 60 69 62 64 66 82 84 81 85 91 99 100 100 100 99 100 99 98 98 87 81 81 70 64 61 57 55 52 55 57 64 57 56 59 63 62 64 61
38 32 30 31 30 26 31 38 30 25 30 43 46 67 64 65 69 77 79 82 85 89 95 97 100 100 100 97 98 96 82 77 67 60 58 64 72 68 63 65 59 65 65 68 70 69 67 69 66
30 33 32 30 33 38 36 38 32 31 29 27 28 45 58 60 65 73 75 77 83 86 91 94 97 99 100 96 92 90 81 70 70 59 48 47 66 62 62 59 58 57 56 66 69 69 71 68 72
30 29 37 41 42 51 38 35 30 24 23 24 23 30 43 59 60 64 73 78 81 86 94 94 92 95 94 98 90 88 78 68 65 64 57 61 57 55 56 54 51 46 47 57 69 71 78 77 74
30 36 42 48 53 48 39 39 29 25 23 25 22 20 33 54 59 62 73 80 85 93 97 97 94 90 92 90 91 87 82 78 72 70 70 66 68 58 50 50 50 48 50 47 54 64 72 81 84
38 35 44 48 54 39 43 42 27 27 22 25 24 27 32 43 56 59 66 75 85 96 98 99 98 91 90 91 91 88 84 80 76 73 68 69 73 72 62 53 51 50 48 51 54 60 66 80 86
41 42 33 45 53 51 42 35 26 24 26 27 26 27 25 30 47 54 62 71 78 85 90 96 90 88 89 90 91 89 85 81 78 74 72 71 66 65 63 58 58 56 55 55 57 56 69 78 80
31 32 43 50 48 50 44 44 31 28 24 23 26 25 23 27 44 53 60 68 74 78 81 89 86 83 84 88 90 89 88 86 83 83 80 74 71 66 60 57 54 58 59 55 62 70 78 85 89
37 37 39 40 48 45 49 41 38 29 28 25 23 26 27 27 37 51 56 63 69 74 77 84 84 82 84 88 89 88 89 88 87 83 74 67 68 65 54 53 65 69 70 62 71 76 74 88 98
30 36 38 49 45 59 59 41 29 33 33 30 27 29 28 28 29 40 52 60 66 71 73 77 80 79 82 84 86 89 89 89 88 86 84 82 78 70 67 80 79 81 82 77 67 74 95 100 93

GFSSGP_925_rhum_054.txt.gz
RH
26 32 31 21 17 14 14 14 14 14 17 22 36 37 29 30 33 37 68 90 91 72 76 88 85 80 81 74 80 70 86 89 93 84 82 80 76 83 88 87 87 87 89 89 81 82 86 94 97
30 30 22 14 15 12 14 14 15 14 16 29 36 36 38 35 44 49 62 84 93 72 78 76 75 68 93 90 95 84 90 91 91 84 83 84 83 86 89 86 81 78 81 83 81 85 84 92 81
26 22 14 14 12 12 14 14 14 14 17 28 30 37 40 38 48 57 74 84 93 74 70 69 69 68 80 99 95 92 94 93 89 84 89 89 85 82 85 81 78 79 80 80 81 88 95 90 74
18 15 15 15 13 13 13 13 13 13 20 24 26 32 39 51 54 70 79 82 97 94 72 72 76 72 70 99 95 93 93 90 86 86 89 89 87 82 80 75 77 81 81 79 87 94 94 82 78
19 13 13 14 13 14 14 13 13 14 22 27 31 28 36 53 68 78 81 80 93 98 84 83 76 63 59 72 95 94 90 88 86 85 82 87 86 78 77 79 79 82 86 87 92 95 79 78 77
14 14 13 11 13 14 14 13 14 19 21 26 31 31 32 61 63 72 93 83 90 95 95 88 87 63 61 68 78 95 88 78 86 82 80 86 88 76 77 82 82 90 85 84 89 82 71 73 77
14 14 11 12 14 16 15 19 20 18 23 24 35 37 33 47 64 74 84 90 92 96 99 96 86 80 60 65 75 86 87 76 76 84 86 83 82 78 82 86 88 86 82 63 55 54 60 64 68
13 13 12 11 15 14 13 18 19 24 17 44 35 33 32 52 68 81 86 82 92 98 100 98 87 83 85 80 82 83 80 71 66 78 66 80 82 84 84 80 75 78 80 51 42 47 44 48 60
14 14 12 10 16 13 14 17 17 28 25 41 41 39 47 60 68 74 70 83 92 98 99 98 97 83 74 69 77 78 72 72 72 79 77 79 89 85 74 72 71 79 62 46 44 44 48 56 64
14 14 12 10 12 13 13 14 13 23 23 33 40 48 59 59 60 66 64 70 85 98 99 99 89 87 92 79 82 84 89 94 83 77 68 88 88 78 65 86 68 70 59 50 47 48 50 62 64
13 14 10 12 12 13 14 15 15 20 22 24 32 41 53 55 57 65 67 78 77 92 98 99 100 99 88 84 85 83 100 78 75 85 73 81 80 67 81 89 89 86 68 67 64 69 58 53 53
15 12 10 11 12 15 16 15 20 23 22 33 35 39 47 51 57 66 74 86 94 99 99 100 100 99 97 99 100 99 100 80 92 82 77 86 72 70 70 71 71 72 67 67 66 60 56 56 52
17 12 12 12 13 15 15 19 20 22 28 38 44 50 52 54 58 68 85 86 94 100 100 99 100 100 100 100 100 100 100 76 88 86 78 79 71 62 59 60 62 60 60 63 60 58 61 56 54
13 13 12 13 14 15 21 15 37 20 34 42 50 54 59 63 66 66 84 98 88 99 99 100 100 100 100 100 100 99 98 89 94 82 74 69 64 63 55 54 50 53 59 60 55 54 53 49 50
12 17 15 15 14 14 19 18 31 20 40 43 48 51 55 58 60 64 69 82 98 90 99 99 99 100 99 99 99 100 100 93 88 72 71 65 67 60 57 46 43 46 48 50 48 53 47 46 48
17 17 18 12 12 15 25 20 13 26 40 39 44 47 53 52 52 52 65 83 99 100 99 98 100 99 99 100 99 99 97 93 97 92 83 74 55 52 51 46 44 44 47 47 49 51 49 46 45
19 19 19 14 14 16 28 20 17 30 38 32 40 42 44 45 52 54 63 75 93 99 99 99 99 99 99 100 98 96 93 94 94 78 73 49 47 46 49 47 50 56 49 45 46 46 44 44 43
19 20 15 16 13 18 20 22 16 22 32 37 34 40 41 46 45 51 70 73 86 96 100 100 100 100 100 100 96 97 93 96 91 76 80 74 63 64 55 48 54 57 51 52 52 46 45 41 39
15 17 15 11 13 17 17 16 14 16 25 33 34 38 42 41 43 52 64 79 84 91 100 100 100 99 98 100 100 100 100 85 70 65 84 87 65 66 57 49 60 56 54 53 60 55 51 45 43
17 18 16 13 16 17 13 15 13 16 22 27 31 35 39 40 45 50 62 70 87 82 96 100 100 99 99 100 100 100 100 90 84 77 85 85 76 66 62 54 57 55 54 63 67 64 58 50 50
20 20 19 18 18 17 18 18 15 14 22 27 30 30 33 39 43 49 56 63 74 77 89 100 100 100 100 99 100 100 100 97 90 81 78 80 80 64 61 64 59 60 57 62 72 71 64 56 60
24 18 20 20 22 17 17 23 14 15 14 20 23 34 34 36 39 42 51 59 63 67 78 94 100 100 100 100 100 100 97 96 90 81 72 69 77 73 64 66 69 70 65 61 66 70 69 66 56
22 18 23 21 23 20 19 23 15 13 17 13 12 19 30 33 38 42 47 52 59 63 73 80 97 100 100 100 100 96 93 89 86 81 79 78 78 73 67 68 74 75 76 76 76 75 79 70 70
19 23 24 25 23 33 20 20 16 13 16 13 11 13 20 30 35 39 45 50 55 60 67 77 86 95 100 100 99 93 89 79 77 84 82 87 78 80 77 75 83 73 81 78 76 80 85 82 76
22 26 32 34 34 33 19 24 19 16 14 13 13 11 20 26 34 39 43 48 52 59 66 71 80 87 98 100 98 93 88 80 73 74 70 70 77 73 67 79 78 78 81 77 75 68 82 84 82
28 25 28 35 36 26 28 32 21 15 15 15 12 14 17 26 34 35 39 45 50 58 64 72 71 71 83 96 96 85 82 79 73 67 64 59 58 60 60 69 71 72 70 72 73 71 73 74 80
28 35 23 28 37 37 27 24 19 15 15 15 15 15 15 19 28 32 34 43 49 56 64 74 68 64 67 80 87 87 80 77 71 63 62 59 53 53 57 66 67 67 66 68 71 69 68 71 76
28 22 38 34 41 41 26 27 24 19 16 14 13 15 13 13 18 24 32 39 48 53 60 76 72 61 61 67 72 75 78 78 74 70 68 64 63 63 62 69 74 68 67 70 71 70 68 67 73
33 33 29 26 29 36 34 27 19 20 23 25 18 14 15 17 18 25 31 37 45 50 56 68 71 62 59 64 68 71 74 74 76 75 73 71 68 68 70 68 68 70 68 67 68 70 69 70 74
24 27 28 35 37 35 42 29 19 23 21 20 20 18 17 17 18 20 31 37 43 48 53 57 64 61 60 60 67 72 73 73 74 75 74 75 74 72 72 70 68 67 64 61 65 71 73 72 75

GFSSGP_925_rhum_057.txt.gz
RH
18 26 25 16 18 12 11 10 9 9 10 12 17 18 20 19 19 31 50 69 73 63 66 72 92 98 97 93 91 78 54 63 89 77 72 76 83 79 86 85 87 89 89 88 88 95 97 100 94
23 19 18 15 13 12 9 10 10 10 10 15 17 19 17 22 23 27 41 64 65 57 69 68 83 97 92 90 94 84 91 87 80 83 74 70 77 87 89 85 87 82 84 84 84 91 96 98 84
28 16 14 12 12 11 9 10 10 10 11 14 16 20 24 21 29 36 58 69 72 66 66 66 74 82 80 84 90 90 86 90 86 77 74 80 84 90 88 86 83 79 81 80 81 89 97 87 77
16 12 12 12 10 9 10 8 10 10 10 14 16 20 22 32 38 49 62 66 76 77 59 71 70 66 73 81 94 89 88 86 84 84 83 89 91 90 84 77 76 80 80 84 91 95 95 76 72
14 12 14 12 11 8 10 8 10 11 12 16 18 22 22 33 46 56 63 66 68 83 67 68 69 58 81 87 94 88 89 89 88 87 85 87 90 84 79 73 73 78 81 88 95 92 74 69 66
13 10 13 11 8 8 10 9 10 11 12 14 20 20 20 43 43 53 72 71 69 83 90 77 80 69 62 68 83 85 85 88 88 85 82 81 82 78 74 79 84 83 81 82 86 80 79 76 73
14 12 13 10 8 9 11 11 12 12 13 14 21 22 18 31 42 53 63 75 71 84 96 94 91 88 66 71 81 77 92 89 85 82 77 68 77 73 85 83 87 77 74 79 80 76 79 75 71
12 11 12 10 9 10 10 12 10 13 13 23 19 19 20 39 52 59 62 61 61 86 98 99 98 91 83 75 78 91 95 81 82 81 83 86 75 74 90 88 86 72 60 58 66 71 80 75 74
10 14 13 9 8 9 10 12 9 12 14 18 22 25 28 45 48 52 51 61 63 79 98 99 98 99 86 88 83 90 84 81 80 79 74 80 85 85 81 89 85 68 46 45 54 68 64 62 56
13 12 10 7 7 9 9 11 10 10 13 16 18 22 37 45 43 43 46 58 70 77 98 96 88 81 92 99 88 93 88 93 78 80 73 82 81 82 76 91 82 61 43 50 54 51 48 56 57
12 13 9 8 8 8 10 10 9 11 13 14 18 20 32 40 39 47 46 55 64 76 90 99 86 85 97 92 92 96 98 94 81 81 66 67 78 75 78 83 83 79 65 73 64 60 59 49 48
13 10 9 7 8 10 11 10 12 12 13 18 21 24 31 34 40 46 48 58 71 74 94 100 93 92 92 78 89 90 94 92 86 88 68 79 73 76 86 89 85 77 68 69 62 59 47 49 49
11 10 8 8 8 10 11 12 12 12 11 20 23 32 31 32 36 45 53 68 77 81 89 98 100 100 98 92 87 85 96 89 95 75 77 87 74 75 79 80 78 67 60 61 55 51 51 49 50
9 11 10 9 9 9 12 13 12 13 13 21 27 33 33 34 36 40 53 62 75 96 99 99 100 100 95 92 97 98 98 92 90 89 81 86 75 69 69 69 63 56 54 53 50 49 50 46 48
11 13 12 10 10 10 11 13 13 10 13 21 27 31 34 37 38 39 44 60 78 80 97 99 99 100 99 100 100 100 100 100 92 83 75 84 69 66 59 60 53 50 49 49 47 50 45 41 46
15 14 16 11 10 10 11 17 11 11 18 20 24 28 34 35 33 36 43 51 76 95 90 100 99 99 100 100 99 100 100 100 100 83 91 74 66 62 56 50 47 46 48 47 44 45 41 40 42
18 19 16 15 10 10 13 17 11 15 19 18 20 26 30 34 34 34 39 49 70 94 96 94 100 99 99 100 100 100 100 100 93 94 74 67 68 64 54 46 42 42 44 42 43 44 41 39 39
20 19 17 15 12 12 11 15 13 13 16 19 19 22 27 31 32 35 43 46 61 87 99 97 100 99 99 100 100 100 100 100 98 88 80 71 64 59 48 46 47 44 42 42 44 44 42 40 38
16 16 15 13 10 12 13 12 12 11 11 14 21 21 25 28 28 34 47 50 60 74 97 99 98 99 99 100 100 100 100 100 89 80 71 67 62 60 49 50 53 53 46 44 45 46 43 40 38
16 17 17 13 11 14 12 10 10 10 11 12 17 20 23 27 29 34 46 54 60 70 91 100 99 98 99 99 97 97 98 100 92 85 81 64 65 64 50 53 57 58 51 50 53 50 47 39 38
18 19 18 17 12 14 13 12 11 10 10 11 14 15 17 24 28 35 42 53 61 67 83 100 100 99 98 98 98 97 96 97 97 88 81 80 82 66 60 56 58 57 53 57 63 62 55 48 47
24 16 16 16 17 21 12 18 12 11 11 13 14 14 16 20 25 30 38 47 58 61 72 94 99 99 98 98 99 99 97 94 88 85 75 61 78 77 57 60 58 57 55 54 66 66 64 55 50
22 16 16 18 20 20 18 18 15 11 12 11 11 12 15 18 23 28 34 41 50 54 71 79 100 100 99 99 99 100 91 86 81 82 74 69 72 70 71 60 61 61 62 59 58 64 70 65 57
15 18 18 20 21 31 22 18 16 13 11 12 10 9 11 18 21 25 30 38 44 50 60 80 92 100 100 98 98 97 96 92 87 85 88 73 73 77 75 61 62 68 70 69 66 66 70 73 64
18 22 31 33 34 35 19 20 17 12 12 12 11 10 11 14 18 25 30 34 40 48 54 69 78 90 100 100 100 96 89 94 87 84 82 78 81 81 79 73 64 71 76 77 73 76 77 78 74
21 23 30 39 40 28 18 24 16 12 12 12 11 10 11 15 19 24 28 33 37 46 52 57 67 71 93 99 99 93 87 89 80 81 77 76 78 80 78 73 70 73 77 79 75 70 74 67 72
24 28 18 27 29 36 21 20 15 14 13 12 11 11 12 14 19 22 24 30 36 42 50 54 54 60 71 96 98 96 92 85 78 73 72 71 71 68 73 78 77 75 74 76 75 76 74 70 71
23 18 27 28 44 46 27 27 27 16 15 14 13 12 12 11 14 18 22 26 34 39 45 54 51 51 57 69 87 93 91 84 78 71 67 68 65 62 63 73 73 72 72 73 72 71 70 69 69
27 30 29 24 28 38 40 27 16 21 22 21 18 14 16 16 16 16 18 21 29 36 41 52 55 47 47 57 69 80 84 84 82 78 72 69 67 65 60 57 62 63 63 65 66 64 64 65 66
22 27 32 36 43 30 38 33 19 20 19 19 17 16 15 14 14 15 18 23 27 34 39 46 55 52 47 47 58 67 73 77 77 77 75 72 67 64 62 57 56 59 61 63 64 65 64 66 66

GFSSGP_925_rhum_060.txt.gz
RH
16 15 25 22 21 18 15 11 8 8 8 10 14 16 18 15 18 42 49 64 65 59 76 65 65 87 92 91 91 76 64 68 65 64 76 80 78 76 83 87 88 88 91 96 96 98 99 99 75
22 18 19 16 23 20 12 9 10 8 11 13 13 14 15 19 25 27 49 60 58 54 70 78 81 93 95 90 88 86 87 88 86 77 73 73 74 78 85 88 86 86 90 95 96 97 100 92 76
22 24 15 18 17 18 13 9 9 9 10 11 12 12 20 20 29 32 56 65 65 62 67 67 70 91 98 94 87 85 85 87 85 81 81 70 75 82 86 86 87 85 88 90 94 98 94 80 72
23 16 13 17 16 11 8 7 8 9 8 11 13 17 19 24 28 42 56 59 68 69 63 66 66 78 92 96 88 87 86 82 83 78 81 71 80 85 89 85 85 80 83 87 94 99 78 72 60
17 12 16 16 14 10 8 8 8 10 9 10 14 18 19 34 43 48 55 59 61 71 75 68 66 68 76 83 85 88 91 88 81 71 84 78 84 90 85 84 81 83 86 91 95 87 76 69 55
15 13 18 16 11 8 6 8 8 9 10 10 13 18 21 36 40 52 65 67 65 72 79 82 71 68 65 67 74 80 83 87 80 78 80 89 86 83 79 80 82 86 87 85 91 72 68 64 54
17 15 16 13 11 10 8 8 10 10 10 12 19 21 16 33 41 48 58 70 72 75 82 88 85 76 68 62 71 82 94 94 93 82 86 84 85 79 73 78 79 80 88 82 70 66 62 61 56
12 14 16 13 12 11 6 10 10 10 11 16 17 16 20 46 49 56 57 58 56 72 85 94 94 88 82 70 82 91 79 72 86 80 83 82 80 72 76 85 80 79 82 73 71 72 69 60 54
10 16 17 14 12 9 9 11 9 8 12 11 16 19 30 41 42 47 46 54 55 61 94 92 94 93 87 81 85 92 82 72 97 78 83 78 73 76 85 84 76 70 74 71 74 68 68 61 45
13 17 15 11 8 8 8 10 10 9 12 14 13 16 32 40 39 38 40 57 60 68 84 95 93 94 92 90 92 93 83 72 96 77 77 87 82 88 75 84 74 69 66 71 69 68 67 50 50
13 16 12 10 8 7 8 8 8 10 11 11 22 17 36 37 36 42 41 49 58 70 83 97 94 96 95 92 89 89 84 94 99 88 83 84 86 86 83 88 70 70 66 64 58 51 50 44 54
14 11 12 10 8 8 9 8 10 10 11 10 16 18 21 32 38 43 44 53 60 70 78 97 99 95 92 93 95 91 89 90 94 89 81 72 73 82 83 89 68 72 70 55 37 48 56 47 56
13 11 10 9 8 8 8 10 11 11 9 10 18 23 25 28 28 39 44 62 71 72 87 98 100 94 91 84 95 99 89 83 86 81 82 79 76 77 70 87 73 72 62 63 42 57 51 50 50
11 10 9 8 9 8 8 9 10 11 9 11 18 24 27 31 28 32 47 57 73 84 99 97 100 98 93 96 94 100 100 100 86 77 73 74 78 76 70 86 77 68 61 60 55 58 50 51 53
11 12 10 10 11 10 9 11 12 10 9 10 17 22 27 32 29 30 40 52 80 87 98 99 100 100 95 95 95 99 100 94 86 77 67 71 74 73 73 79 65 65 61 60 52 51 50 49 53
15 15 17 12 11 10 10 16 11 9 10 12 16 22 27 29 32 30 36 48 72 92 97 96 96 99 100 99 99 95 100 97 96 84 76 84 82 71 69 76 70 58 58 56 54 48 47 46 51
20 22 19 15 10 10 11 15 10 9 14 16 15 18 26 31 31 30 36 47 70 81 96 98 99 99 99 100 100 100 100 100 100 89 78 81 70 72 66 62 60 55 56 52 50 46 43 44 48
26 22 20 18 12 12 12 13 11 12 14 18 16 15 22 29 31 31 34 41 73 87 87 93 95 96 100 100 99 99 100 100 100 92 80 72 76 65 78 55 53 48 52 48 46 45 42 42 43
21 19 18 15 12 12 14 13 10 9 11 15 17 18 19 27 27 32 37 41 79 89 88 94 95 97 99 100 100 100 100 100 100 90 81 81 69 61 50 46 44 43 46 44 46 46 44 44 40
23 23 21 16 12 12 12 13 10 9 10 11 12 18 20 22 27 34 43 44 56 90 88 93 96 96 99 99 99 100 100 100 98 94 81 70 67 60 53 48 47 43 48 44 45 44 46 44 41
22 23 21 19 15 12 14 17 14 9 8 9 11 12 17 20 28 35 45 49 54 73 91 98 98 96 99 99 96 100 99 98 95 91 78 68 63 63 58 51 47 46 53 46 48 46 47 45 40
25 16 16 17 19 23 14 24 14 11 10 10 11 14 15 16 25 33 41 51 54 64 90 96 99 99 99 98 99 99 97 96 83 89 78 71 66 60 53 59 52 42 52 56 58 53 55 51 46
25 19 20 19 21 23 20 22 16 11 12 11 12 14 15 16 22 31 39 45 54 58 78 92 98 100 98 97 96 95 95 89 77 91 92 78 67 71 65 59 65 50 40 56 63 64 60 62 62
19 20 22 22 24 36 24 23 21 15 12 10 10 11 14 16 19 26 35 41 50 56 76 90 99 96 98 96 96 93 89 87 75 84 80 78 75 76 72 58 58 64 63 52 62 65 67 67 68
24 27 36 42 42 44 23 24 23 15 11 11 11 10 11 18 21 25 34 39 44 53 67 77 96 97 96 98 96 95 91 88 81 78 77 70 71 70 72 68 60 65 62 65 61 64 65 70 69
29 30 37 56 56 36 21 26 20 13 10 11 11 11 13 17 22 23 29 37 41 50 67 73 82 89 95 94 98 97 91 89 85 81 75 73 67 67 69 72 61 54 68 69 71 67 67 66 71
34 47 23 34 34 47 38 20 14 12 13 11 11 11 12 15 19 22 26 35 38 47 54 67 70 79 92 92 96 94 93 91 89 86 79 76 73 72 79 80 71 63 71 74 77 76 75 66 70
31 27 42 34 53 62 36 26 23 19 16 13 13 14 14 15 18 22 24 34 36 43 50 58 62 65 83 96 98 96 95 92 91 87 86 79 75 74 74 81 78 69 72 73 79 81 67 73 72
31 35 40 40 32 52 54 45 32 27 24 22 20 19 20 19 17 17 21 25 34 38 45 55 56 56 60 90 94 92 90 86 89 85 83 84 79 76 75 74 78 79 79 78 79 80 76 74 75
24 29 32 54 58 39 50 41 26 27 22 23 22 18 18 17 17 18 18 23 25 36 41 52 55 52 52 65 88 92 92 90 89 87 81 78 78 74 73 71 68 75 74 77 77 78 76 76 74

GFSSGP_925_rhum_063.txt.gz
RH
22 12 14 29 44 36 34 24 16 12 22 19 18 21 20 19 34 62 64 53 72 71 65 63 85 85 78 81 81 74 72 68 62 60 56 60 62 57 62 79 84 86 91 94 92 91 99 99 77
14 17 24 34 38 42 34 19 18 17 16 15 15 17 18 36 49 64 64 61 62 63 67 58 73 92 88 92 85 88 87 84 80 76 64 64 64 66 83 86 85 89 92 96 93 96 99 82 75
18 22 34 36 37 37 34 16 14 14 13 13 14 14 26 43 36 57 59 59 57 69 71 65 63 92 94 88 86 85 85 85 80 74 70 72 71 73 81 87 88 87 92 94 97 98 82 71 67
20 31 29 28 32 24 20 15 11 12 13 13 16 19 29 30 35 53 59 54 57 63 75 69 63 73 93 92 84 82 87 84 82 73 72 75 82 82 83 84 85 85 92 97 98 88 71 65 61
22 30 29 30 26 18 14 11 11 12 12 17 18 21 42 47 52 55 57 58 64 58 69 76 68 66 78 94 88 84 82 81 78 74 75 80 86 85 83 84 83 84 87 95 95 75 66 61 66
27 26 32 33 24 17 14 11 10 12 11 10 15 20 48 48 49 58 56 64 67 71 79 82 78 72 68 76 85 90 88 77 76 78 72 72 81 84 82 82 80 85 88 91 87 72 58 56 61
31 32 30 27 22 17 13 11 13 12 12 21 20 23 51 51 54 57 60 59 63 73 76 88 82 77 75 70 74 80 84 96 99 94 78 82 74 85 79 82 85 80 84 83 75 68 55 58 58
27 29 29 24 22 19 12 12 12 11 16 22 17 21 59 59 51 52 55 57 62 73 78 80 88 86 79 79 80 86 83 99 82 88 97 75 82 82 80 84 85 83 78 78 76 66 56 56 49
22 29 27 23 20 17 11 13 12 10 14 17 22 17 49 51 52 51 57 59 54 75 68 79 81 91 92 87 90 86 82 86 78 77 84 82 84 80 80 74 80 82 75 67 63 58 55 51 48
24 27 23 16 15 15 11 12 11 10 16 16 18 48 48 44 48 50 48 62 62 74 77 79 94 98 94 88 91 89 86 91 84 78 80 86 83 85 84 80 83 78 64 67 64 61 53 49 49
24 26 18 16 14 15 14 10 10 11 13 16 30 54 51 48 47 47 50 55 61 74 84 84 96 96 92 100 94 89 86 78 65 96 98 79 87 92 87 86 81 70 78 75 63 58 41 49 49
27 19 17 14 13 13 13 10 11 11 13 20 22 47 50 50 54 54 54 61 68 76 83 90 95 94 95 100 100 93 87 84 91 90 93 78 94 92 87 82 74 72 60 59 62 53 36 50 50
24 19 15 13 12 12 12 11 12 13 12 20 28 28 34 46 48 49 56 65 71 84 82 89 94 96 89 99 100 88 99 95 98 95 85 76 83 94 92 80 66 52 54 49 41 36 43 52 57
20 19 16 13 12 11 12 12 11 12 12 12 28 34 34 37 46 53 66 72 73 92 94 94 92 99 94 99 99 99 100 100 98 85 80 72 82 86 85 72 54 52 42 33 51 48 43 51 54
19 22 17 14 12 11 13 16 13 12 13 14 28 33 39 39 37 55 54 72 76 81 96 91 96 94 92 93 99 97 97 99 98 100 85 70 71 78 82 71 55 54 38 38 57 60 49 49 56
28 25 26 16 14 13 15 20 15 12 13 15 16 32 40 42 37 34 51 70 79 82 93 96 99 98 94 96 99 100 96 95 90 88 77 69 72 65 77 78 54 60 45 44 57 62 54 53 56
32 38 29 20 14 14 16 18 15 12 13 16 20 34 38 44 43 38 54 73 81 79 80 93 97 99 95 99 96 98 99 96 88 82 76 65 67 70 69 80 54 66 54 52 52 53 50 54 56
46 34 26 25 18 16 16 16 14 13 18 22 23 24 40 42 42 41 55 75 80 80 78 89 98 99 99 96 97 97 99 99 86 74 66 66 62 69 81 72 55 68 62 62 56 50 47 51 55
31 31 33 27 19 20 19 16 15 16 17 26 26 24 37 41 39 42 59 80 83 82 91 88 94 97 96 100 100 100 100 100 100 94 85 78 67 80 75 70 66 62 68 60 52 48 45 49 53
31 32 34 26 20 21 20 18 16 14 15 19 24 26 26 38 41 44 75 82 87 84 91 92 93 96 98 97 99 99 98 100 99 100 88 94 80 66 65 63 63 63 64 59 47 47 49 47 50
30 35 34 30 22 18 18 21 18 15 14 13 17 20 23 38 44 49 63 90 94 90 90 92 91 93 95 100 99 100 100 100 100 100 96 81 72 62 59 58 67 63 60 59 47 46 46 45 45
23 19 22 22 24 30 20 36 23 18 16 14 14 22 24 38 42 49 53 74 96 90 86 90 86 90 95 97 100 99 98 97 97 95 87 77 70 61 56 61 60 58 50 46 45 44 46 53 45
42 25 27 28 30 30 28 35 27 21 20 14 15 20 22 35 44 52 56 57 82 89 86 78 88 92 96 93 96 97 94 89 91 89 79 72 69 64 56 52 48 44 44 45 50 45 44 46 45
37 46 36 34 33 48 35 33 34 25 19 16 14 18 21 30 42 48 55 57 73 91 88 86 96 100 100 99 93 95 93 88 87 90 86 81 68 61 54 48 50 44 44 54 62 51 51 47 52
40 60 63 58 58 60 31 34 29 24 18 17 16 18 21 28 41 48 58 63 63 92 96 93 95 100 100 100 98 89 92 89 81 87 86 84 81 79 61 54 58 61 51 46 57 62 62 54 54
43 48 72 64 67 48 30 39 30 20 16 16 14 19 24 31 41 47 52 59 62 82 95 92 94 93 99 100 100 96 94 92 84 80 85 82 79 75 72 60 52 58 64 66 56 50 65 64 64
51 52 34 56 65 67 54 39 20 19 17 15 13 21 28 31 39 45 48 52 60 70 90 91 93 87 93 99 99 99 92 90 87 78 76 79 73 74 77 70 68 54 54 65 66 64 63 66 68
41 32 63 85 91 95 49 50 51 34 20 22 19 24 24 26 29 43 45 49 56 66 78 88 87 86 85 95 97 97 96 92 90 86 79 73 71 67 68 71 71 70 62 55 70 70 66 67 67
42 54 84 77 64 71 69 59 43 35 33 30 28 27 26 24 28 30 42 45 51 60 78 78 84 86 88 88 92 96 96 92 89 91 86 82 76 71 67 68 72 74 75 66 67 74 72 74 77
35 42 72 100 83 70 63 71 42 33 25 27 27 23 25 29 33 36 37 39 47 55 65 74 74 78 88 87 91 92 94 93 94 93 91 88 85 80 74 69 73 81 81 77 74 76 81 87 86

GFSSGP_925_rhum_066.txt.gz
RH
28 20 17 30 46 44 42 32 21 20 21 19 20 20 28 30 34 43 61 59 68 66 72 79 79 74 67 60 57 64 64 64 66 66 68 67 62 55 55 64 84 88 88 91 91 82 87 100 94
26 19 24 39 48 47 42 27 23 19 20 18 18 19 25 57 60 70 66 67 66 64 66 71 83 88 90 68 61 61 72 68 62 66 66 63 57 56 65 72 74 79 85 84 86 81 94 98 90
18 24 36 42 49 49 38 23 16 14 16 14 16 20 34 52 58 68 57 64 70 70 67 63 73 85 88 82 74 66 63 65 60 61 64 62 61 67 72 81 89 89 87 92 90 93 98 86 84
24 34 40 35 38 33 29 21 19 15 14 14 20 32 39 38 57 53 57 63 69 74 72 66 67 84 86 89 81 77 73 66 60 61 66 66 71 74 79 85 88 89 88 88 91 98 82 80 84
24 36 43 37 33 24 20 17 15 14 15 19 18 28 48 61 52 55 60 62 65 80 78 74 66 73 90 89 84 85 86 80 70 67 68 66 80 85 84 83 89 90 87 86 92 89 83 84 83
30 34 39 42 30 20 18 16 16 14 18 20 20 49 54 61 59 59 59 64 71 68 77 80 80 70 76 81 84 84 86 85 78 71 72 78 76 82 83 81 83 90 88 88 90 84 80 80 85
33 40 38 32 28 23 18 16 15 15 15 21 24 44 61 58 58 58 54 60 72 72 75 84 82 82 80 74 78 81 90 83 84 94 92 95 88 83 82 76 81 85 80 87 80 76 73 69 62
33 39 37 34 32 30 18 15 15 13 15 22 21 61 67 60 62 60 60 57 64 72 69 78 82 85 84 82 82 80 77 84 92 91 97 95 87 87 83 80 73 79 79 82 71 67 64 57 64
29 44 48 35 29 23 16 18 13 11 24 21 20 45 48 60 61 65 68 66 74 79 78 73 78 89 84 79 82 90 85 89 82 81 79 89 99 84 87 80 76 75 80 78 68 61 61 57 66
41 47 43 27 22 20 17 17 15 13 19 18 55 63 59 60 58 62 72 68 90 85 80 80 84 94 95 85 87 89 86 90 82 70 71 79 90 90 93 86 80 72 73 75 66 60 59 64 71
34 41 27 21 19 18 18 17 15 14 15 19 53 66 63 61 62 64 64 62 69 75 84 86 92 89 92 93 92 88 83 85 87 75 80 71 87 95 99 99 90 70 63 67 64 58 56 63 63
40 30 26 22 19 18 18 15 15 13 14 17 49 55 55 56 62 60 69 66 75 82 86 92 94 86 95 93 94 89 86 84 80 83 75 76 99 94 100 99 81 60 62 63 59 57 52 55 64
39 33 28 22 19 17 16 16 16 14 13 26 49 51 54 55 55 54 57 72 81 85 84 86 83 90 94 92 99 97 90 85 78 92 85 98 97 100 100 99 76 62 64 62 61 52 50 53 64
27 29 27 22 19 17 16 15 15 14 13 32 48 51 55 55 57 72 77 83 85 87 84 87 88 92 92 94 100 100 97 99 97 98 100 100 94 94 96 83 67 64 54 54 56 43 48 51 62
26 30 24 22 19 18 14 16 16 12 13 15 36 36 47 50 58 70 75 86 84 86 82 85 94 94 94 98 100 96 97 97 100 99 97 89 97 95 91 78 58 45 56 50 42 36 51 56 56
32 29 35 22 17 16 17 22 15 14 14 14 28 40 43 47 53 63 72 80 87 85 85 83 91 98 94 99 100 100 99 98 100 100 90 83 84 84 83 68 54 51 40 29 38 45 53 52 56
39 48 36 27 18 18 18 21 16 14 16 14 16 39 45 47 51 57 74 79 85 81 88 85 90 100 95 100 98 98 99 99 100 100 96 90 97 93 81 65 48 38 28 48 51 46 47 51 60
52 44 33 30 21 22 25 23 18 14 16 17 18 30 44 48 43 52 81 87 86 86 85 84 96 100 98 98 99 96 97 100 95 93 97 98 94 88 83 62 50 40 40 56 59 57 54 52 58
35 37 41 33 28 29 28 26 26 20 17 21 28 35 44 47 44 62 90 94 93 95 92 87 93 100 100 100 100 100 100 100 100 100 97 88 84 81 88 69 50 51 48 52 59 61 62 56 56
35 39 43 33 25 27 27 29 20 18 17 19 26 32 43 50 51 75 94 100 100 100 92 90 94 97 100 100 100 100 100 100 99 99 95 86 80 75 79 79 62 67 59 60 53 59 61 60 55
30 31 39 38 29 24 30 30 22 18 16 17 23 25 34 47 50 73 92 97 100 100 97 92 90 99 97 95 100 99 99 100 100 100 100 95 88 78 78 78 76 70 68 64 63 56 52 57 60
59 23 22 27 31 52 29 50 27 22 21 18 18 26 33 45 44 64 85 96 98 100 96 91 88 90 94 89 94 96 98 98 99 100 99 96 91 80 77 74 75 62 66 68 63 54 49 50 62
46 44 49 46 49 46 36 42 28 24 24 21 20 20 28 42 45 59 82 90 95 98 100 94 91 88 94 100 94 96 100 100 99 100 100 100 93 83 72 62 71 66 73 64 58 56 47 46 53
53 52 50 42 47 67 43 42 43 31 22 19 18 17 27 41 44 49 68 88 96 100 100 98 94 92 89 98 100 96 99 96 99 100 100 98 92 74 68 64 66 64 70 70 73 64 47 44 40
57 70 69 68 69 73 39 43 38 28 24 22 22 20 24 41 48 55 68 91 98 99 100 100 96 100 90 99 99 98 95 92 94 97 93 92 86 80 63 63 71 74 67 63 60 49 44 38 38
61 76 84 91 92 66 34 45 35 23 19 19 19 20 29 43 51 60 63 76 94 98 100 100 100 100 98 100 96 96 93 91 91 90 87 83 79 74 68 59 61 60 58 58 59 59 50 41 42
76 94 63 85 66 91 60 43 31 31 23 19 19 29 39 48 53 61 62 64 90 97 99 97 100 100 100 100 99 91 94 92 88 85 85 81 80 80 73 65 55 47 48 47 44 48 62 62 57
50 61 98 98 97 94 57 48 52 40 38 29 32 35 42 47 52 56 62 66 73 90 94 95 94 96 98 97 100 99 94 92 86 80 80 82 78 81 81 71 62 56 55 59 64 63 55 54 54
60 96 92 82 82 96 77 72 64 51 37 38 43 45 47 48 50 56 58 61 64 84 94 96 94 90 95 98 99 97 97 96 93 90 83 79 81 78 77 74 70 65 58 56 59 65 68 70 70
53 74 75 99 86 81 86 95 74 55 42 32 42 46 48 46 48 50 61 65 65 77 86 95 94 91 90 94 97 96 96 96 97 95 92 84 80 77 75 72 72 71 69 70 69 68 69 79 82

GFSSGP_925_rhum_072.txt.gz
RH
31 33 22 35 39 52 49 34 30 26 22 20 22 26 26 23 28 29 50 52 56 52 55 69 94 100 76 69 64 60 58 65 72 70 69 70 72 76 78 79 82 87 89 92 95 94 96 96 94
35 25 28 47 46 43 27 37 32 25 19 20 33 38 36 34 62 70 65 56 59 58 58 65 75 96 80 73 70 68 68 72 73 73 70 68 71 73 78 83 86 86 87 91 93 96 98 94 95
30 25 36 49 64 38 29 29 25 20 19 18 19 26 34 38 61 69 53 48 57 58 53 64 71 89 78 72 72 70 84 93 81 76 71 70 69 72 87 89 86 86 88 87 96 99 94 95 94
30 34 42 50 56 42 27 21 22 22 17 17 18 28 38 49 59 54 49 51 62 59 56 64 65 68 86 75 83 73 71 78 97 83 78 77 79 82 90 83 81 81 83 87 96 94 96 96 97
29 45 48 59 51 39 33 27 21 21 18 18 22 27 42 55 58 56 55 62 64 66 62 65 68 80 98 94 81 91 72 70 80 81 79 79 84 81 76 78 76 80 81 89 94 93 98 94 93
38 45 58 56 44 30 26 23 19 19 19 19 21 25 45 69 64 68 66 68 69 71 76 68 71 88 97 99 88 71 84 75 70 79 85 84 75 87 80 81 81 80 85 93 91 95 96 93 87
31 47 53 46 38 32 24 20 20 19 19 19 24 38 52 74 71 69 64 66 73 77 79 73 75 84 94 95 78 71 69 75 83 83 93 84 76 62 76 82 87 87 93 89 89 97 95 87 83
37 40 44 42 36 32 19 18 16 16 18 22 44 51 47 71 71 70 69 68 72 78 80 77 82 99 99 77 77 84 78 76 83 91 86 94 82 76 73 87 88 92 89 84 96 96 89 83 80
37 44 56 39 35 26 20 20 19 16 18 18 25 47 58 62 72 78 83 87 84 80 78 81 96 100 91 82 77 77 81 80 75 83 74 88 93 84 86 86 89 92 86 89 96 87 83 79 78
47 61 37 36 28 26 23 25 23 19 22 22 23 46 69 76 83 88 92 98 93 87 78 82 94 98 92 88 78 76 89 83 88 88 79 81 82 86 86 82 89 80 85 93 89 83 76 78 81
52 48 35 33 28 27 27 26 19 21 25 22 19 23 72 81 86 87 84 84 81 82 86 88 88 91 90 87 87 83 90 82 73 74 85 73 81 89 92 74 94 80 89 94 92 81 76 76 80
54 45 38 33 31 30 31 26 27 22 22 19 19 20 69 85 88 85 81 77 78 86 88 83 85 96 96 92 90 82 94 96 96 99 97 93 97 97 88 86 87 82 91 89 72 69 70 77 77
50 45 39 35 34 32 30 32 29 26 22 20 19 26 70 76 78 76 74 69 71 85 88 81 91 99 97 99 93 90 98 100 98 100 100 96 94 98 87 74 96 82 86 78 67 64 69 78 75
32 35 36 36 36 35 35 33 27 26 22 17 23 41 69 74 73 74 71 74 76 77 86 86 99 100 99 98 90 94 100 100 100 100 100 98 95 100 97 98 91 80 81 76 68 69 76 76 72
36 43 38 37 36 39 35 34 30 23 19 19 24 53 70 69 69 68 64 74 72 74 80 91 99 100 99 88 78 92 99 100 100 100 99 99 93 94 99 99 100 84 82 75 66 72 73 74 72
39 41 51 34 33 29 26 38 27 22 21 20 20 52 63 63 63 62 61 66 70 76 82 99 100 99 99 87 76 97 99 100 99 100 100 99 100 97 100 99 100 84 87 76 68 70 70 70 70
48 56 52 42 28 26 27 33 22 19 21 22 21 37 64 58 63 62 63 70 71 74 80 99 100 100 100 96 94 96 99 100 99 98 99 99 100 100 100 100 100 81 87 82 65 65 66 71 75
56 57 54 49 31 30 32 36 32 26 26 28 27 22 52 52 55 58 76 76 73 80 82 98 98 98 93 95 100 100 98 100 100 99 99 99 100 100 100 99 97 82 80 82 68 62 67 69 73
42 50 54 44 35 38 40 39 33 29 29 30 30 27 26 41 43 68 87 81 83 89 92 99 100 95 82 99 100 100 100 100 100 100 99 100 100 100 99 98 92 81 79 80 75 63 65 76 80
40 41 41 38 36 38 42 41 35 30 29 27 26 26 26 28 65 94 97 97 93 98 92 99 98 90 88 87 99 98 100 100 97 100 100 100 98 98 99 91 87 78 74 76 73 62 67 77 78
54 54 50 41 36 35 39 39 34 27 30 24 23 22 23 31 61 95 97 97 98 99 100 100 98 96 91 89 98 95 96 100 100 100 100 100 99 99 93 92 78 66 67 66 68 60 66 74 79
72 47 44 40 45 54 36 58 40 36 33 29 26 25 31 32 52 89 93 93 91 97 100 100 98 98 98 95 100 94 99 97 98 98 100 100 100 99 98 94 84 63 59 55 55 53 62 62 79
69 53 64 58 66 58 53 57 42 38 37 32 28 25 24 49 62 91 91 87 88 94 99 99 99 99 92 98 100 99 100 91 93 98 99 100 100 100 98 93 89 72 55 54 49 55 61 60 71
54 68 61 61 70 88 58 56 51 44 36 30 23 23 22 27 62 80 88 89 89 92 99 100 98 98 99 97 100 99 98 99 99 100 100 100 100 100 100 99 98 85 66 47 54 56 56 57 62
66 79 91 89 88 86 50 58 43 30 29 37 42 35 25 22 58 83 97 89 85 91 98 98 99 99 100 100 100 94 94 93 93 93 95 100 100 100 100 99 96 93 85 72 59 66 65 57 64
82 70 92 89 88 78 56 64 47 43 43 52 56 57 32 27 53 75 92 91 85 91 94 99 99 98 100 100 100 82 87 95 93 86 97 100 99 98 100 98 88 89 89 90 79 74 62 68 68
75 96 82 100 100 98 69 54 50 64 65 59 65 67 70 35 46 65 90 91 86 90 93 96 97 95 98 99 94 94 98 99 94 87 93 99 99 99 99 99 93 95 92 96 89 89 79 74 75
75 83 99 100 98 89 69 76 95 88 77 69 75 78 79 69 70 84 94 89 88 88 90 93 97 95 93 98 92 88 93 99 98 95 91 89 98 100 99 100 100 98 92 96 96 96 92 89 86
83 88 98 96 86 98 94 95 78 81 72 76 77 84 89 82 82 91 94 84 88 87 95 98 96 93 92 94 98 96 95 96 96 96 95 93 86 90 92 88 90 88 93 94 100 98 92 92 86
77 92 89 100 99 97 100 97 76 68 65 67 76 78 82 82 86 90 92 93 94 95 99 97 94 94 95 94 94 96 96 97 95 92 92 92 93 91 89 84 82 80 79 84 94 91 88 87 85

GFSSGP_925_rhum_075.txt.gz
RH
24 28 25 32 25 30 21 19 25 21 18 18 20 20 19 20 35 26 55 62 49 48 55 68 70 98 72 67 62 61 73 80 74 71 67 69 68 71 74 74 79 85 88 94 95 96 97 100 91
35 30 29 34 23 16 10 25 23 19 16 16 26 31 30 24 46 45 57 59 48 44 48 54 57 98 71 68 64 65 93 96 79 74 71 70 68 73 74 72 81 80 84 88 95 96 100 96 94
30 25 24 32 32 15 10 18 20 20 18 17 18 24 25 30 51 48 52 52 53 50 51 57 60 99 85 70 66 64 79 95 81 78 74 71 72 76 75 78 82 80 82 87 95 98 99 96 93
28 28 30 31 31 25 14 16 21 20 14 15 16 18 28 46 51 54 46 56 59 59 59 64 78 100 100 74 69 66 65 80 99 85 78 75 76 76 78 82 82 82 84 88 92 93 98 94 93
30 30 28 38 34 29 26 19 20 18 17 14 15 17 29 47 53 56 51 54 60 60 60 70 90 99 98 89 75 71 71 67 94 95 91 88 93 92 81 82 82 79 82 93 93 99 95 91 90
27 32 30 23 34 26 21 21 19 16 16 15 18 17 19 59 65 57 56 54 60 53 58 64 86 99 97 98 85 75 68 69 78 100 97 95 87 85 76 81 78 79 86 94 96 96 91 90 90
24 33 23 29 28 24 18 19 17 15 15 17 19 24 32 60 68 60 60 59 65 63 65 67 81 99 98 96 90 79 71 67 71 72 76 82 81 87 79 78 75 81 92 93 97 95 91 91 88
24 28 31 32 24 19 18 18 16 17 15 18 37 31 31 50 79 73 69 70 77 76 73 78 88 99 98 96 96 86 76 71 72 77 80 80 94 90 84 71 72 84 91 93 98 96 92 91 85
30 27 28 27 26 20 19 18 16 16 16 17 16 24 43 62 82 85 86 90 93 83 80 82 93 99 98 97 91 83 80 78 77 80 81 82 79 70 72 76 79 85 87 94 99 95 90 86 82
34 34 26 26 21 20 17 21 18 19 19 18 18 30 67 76 80 75 74 77 90 93 84 78 84 97 99 97 92 83 77 80 80 80 84 79 70 70 74 72 87 81 90 84 95 93 87 85 90
42 35 33 28 23 22 22 22 20 19 22 19 20 18 37 65 74 74 74 76 81 86 90 78 81 100 100 94 89 85 80 81 86 86 82 77 76 77 74 90 91 92 96 98 97 92 90 90 87
40 43 35 27 24 26 28 24 25 24 23 18 19 18 18 29 63 70 68 74 83 87 89 80 84 92 96 96 96 90 89 85 90 99 86 83 94 91 97 80 92 94 100 98 97 94 95 95 88
38 32 32 30 30 30 27 29 27 24 21 19 19 20 19 21 32 55 63 68 77 82 93 85 95 93 98 100 100 100 100 87 86 92 84 81 97 97 92 90 93 95 98 99 96 93 93 90 83
28 31 28 28 28 28 30 28 32 26 22 22 20 18 16 28 35 49 71 70 72 82 93 90 99 98 98 98 100 100 100 88 84 86 92 86 88 100 99 94 98 100 95 97 93 90 90 86 85
29 34 32 33 30 30 31 38 37 27 24 24 19 17 16 25 47 55 62 67 71 81 92 98 98 98 98 96 100 100 98 89 98 98 100 99 100 100 100 98 98 97 99 92 90 90 87 86 83
31 35 37 33 32 30 30 26 22 22 22 20 18 18 18 22 43 53 61 64 75 82 96 99 98 98 98 96 100 91 95 100 100 100 100 100 100 100 100 100 98 100 91 84 82 82 85 84 80
39 40 44 37 26 27 30 31 23 20 22 21 19 18 19 23 43 52 62 66 74 80 94 99 98 98 97 99 97 100 97 100 100 100 100 100 100 100 100 100 97 98 98 81 78 82 82 82 79
39 45 46 45 32 30 32 32 25 23 23 25 22 22 22 22 28 38 60 69 75 83 93 99 99 98 99 99 99 100 100 100 100 100 99 99 100 100 100 99 95 99 97 84 78 82 84 79 78
32 36 36 31 29 31 31 34 31 28 26 25 23 22 21 22 22 31 65 76 78 90 98 100 99 98 99 99 99 100 99 100 100 100 99 93 98 100 100 100 97 100 97 82 74 81 84 84 81
39 42 42 36 29 28 28 30 30 28 26 25 23 22 21 22 20 41 74 78 80 91 98 100 100 99 98 96 98 98 97 99 99 96 99 97 100 100 100 100 98 99 97 90 74 74 80 81 88
57 60 57 55 43 36 35 34 28 23 25 24 23 21 20 21 21 37 73 77 79 91 100 99 99 99 90 83 99 99 98 100 100 100 100 100 100 100 99 100 97 95 92 91 78 72 76 78 88
70 52 52 53 53 55 33 46 33 28 26 25 22 23 24 22 23 27 64 75 79 84 96 98 96 98 86 83 91 98 98 99 99 99 100 100 100 100 100 99 97 92 83 83 82 72 70 74 82
59 54 57 57 60 59 53 55 38 32 32 26 24 25 24 24 26 40 64 67 77 88 95 99 97 98 95 86 90 94 95 90 93 99 99 100 100 100 100 100 96 87 79 74 76 77 74 72 76
52 60 58 55 60 77 53 52 45 34 28 29 30 33 33 27 30 42 63 72 77 88 95 99 98 99 95 86 96 99 99 95 97 96 100 100 99 100 100 98 94 86 73 66 62 70 69 69 75
53 62 73 76 81 63 42 55 45 34 33 51 53 50 48 42 37 57 70 72 77 84 96 99 97 98 96 95 99 100 100 94 92 97 100 100 100 100 100 98 99 92 89 74 57 55 64 68 70
66 60 74 78 74 66 51 55 44 61 55 56 58 60 58 54 32 57 67 72 77 82 94 95 97 97 98 94 95 96 96 97 96 94 94 98 99 99 100 100 99 97 93 87 75 57 52 55 64
72 79 63 100 75 91 52 45 61 57 61 63 69 73 75 66 52 44 69 73 77 81 92 91 95 98 100 98 99 89 88 90 92 89 89 98 97 99 98 100 100 100 94 96 84 70 73 62 68
65 73 100 98 86 78 53 57 78 76 74 70 79 86 87 75 70 66 75 78 77 85 92 95 93 91 97 100 100 99 96 89 88 86 86 93 99 100 98 100 100 100 100 97 99 97 83 83 72
77 76 97 98 80 78 85 92 77 82 76 83 86 85 88 88 87 80 76 81 84 91 95 96 92 88 89 95 100 100 100 99 98 94 90 91 90 96 100 100 100 100 100 97 96 99 99 93 81
58 66 86 95 89 93 90 78 86 78 71 78 84 81 84 86 91 90 87 90 94 96 97 95 94 90 91 94 96 96 99 100 100 100 100 97 91 92 94 95 98 100 100 100 100 100 100 100 100

GFSSGP_925_rhum_078.txt.gz
RH
30 33 23 18 15 12 8 7 7 10 14 13 14 12 13 14 19 18 39 53 55 61 73 64 54 55 62 69 68 64 60 69 70 68 66 70 72 75 78 79 81 85 83 86 89 92 96 91 89
31 28 18 15 12 9 8 6 10 7 10 12 12 16 17 17 17 25 41 55 50 54 68 78 59 51 65 67 64 62 63 70 74 75 73 72 78 82 80 79 81 87 83 84 94 98 92 92 88
29 20 12 13 12 9 7 6 7 12 12 12 16 17 19 18 26 25 36 55 53 57 63 72 73 83 84 72 65 63 66 75 85 84 78 77 84 82 82 74 82 87 85 86 94 93 90 92 89
22 16 14 15 10 10 7 5 8 14 11 9 11 13 14 22 29 30 41 55 55 61 66 79 71 99 84 75 70 67 89 100 99 94 84 87 95 88 82 78 80 84 85 87 90 92 95 90 88
20 12 13 13 10 8 9 9 11 14 13 11 8 10 14 21 34 42 47 55 56 67 73 78 62 90 92 74 74 75 75 100 99 98 94 92 94 93 79 84 81 81 84 87 93 92 94 88 87
18 13 13 11 10 10 10 6 10 11 10 9 10 14 12 27 33 40 51 58 65 74 81 87 72 83 94 87 76 77 77 79 100 98 82 93 88 89 78 77 79 77 77 82 92 92 94 89 90
18 16 14 11 10 10 11 7 12 9 8 7 14 18 14 23 36 48 54 60 71 78 83 93 95 97 95 92 85 79 77 72 66 71 70 87 90 90 80 76 77 74 80 93 93 95 93 89 92
18 15 17 13 14 13 9 10 8 9 8 13 14 17 18 22 45 61 56 56 62 77 87 97 99 99 98 97 89 87 79 74 67 71 73 79 83 87 99 91 85 78 82 93 93 96 95 92 92
16 20 19 16 16 14 11 11 8 9 10 10 10 12 17 28 42 58 58 55 58 73 78 97 99 100 97 96 96 92 85 77 76 76 78 78 81 89 82 76 80 75 78 78 91 97 94 94 89
19 18 17 13 14 15 12 12 10 13 13 13 12 10 25 31 36 49 52 50 59 67 75 92 100 98 96 95 100 95 88 83 84 91 83 92 88 92 92 80 78 75 76 87 78 89 89 88 87
23 21 15 16 16 14 14 13 11 13 15 12 13 11 12 13 28 38 44 42 51 58 66 76 97 88 96 98 100 86 78 84 90 95 92 88 92 94 86 77 79 81 81 90 94 90 87 82 77
29 22 20 16 16 17 17 14 14 13 14 12 11 11 11 13 15 26 35 40 45 56 61 75 94 94 97 100 99 99 88 81 89 94 99 95 97 96 90 72 87 84 90 93 93 91 86 81 70
23 18 14 16 17 16 14 15 15 14 13 11 11 11 14 14 14 14 22 31 44 51 60 70 100 99 100 98 98 98 94 100 99 98 97 92 93 90 98 97 98 82 94 86 95 85 86 80 72
18 21 19 19 19 19 21 18 16 16 14 14 14 14 12 13 12 12 16 26 37 49 58 70 91 100 98 100 99 98 99 99 99 98 98 97 96 98 95 98 95 99 89 89 87 84 84 73 68
22 25 21 20 19 21 18 20 20 16 15 16 14 13 11 11 11 13 17 26 37 49 57 78 94 98 98 92 99 100 99 98 99 100 100 100 96 94 98 98 97 99 91 88 85 81 76 68 66
25 23 26 16 23 22 24 25 13 12 16 16 15 13 11 11 11 11 19 28 39 49 60 81 95 99 96 98 99 99 98 99 100 99 100 98 97 96 100 99 99 99 100 92 88 80 72 67 63
25 24 23 22 19 20 23 24 18 16 16 17 16 13 12 11 11 13 22 32 40 50 63 77 88 95 98 99 99 98 99 100 97 98 98 98 98 99 98 98 100 99 100 96 88 77 67 66 62
21 24 22 28 24 24 25 23 20 18 18 19 17 15 14 13 12 12 20 34 44 52 66 77 95 98 96 100 99 99 98 99 98 99 99 99 100 100 100 100 100 100 98 90 86 75 72 63 59
25 31 30 22 19 24 24 22 18 16 19 20 19 17 15 14 11 12 18 37 48 54 64 75 96 98 99 100 100 99 98 98 99 99 99 99 100 100 100 100 100 100 97 92 84 73 69 66 64
29 29 31 29 27 29 27 25 19 17 16 16 18 18 16 14 12 12 20 40 50 56 63 73 88 95 97 94 97 99 99 98 99 98 97 98 99 96 100 99 100 100 100 94 90 76 70 64 66
35 40 38 41 36 33 33 28 21 19 19 17 17 17 16 15 13 12 21 40 49 55 66 70 79 84 89 85 89 94 99 100 100 99 98 88 100 95 100 99 100 100 99 94 83 77 70 67 67
42 37 41 42 43 33 28 32 22 21 20 17 16 18 16 15 13 13 15 34 45 53 65 68 74 80 81 77 84 86 91 98 95 97 98 99 98 100 99 100 100 99 100 97 87 76 72 65 68
38 41 41 42 47 45 38 42 25 23 25 21 18 17 16 15 13 14 16 24 41 51 66 70 74 84 76 76 77 78 93 91 89 99 99 99 100 100 100 100 100 100 99 98 84 76 74 69 62
36 41 33 35 45 57 36 38 27 24 27 23 23 20 22 21 21 18 18 31 41 54 67 72 77 83 77 77 83 87 89 89 86 99 100 100 100 100 100 100 100 98 95 92 88 81 78 72 70
42 38 33 45 61 46 32 38 31 25 37 37 36 35 33 33 30 22 30 38 45 59 80 83 77 84 83 77 77 82 78 89 87 87 94 99 100 100 100 100 99 100 96 92 90 86 80 76 71
40 38 42 50 42 34 33 42 31 42 40 40 40 44 42 39 35 24 34 40 47 60 87 87 79 85 88 79 72 89 88 97 94 92 88 96 100 99 99 100 99 100 94 86 84 89 83 79 75
53 59 41 60 53 63 35 28 38 37 41 43 49 53 59 56 48 32 37 44 50 61 88 91 84 86 88 86 77 88 91 93 95 99 99 99 98 99 99 100 100 100 95 83 74 70 75 73 75
51 47 78 72 76 55 31 35 44 59 58 54 61 67 74 74 64 44 47 53 55 70 86 90 83 86 89 88 89 79 84 90 94 98 93 83 93 99 98 99 100 100 100 100 95 86 74 72 70
59 61 69 94 70 59 51 86 88 82 75 78 72 77 86 87 91 63 59 59 68 79 90 92 82 85 93 94 93 80 76 85 93 91 92 94 99 99 97 99 99 100 100 100 100 95 94 86 88
35 44 55 67 71 87 95 66 78 71 72 75 75 78 83 85 88 92 83 80 84 88 93 93 77 77 81 94 90 87 86 83 86 88 95 98 98 99 100 99 99 99 100 100 100 100 100 98 95

GFSSGP_925_rhum_081.txt.gz
RH
32 32 20 11 13 10 8 6 4 5 7 7 10 10 8 8 12 20 25 40 36 44 58 44 40 44 48 66 68 64 71 70 64 60 61 66 70 76 78 82 82 84 86 93 95 94 93 91 84
29 22 16 11 14 11 8 5 5 6 4 9 10 11 11 13 10 16 26 39 41 43 60 66 44 46 53 58 69 68 65 70 70 66 66 66 74 77 71 82 86 88 89 89 95 96 94 86 86
33 18 13 11 12 14 8 4 4 5 7 8 8 11 14 13 12 14 29 37 34 36 48 59 53 51 58 62 65 68 68 71 77 74 74 70 77 80 72 76 87 87 86 84 86 95 93 84 86
22 15 12 13 12 8 7 6 4 4 9 7 7 11 11 13 20 21 32 36 34 37 41 61 62 53 61 66 64 65 68 78 86 84 81 80 88 80 72 74 87 86 83 83 88 92 88 85 87
16 11 15 13 11 8 6 6 5 7 8 8 7 8 9 12 17 24 31 35 38 43 48 70 60 51 60 70 67 69 73 92 94 94 92 91 86 85 74 74 85 88 83 89 90 90 86 86 87
18 14 16 14 10 7 6 5 6 6 8 10 9 9 9 12 15 24 31 39 42 50 57 78 72 71 74 78 73 74 78 98 95 93 88 90 80 77 75 72 74 72 75 79 86 88 89 88 86
19 15 16 13 11 8 6 6 8 6 7 7 6 10 10 11 21 24 32 41 50 58 65 79 91 89 85 86 81 76 80 84 90 86 75 78 78 85 95 81 75 75 76 82 85 90 91 88 84
16 16 17 13 12 10 6 7 6 6 7 5 6 11 11 19 23 36 38 41 50 63 68 80 88 91 91 92 89 82 78 80 76 75 70 74 79 78 92 91 96 86 85 79 83 77 91 89 85
15 21 20 15 12 10 8 9 7 6 6 6 8 9 9 19 20 35 38 41 43 57 68 91 96 89 83 83 86 86 84 78 78 76 74 74 89 86 81 65 88 94 88 80 78 67 84 82 88
17 20 17 11 10 10 9 9 9 9 10 10 8 7 8 19 17 26 36 39 40 50 60 86 98 86 82 70 86 88 87 85 85 76 85 83 96 98 78 78 61 84 85 77 76 70 69 83 96
16 20 13 10 9 10 12 11 9 10 11 10 12 10 9 11 12 21 27 34 38 44 53 61 96 88 88 72 84 80 74 75 80 80 87 88 97 98 78 74 81 90 81 87 84 77 71 87 82
18 15 14 12 11 12 14 12 11 10 11 9 9 9 8 9 12 14 19 27 32 39 46 56 75 73 73 67 90 72 62 72 78 85 92 89 97 97 88 90 93 88 84 81 86 81 88 85 78
12 12 11 12 11 11 12 13 13 12 10 9 9 10 10 10 10 10 12 20 29 32 43 52 64 67 76 85 94 93 67 69 80 83 93 90 89 93 88 90 94 87 90 75 88 87 91 81 74
11 12 13 12 11 12 14 13 12 11 10 10 10 10 10 10 10 9 11 13 22 30 39 50 70 77 90 97 96 99 94 88 90 87 88 90 90 91 86 87 91 94 94 79 87 90 87 79 71
16 19 15 13 13 14 14 17 16 12 12 12 11 11 11 11 9 8 10 12 14 23 36 51 72 81 79 80 96 96 98 92 95 96 94 90 88 89 86 89 96 98 83 85 89 95 85 68 63
18 18 19 12 12 14 16 21 13 10 10 12 13 12 12 11 9 7 10 11 14 22 36 50 68 80 75 71 86 96 100 97 98 98 91 91 91 97 98 96 99 98 82 94 99 91 81 68 56
20 21 16 14 12 15 16 21 14 12 13 12 12 12 12 11 8 7 9 10 15 24 38 51 71 79 78 75 93 96 97 98 99 99 95 97 98 99 97 99 98 95 92 98 95 90 74 63 62
15 17 17 17 14 19 22 19 15 14 14 15 14 13 12 11 9 7 9 12 19 28 41 54 72 74 76 84 97 92 96 97 96 98 100 100 100 96 99 99 99 100 98 100 95 86 73 61 60
19 19 19 16 14 16 18 17 15 12 12 14 16 16 14 13 10 9 10 14 23 30 44 57 69 73 75 78 86 86 91 92 100 99 99 99 96 99 99 100 98 100 100 99 96 85 73 64 59
22 24 25 18 16 23 24 22 17 15 13 12 12 14 15 14 12 10 10 15 29 35 45 56 69 74 75 71 75 78 87 86 90 99 99 97 95 99 97 99 100 100 100 100 96 94 79 62 61
23 25 24 25 22 21 22 23 19 15 17 15 13 11 12 14 13 11 10 16 32 36 47 55 66 72 74 67 75 82 87 89 93 96 99 98 97 98 98 98 98 100 98 96 88 87 78 67 66
29 21 26 32 31 28 18 30 19 14 14 14 14 14 13 14 13 11 10 15 30 35 45 52 62 68 72 71 76 84 85 82 79 82 90 93 96 97 98 90 100 100 100 96 88 90 83 70 65
30 26 35 33 32 28 24 26 19 15 18 16 15 14 14 14 14 12 11 10 25 35 46 53 58 63 66 68 63 67 63 70 75 77 93 99 99 95 93 100 100 100 100 98 93 90 83 69 62
24 34 35 29 28 39 28 24 19 17 23 22 19 18 15 14 13 12 10 9 20 33 46 56 58 60 62 64 62 63 62 69 74 82 94 98 98 99 100 100 100 100 100 96 92 89 82 71 66
34 39 36 26 39 42 22 28 21 18 28 29 30 27 28 26 24 18 14 13 18 33 49 56 57 62 61 63 65 64 65 77 83 80 91 99 100 100 99 99 100 100 100 99 94 89 80 78 71
30 35 36 44 38 45 36 33 34 30 28 30 30 35 37 41 40 27 18 18 25 35 51 56 56 65 62 64 65 64 64 69 71 76 79 94 99 99 99 100 100 99 100 98 98 90 85 81 76
35 41 27 40 36 40 28 20 26 35 35 34 40 43 50 53 54 42 22 28 31 43 69 66 56 76 68 63 62 62 65 71 75 81 87 88 93 99 99 100 98 100 97 94 93 93 91 86 83
33 36 65 51 62 49 28 27 75 60 53 55 59 61 65 69 73 67 31 34 38 61 80 82 70 81 73 65 61 72 73 75 81 85 86 86 89 91 99 99 98 100 99 98 99 98 93 90 83
40 47 48 57 58 60 55 77 71 70 68 69 62 64 76 82 84 80 75 47 58 76 84 89 81 82 81 80 70 75 77 74 82 84 84 82 85 92 94 98 99 100 100 99 98 94 83 79 79
24 36 43 68 49 52 60 66 68 65 67 68 63 69 76 80 84 85 90 89 79 85 89 88 82 82 85 80 80 77 75 79 81 82 79 82 86 94 94 94 98 99 100 100 100 99 96 87 87

GFSSGP_925_rhum_084.txt.gz
RH
14 26 30 19 16 14 13 9 6 6 4 5 6 9 9 7 16 26 32 33 48 59 35 40 43 50 59 62 66 69 68 67 65 61 59 60 64 67 67 70 76 78 84 92 95 87 87 74 66
31 27 21 15 17 16 12 7 7 5 4 8 9 10 9 10 8 22 32 34 42 54 34 36 39 42 48 62 65 68 73 73 71 65 61 63 64 67 70 77 83 84 85 92 94 94 92 86 78
28 20 18 17 16 16 14 8 7 4 6 7 8 6 9 11 8 19 33 35 39 50 54 47 36 39 42 48 65 71 71 76 76 73 68 65 63 64 69 74 81 85 87 90 95 96 89 82 83
24 23 16 19 16 11 9 8 6 5 5 7 7 7 10 11 18 21 33 32 32 42 51 51 36 39 44 49 58 67 73 75 80 81 76 76 72 65 68 72 78 85 87 84 90 91 85 81 83
16 17 22 19 16 11 8 7 6 6 6 7 8 8 9 11 14 26 34 30 33 40 48 60 59 45 48 58 66 70 72 78 91 90 87 85 78 70 69 71 74 85 83 84 90 89 81 82 81
23 18 21 19 15 10 8 6 6 5 5 6 8 8 8 7 13 21 32 34 38 47 60 66 74 60 60 70 71 71 74 83 88 89 89 88 87 77 74 71 72 76 74 76 75 78 83 82 82
25 21 23 18 15 12 9 7 6 6 6 6 6 11 9 8 14 24 31 37 44 50 63 78 73 72 72 76 77 75 79 84 95 88 90 90 91 87 82 83 85 98 84 79 75 80 84 82 80
23 22 23 18 16 14 9 7 6 6 7 6 5 8 8 15 23 31 32 38 47 58 66 82 83 77 78 77 80 79 78 83 84 89 88 84 82 82 81 78 60 77 93 87 86 81 86 81 74
18 27 27 21 17 14 9 9 6 6 6 6 6 7 9 18 20 31 34 35 48 61 68 82 86 89 90 91 82 79 81 82 83 80 79 80 78 80 82 72 73 84 80 96 89 79 68 72 72
20 28 25 17 14 13 10 9 9 9 8 8 7 7 8 13 16 20 36 39 43 61 66 81 83 85 85 80 82 80 83 82 82 82 79 81 81 86 97 88 78 66 90 88 88 79 66 70 71
15 22 18 15 12 10 10 11 9 11 11 10 11 11 10 13 17 25 23 31 39 49 60 84 84 87 84 69 81 78 83 86 85 81 79 85 93 94 93 82 74 65 77 89 84 74 68 72 74
16 13 12 12 12 12 12 11 12 12 13 9 9 9 10 10 18 22 23 24 32 39 51 72 84 84 86 71 74 75 80 79 78 79 82 89 98 99 88 88 73 70 92 94 86 83 70 71 81
12 11 10 11 11 11 11 12 12 12 10 9 8 9 10 11 11 11 12 14 21 33 42 55 75 79 82 73 78 78 70 69 70 78 86 93 97 98 91 86 80 83 93 88 94 83 71 74 78
11 11 10 9 10 10 11 11 10 10 9 9 9 10 10 11 11 10 10 11 17 24 39 50 65 71 73 81 87 83 74 75 75 80 84 93 90 93 96 95 95 97 91 89 87 77 76 76 77
16 18 16 15 13 13 11 14 13 11 10 11 11 11 10 10 10 11 10 11 13 20 28 50 60 67 77 88 96 87 80 91 84 87 86 91 85 88 91 91 94 93 92 87 78 75 77 87 86
19 17 20 13 10 10 11 18 12 9 10 12 12 12 12 11 11 11 11 10 11 17 24 54 69 74 83 87 93 90 91 98 83 78 82 91 91 86 89 91 91 94 96 87 80 82 88 94 88
21 27 20 16 10 10 11 18 13 11 12 13 13 12 12 13 12 11 11 10 9 13 21 55 71 79 80 79 88 92 91 94 84 83 86 83 89 90 88 92 95 86 92 91 83 90 97 97 89
22 20 17 16 12 13 14 16 15 13 12 14 15 14 14 14 13 12 12 9 9 11 30 60 72 79 78 78 93 90 91 94 95 92 88 81 90 92 92 89 93 98 98 91 97 100 99 90 82
20 23 23 18 13 15 16 15 14 12 11 12 12 13 16 16 14 11 10 9 10 16 41 66 74 79 79 93 90 95 95 92 89 84 85 93 94 95 97 98 99 100 99 93 95 100 96 91 70
19 20 21 17 15 18 17 16 16 17 17 14 12 12 14 17 16 15 13 11 17 29 42 65 73 77 77 84 86 80 85 92 84 85 92 98 97 98 98 99 100 100 100 100 96 93 100 94 70
21 22 22 21 17 18 24 23 18 15 14 15 14 14 12 14 17 16 15 16 24 31 46 59 69 73 74 72 74 75 77 78 78 87 97 95 94 94 97 100 100 99 100 100 100 96 95 89 73
29 18 19 25 26 39 22 38 21 14 14 15 17 17 17 14 12 15 15 15 32 33 46 54 64 68 72 68 72 79 85 84 80 88 88 93 94 95 98 92 100 96 100 100 100 96 92 86 75
21 19 24 27 36 38 34 30 20 14 15 14 15 17 18 16 15 16 16 15 32 34 47 52 64 67 70 69 72 77 82 75 77 80 83 89 91 98 100 97 90 99 100 100 100 100 98 89 80
23 28 26 31 36 52 37 25 24 21 30 30 24 24 29 20 16 15 16 13 25 35 48 53 64 66 68 70 76 77 72 67 72 77 85 92 97 94 96 100 98 99 100 99 99 96 92 87 80
30 37 42 40 36 46 48 59 28 37 36 29 29 38 41 45 51 50 34 14 16 38 50 56 61 63 66 69 68 68 62 64 69 80 91 93 99 100 98 99 100 100 100 98 97 98 94 87 83
29 36 48 46 51 42 35 84 47 34 41 50 49 50 50 54 61 61 59 71 24 42 53 57 58 58 64 68 64 65 68 67 73 80 89 98 100 99 99 99 100 99 99 100 100 97 97 88 86
29 34 26 43 38 46 34 43 65 65 49 50 54 55 60 64 67 68 69 74 26 42 56 58 56 58 61 65 65 65 66 68 78 81 85 91 96 100 96 99 100 100 100 100 100 99 95 89 80
27 26 59 80 70 52 29 38 86 83 73 59 58 62 67 70 73 76 80 84 59 54 68 62 60 61 63 65 65 64 68 65 74 79 87 92 94 97 99 100 99 100 100 100 100 100 97 91 87
31 40 38 49 54 69 84 95 92 80 71 64 59 62 73 78 81 80 84 86 92 79 85 81 78 74 66 70 66 68 67 71 79 84 84 84 90 95 98 99 100 99 100 97 97 96 95 94 90
25 27 38 68 55 54 59 66 71 57 56 57 61 64 73 77 80 81 82 86 93 98 95 90 86 86 79 76 76 72 72 81 84 84 83 85 90 94 94 97 100 100 100 100 99 100 99 98 98

GFSSGP_925_rhum_087.txt.gz
RH
11 16 26 33 36 30 27 20 14 12 9 8 11 13 13 12 25 46 54 40 42 47 55 52 48 49 52 56 59 61 63 62 60 58 56 56 55 57 63 71 77 77 88 87 79 83 80 75 74
9 23 33 34 32 32 28 16 15 10 8 11 12 10 11 12 24 42 55 51 44 40 52 53 45 45 50 59 65 66 68 68 66 61 59 58 59 63 65 70 75 75 84 88 87 92 87 70 69
20 31 35 35 35 30 27 15 12 10 8 9 8 8 9 12 30 37 44 48 38 39 44 44 41 39 50 63 65 67 70 72 71 68 63 63 60 63 67 71 74 77 85 90 96 96 78 70 72
27 33 32 35 34 24 17 13 11 10 8 8 7 8 12 18 25 34 41 42 45 35 39 35 36 39 45 58 66 69 71 75 75 74 70 67 65 68 68 70 74 81 83 86 92 89 80 73 75
22 32 41 38 30 22 16 13 11 10 9 9 9 10 10 23 30 34 36 44 46 50 47 34 36 38 44 49 62 69 73 75 77 79 78 76 71 71 71 70 72 79 83 78 91 86 79 78 78
28 34 44 41 31 21 15 12 11 10 9 7 10 10 9 11 34 32 32 41 43 50 56 52 48 40 45 54 61 66 69 73 81 84 86 87 80 77 75 72 73 76 80 80 81 78 82 80 79
40 41 41 36 28 21 16 12 12 11 9 7 7 14 11 31 29 32 34 39 44 52 59 61 55 45 48 63 67 65 68 74 86 86 86 85 89 90 82 81 81 86 85 98 94 76 84 82 81
36 42 45 36 29 25 16 13 12 10 8 7 7 10 9 32 33 34 39 43 51 51 63 66 58 52 57 69 73 71 72 75 87 88 88 92 92 90 85 85 83 78 56 60 93 88 80 83 79
28 46 49 42 32 25 16 16 12 10 8 7 7 7 24 26 26 32 44 56 55 62 62 74 65 60 60 62 71 76 74 77 80 92 92 88 81 83 88 84 86 71 45 56 80 98 79 68 73
26 40 40 28 25 24 18 16 14 13 14 13 9 8 20 21 26 38 40 46 70 67 73 76 78 77 75 78 77 75 74 77 78 79 80 84 83 82 85 85 76 58 59 75 76 99 81 69 71
23 26 22 24 22 19 18 14 14 15 17 17 16 14 12 24 24 28 39 36 63 62 77 76 76 89 87 89 80 80 77 76 75 73 75 82 85 82 88 90 73 76 73 83 73 93 80 68 69
27 20 18 16 15 16 15 15 16 14 16 15 14 12 11 14 27 30 28 23 30 68 68 67 71 71 81 84 80 76 84 83 77 75 81 88 90 87 91 90 87 82 89 84 94 77 83 74 68
18 16 14 14 14 14 14 14 14 15 12 11 10 10 13 15 16 20 20 20 18 50 75 66 73 66 71 82 85 74 86 85 77 80 84 87 91 96 95 93 84 77 81 81 96 76 77 82 73
14 16 16 17 18 16 16 16 15 13 11 11 10 10 11 12 16 13 18 18 16 16 66 68 73 67 65 71 83 70 84 83 81 82 82 85 88 94 96 89 77 77 88 90 82 68 74 80 75
22 25 21 19 18 17 16 18 17 13 12 12 12 11 11 11 10 16 11 12 10 12 28 75 68 72 68 69 82 73 85 81 82 83 84 87 90 93 94 93 90 80 89 97 88 78 79 74 74
31 28 31 20 16 14 15 21 14 12 12 12 11 11 11 12 13 10 11 10 10 9 19 71 72 74 79 76 76 74 88 87 84 81 86 89 88 86 87 96 94 94 92 88 90 81 82 81 84
34 42 33 26 18 16 16 19 16 13 14 16 17 18 16 13 13 12 11 11 11 9 18 75 73 74 77 76 76 74 88 89 91 85 83 86 91 87 81 92 96 97 94 91 82 82 83 88 91
41 34 30 30 22 19 20 20 16 14 13 14 13 12 12 15 17 12 12 11 12 10 22 69 74 81 78 74 85 88 86 90 94 85 77 78 84 89 92 91 91 92 96 91 89 88 87 86 100
27 26 28 25 21 20 20 20 18 14 14 13 14 13 12 12 14 15 14 12 11 11 51 77 83 86 77 92 94 92 88 91 100 86 80 77 80 88 91 92 91 94 92 89 92 94 88 98 100
26 28 28 23 19 20 21 22 21 20 19 17 16 15 14 12 12 17 16 15 14 17 58 81 84 85 86 92 91 93 88 90 91 91 81 77 86 89 88 88 98 99 95 100 99 88 100 100 96
29 31 29 26 23 21 24 26 28 22 20 16 13 14 16 13 15 13 18 19 18 39 70 85 87 84 86 88 85 85 85 89 92 91 80 79 82 92 92 93 100 100 98 100 100 97 92 98 97
34 26 26 24 30 48 33 57 35 27 22 16 28 20 15 14 12 17 18 20 43 66 77 83 84 81 83 82 79 88 95 97 94 84 82 86 92 96 100 99 94 97 99 100 99 100 96 96 93
30 25 28 31 37 45 40 50 38 29 25 18 62 50 26 21 24 21 19 18 38 61 76 80 82 81 80 77 75 80 84 85 82 80 84 93 98 96 97 98 100 99 100 99 100 100 99 95 92
25 34 39 40 42 57 42 55 55 41 32 50 67 64 64 63 67 65 63 67 51 58 71 77 81 80 76 74 76 80 81 83 80 85 93 94 90 96 98 98 100 99 100 100 100 100 99 96 94
30 43 72 61 62 60 38 49 61 79 73 65 67 67 71 70 70 72 78 81 80 76 67 77 78 79 77 72 76 79 77 79 78 87 93 95 95 96 99 99 99 100 100 100 100 100 100 99 96
40 46 73 73 70 59 37 52 69 87 67 57 62 63 72 75 76 78 81 84 87 79 68 73 78 78 77 75 75 73 75 75 75 80 85 86 82 98 97 90 97 98 99 100 99 100 100 99 95
40 46 38 54 51 62 43 33 67 70 74 72 60 64 74 77 80 81 80 82 92 72 67 76 76 76 79 74 77 79 73 71 75 74 80 82 88 99 98 96 99 100 100 100 100 100 100 98 92
33 34 69 85 91 81 46 76 98 84 69 72 72 72 78 79 80 79 82 86 94 99 94 88 74 77 78 74 72 71 66 65 75 81 86 87 93 98 100 100 100 100 99 100 100 100 100 99 98
42 46 47 59 74 87 86 87 88 86 76 76 74 74 82 81 83 82 83 87 93 98 100 100 90 83 77 72 69 72 68 65 76 80 86 90 91 98 99 99 100 100 100 100 100 100 100 100 99
43 50 55 70 68 73 77 90 77 76 75 64 72 73 78 79 81 81 82 84 90 95 98 100 100 93 80 78 75 72 66 65 75 81 88 86 88 93 95 100 100 100 100 99 100 100 100 99 93

GFSSGP_925_rhum_090.txt.gz
RH
18 14 26 34 35 35 32 27 16 14 14 9 13 13 13 12 24 30 58 48 43 43 56 62 58 55 55 54 57 57 57 56 54 53 54 55 59 64 69 72 73 75 74 82 86 79 83 79 76
12 20 35 40 41 37 33 22 17 14 12 11 10 11 11 12 38 69 65 61 39 39 52 57 57 57 56 57 60 61 61 59 57 55 56 57 62 64 67 73 75 87 86 96 98 91 81 79 77
17 35 40 43 44 35 28 19 16 13 11 11 11 8 10 20 48 58 47 49 41 45 49 52 55 58 59 58 61 63 63 62 60 58 58 62 64 64 67 70 69 87 87 93 99 98 81 72 73
28 35 42 44 43 32 22 16 13 15 12 10 9 8 12 24 40 40 51 46 43 47 48 48 50 55 62 61 62 65 66 67 65 63 61 63 67 68 68 69 76 81 87 89 93 92 75 72 72
23 42 49 49 43 32 23 19 18 17 14 12 10 10 12 29 36 42 47 35 32 39 41 44 55 63 63 63 62 65 68 71 69 69 68 67 68 71 71 72 72 76 78 77 78 78 78 75 78
29 39 54 49 34 27 24 19 17 16 14 12 12 11 11 36 50 55 47 37 25 30 38 43 46 48 50 59 63 64 67 71 72 72 73 74 73 76 73 74 76 79 82 82 84 84 80 73 82
33 51 53 44 37 30 23 18 17 16 16 12 10 14 14 34 43 49 45 42 40 34 38 44 49 46 48 53 60 62 67 70 73 75 78 77 80 80 79 76 80 82 83 79 80 75 88 76 80
45 52 52 45 40 39 24 20 15 17 15 13 8 10 11 36 44 53 56 55 57 59 51 49 47 48 59 66 65 64 67 69 75 82 84 82 89 91 86 81 81 79 76 77 74 67 81 84 74
31 56 65 54 46 38 27 25 19 13 14 15 14 11 21 38 47 66 82 86 76 70 67 61 55 51 61 68 71 70 70 76 77 87 88 89 95 96 90 85 82 80 75 79 71 62 61 96 75
33 50 51 40 36 33 27 26 24 17 16 17 16 17 25 36 48 59 74 89 94 82 72 64 54 48 60 72 76 76 73 80 77 86 91 93 90 88 91 87 85 88 78 66 68 62 74 90 81
29 36 29 24 22 24 26 26 21 20 19 16 19 18 14 23 35 50 57 73 70 63 76 71 63 49 52 67 74 78 76 78 77 85 89 86 87 85 89 91 93 92 70 70 73 82 88 91 86
30 24 22 20 18 19 19 17 19 18 18 15 16 14 14 15 28 38 50 54 71 76 59 66 67 59 54 62 79 74 74 76 77 79 82 80 84 85 89 88 84 80 69 69 80 69 85 86 86
28 26 23 21 20 19 17 19 18 17 15 15 13 12 13 15 19 14 23 35 55 80 76 70 72 67 63 72 81 77 76 74 73 78 81 77 78 81 81 86 82 81 81 85 77 76 86 82 84
17 17 19 19 19 20 20 21 18 16 15 15 14 14 14 14 15 17 14 18 29 68 78 71 83 71 69 70 84 79 74 77 79 80 86 80 79 80 84 92 93 90 93 90 81 76 74 80 84
26 31 29 23 19 20 16 18 18 15 16 16 13 12 12 12 14 15 12 12 14 26 56 73 72 73 73 73 81 78 78 88 86 83 88 86 85 85 87 93 95 90 94 95 96 81 76 78 79
31 32 39 24 20 19 18 26 17 14 14 14 13 12 12 12 12 10 11 11 10 15 44 52 70 78 76 68 82 77 84 83 92 87 89 87 87 88 91 91 89 86 86 100 100 98 87 76 72
39 50 41 32 21 23 22 27 19 18 16 18 18 18 18 17 16 12 11 12 11 10 17 56 76 81 79 76 80 79 84 80 90 86 86 88 89 91 91 88 87 85 92 100 100 95 82 85 83
48 45 40 38 26 22 26 25 20 18 18 17 17 18 16 15 15 13 12 12 12 11 13 45 65 79 92 84 87 81 87 89 85 87 87 89 90 90 94 84 84 91 99 100 100 96 82 84 82
33 36 37 29 23 25 24 24 20 18 20 20 20 18 16 14 13 12 12 11 14 14 17 56 83 94 97 97 96 93 94 94 94 89 90 88 86 89 92 87 91 99 100 99 100 99 91 97 87
32 36 35 28 24 23 23 23 20 20 20 19 19 21 18 16 14 13 12 13 16 17 27 75 82 88 92 87 91 87 90 85 80 94 92 90 89 80 88 91 95 100 100 99 100 96 100 100 99
34 36 36 34 29 26 28 31 29 26 27 24 22 28 57 57 25 15 13 16 15 22 64 82 87 86 93 92 96 90 90 88 88 94 95 93 89 91 92 91 93 100 99 98 100 100 98 98 99
36 30 31 34 36 42 35 55 34 32 28 25 25 71 69 69 70 38 45 50 49 29 50 80 87 92 95 92 93 87 90 94 94 98 97 92 94 94 91 93 99 98 100 98 99 100 97 94 98
31 29 33 34 43 48 39 54 34 44 83 80 72 72 74 72 70 76 80 80 79 60 70 81 92 97 99 92 87 91 93 89 93 94 93 84 80 89 93 98 100 99 99 97 99 99 100 97 97
25 32 41 42 51 64 42 50 57 87 89 72 73 74 78 77 75 75 79 82 84 80 84 87 92 98 98 93 91 88 93 92 94 93 89 86 90 95 97 100 100 93 93 97 99 99 100 99 96
28 48 70 75 69 72 38 51 53 81 74 70 72 83 82 81 79 80 79 84 88 96 88 89 92 94 94 91 90 88 82 86 84 88 89 100 100 100 89 94 100 99 99 100 100 100 100 100 98
41 47 73 82 70 47 41 60 76 74 67 64 79 78 81 85 79 80 80 83 89 96 81 91 91 92 93 90 92 84 79 83 82 81 86 99 97 84 84 90 92 99 94 100 100 100 100 100 100
42 55 40 61 54 73 56 72 72 65 66 74 85 81 81 79 80 79 81 84 91 97 100 93 90 90 93 92 86 79 77 77 80 80 84 88 85 84 86 95 99 99 98 100 100 100 100 100 100
40 43 56 82 81 84 59 53 78 75 72 68 81 87 82 79 79 78 81 86 93 98 100 100 95 90 93 92 85 82 80 74 74 77 87 88 83 89 94 100 97 99 99 99 100 100 100 100 100
48 58 71 67 79 83 87 80 83 80 76 78 77 82 86 84 82 81 82 86 93 97 99 100 100 99 97 94 87 82 84 82 74 79 83 79 84 98 99 100 100 99 100 100 100 100 100 100 100
37 67 88 99 90 81 80 68 71 75 71 76 82 79 82 84 82 81 81 84 90 94 97 100 100 100 98 97 88 80 75 77 82 83 78 81 90 97 100 100 100 100 100 100 100 100 100 100 100

GFSSGP_925_rhum_093.txt.gz
RH
23 17 27 32 35 37 32 26 22 15 11 10 13 14 15 14 22 20 66 56 51 44 54 57 59 60 57 54 54 52 48 47 46 47 51 60 66 69 72 69 68 71 73 88 86 84 81 77 78
17 24 33 39 35 39 29 26 20 14 13 14 12 12 14 14 43 64 65 58 49 41 55 59 59 59 58 56 58 57 52 50 50 50 53 60 62 69 70 71 72 75 79 94 93 93 78 77 77
21 35 39 45 49 38 23 20 19 15 14 14 13 12 13 13 47 61 50 54 56 60 60 62 59 60 60 58 60 62 58 55 54 54 55 59 64 68 71 74 73 81 83 92 96 99 76 79 77
32 38 44 47 45 38 24 19 17 20 17 14 11 14 12 24 55 43 52 54 50 59 60 61 61 60 60 62 64 64 62 59 57 57 58 60 66 67 68 72 75 83 86 87 95 96 76 75 76
26 47 51 56 52 39 25 23 21 22 20 17 15 16 14 23 41 42 44 48 46 58 62 60 59 58 60 62 64 65 64 64 62 61 61 63 66 68 68 72 75 84 84 83 80 79 76 72 73
35 45 58 54 38 30 27 23 21 21 19 17 14 15 14 29 46 54 45 43 44 45 54 53 52 51 59 65 66 65 67 68 67 67 64 65 67 69 70 72 76 79 81 80 81 82 79 75 80
30 50 50 50 41 34 27 22 21 20 21 16 15 17 17 45 60 58 57 53 49 52 48 48 51 56 63 69 70 65 67 69 71 74 73 72 71 72 73 74 76 81 80 80 83 79 75 78 76
51 51 58 48 42 40 30 24 20 23 18 15 14 17 21 31 48 68 68 71 70 61 62 56 49 49 52 61 70 68 67 70 74 78 80 80 79 77 77 77 78 82 77 80 81 76 79 82 79
40 61 77 49 44 41 30 32 25 21 19 17 15 15 21 54 70 75 78 76 71 68 60 58 58 61 57 58 66 71 69 73 75 80 85 87 88 87 84 79 80 82 77 79 80 80 76 74 77
37 65 53 45 37 40 36 35 31 24 26 24 20 17 10 24 57 83 91 96 93 82 63 55 55 61 61 57 62 68 72 76 77 82 90 94 93 93 91 86 85 83 81 80 81 80 82 71 70
32 46 36 31 29 28 27 26 22 25 25 23 21 19 15 10 27 55 72 88 80 76 81 70 64 56 56 61 68 69 76 80 78 83 92 96 97 97 97 94 90 90 86 88 93 82 79 70 79
35 28 25 24 22 24 24 21 22 20 20 19 18 18 14 15 16 22 45 57 80 87 68 71 69 57 48 49 56 64 71 76 78 85 94 98 99 95 94 95 94 94 90 82 75 72 78 86 86
31 27 26 26 27 26 24 24 21 21 18 17 17 16 16 19 17 11 12 16 50 77 92 74 71 59 52 58 56 58 60 65 70 79 96 94 91 96 90 96 99 100 94 78 82 82 81 89 93
19 19 22 21 21 20 23 23 20 19 16 17 17 18 17 17 19 15 12 13 20 41 70 89 80 70 61 56 52 55 59 59 65 78 88 84 81 93 96 94 100 100 96 79 80 71 87 85 82
28 34 32 29 24 21 20 22 22 17 17 17 17 15 14 16 16 19 12 12 11 15 26 70 85 80 74 62 66 70 66 68 68 77 82 82 81 85 86 89 100 100 100 97 84 87 88 81 84
30 33 40 28 26 23 19 27 21 19 18 19 18 16 15 15 15 12 12 12 10 12 22 52 74 92 86 76 74 75 73 74 76 77 81 82 80 83 84 84 91 100 98 99 92 93 94 100 97
38 46 42 36 26 24 24 30 21 19 19 19 18 18 18 16 16 14 11 11 11 11 12 37 78 88 88 84 82 74 79 78 82 83 82 85 87 91 89 88 91 100 97 99 98 99 92 99 99
45 42 43 42 29 26 28 28 22 20 21 21 21 20 19 18 16 14 12 12 12 11 13 22 59 78 91 96 98 88 86 87 90 92 88 86 91 94 96 94 92 98 99 100 99 100 100 94 98
34 39 42 35 29 29 30 28 24 21 22 23 20 20 20 23 34 40 22 13 13 13 15 18 73 86 100 100 100 100 98 94 88 95 92 89 91 94 96 99 98 100 100 99 100 100 99 100 100
35 39 39 33 28 31 32 30 25 23 24 23 24 38 73 69 66 65 67 45 16 15 15 23 66 79 94 100 100 95 96 98 90 93 92 88 92 94 96 97 96 99 100 100 100 99 100 100 99
38 40 38 39 32 31 31 33 28 25 32 64 71 72 72 75 73 71 71 79 83 66 24 35 63 79 88 100 99 92 100 100 99 96 87 82 94 93 95 90 76 97 100 99 99 98 99 96 100
46 33 34 38 39 47 32 52 33 30 77 71 70 75 78 77 74 72 77 79 84 86 80 46 65 81 95 100 98 93 92 92 93 100 88 87 97 98 97 90 86 98 99 99 96 97 100 98 98
39 34 34 35 42 52 46 56 37 61 76 75 64 66 79 78 76 78 73 73 83 91 98 69 77 91 98 100 95 93 88 87 83 98 99 99 100 99 98 93 88 95 100 97 96 100 100 98 95
25 33 40 47 54 67 40 53 56 90 87 76 64 74 81 80 78 74 72 77 82 90 97 88 86 96 99 100 97 90 87 92 93 99 100 100 100 100 99 94 89 96 100 99 98 98 100 99 98
29 40 59 61 71 70 44 54 53 85 74 72 71 85 81 83 81 75 76 80 84 88 96 98 96 96 100 99 100 90 89 86 86 99 100 100 100 100 100 98 98 99 98 96 99 94 98 100 100
39 43 62 68 77 50 40 63 54 74 70 70 81 81 78 81 80 77 78 82 87 91 97 100 97 97 98 100 98 96 90 92 84 88 95 95 98 100 99 99 99 98 99 98 97 100 100 99 100
40 50 38 50 53 69 57 56 74 73 64 71 82 83 86 83 82 78 78 83 90 94 98 100 100 100 100 99 100 100 97 87 88 87 82 91 99 98 99 94 90 88 97 100 100 100 100 100 100
38 47 71 90 92 86 64 59 69 69 68 71 89 90 87 81 78 76 78 84 90 95 99 100 100 96 100 100 98 100 95 88 81 82 88 84 83 89 91 96 94 96 96 98 99 100 100 100 100
43 48 71 81 83 91 86 79 74 69 75 86 85 88 90 84 81 78 79 83 90 95 98 99 100 99 100 99 100 98 94 90 84 83 83 85 87 89 90 88 97 100 98 99 99 100 99 100 100
42 78 82 97 93 86 95 85 82 86 80 79 83 82 83 82 82 80 79 82 89 93 97 98 100 100 100 94 99 99 92 86 85 82 85 87 89 91 92 95 98 100 99 100 99 99 100 100 100

GFSSGP_925_rhum_096.txt.gz
RH
22 17 28 29 25 36 30 18 24 18 12 12 15 14 15 14 17 26 61 61 60 40 48 52 54 56 54 54 51 46 46 49 49 49 53 58 60 62 60 62 60 64 74 91 88 81 81 77 76
17 27 31 40 24 26 19 26 21 16 12 16 16 13 15 16 22 51 62 63 62 44 52 53 55 56 56 56 53 50 48 51 52 50 52 56 62 66 67 68 64 70 75 80 89 83 81 79 78
22 33 35 44 42 26 20 19 18 16 18 18 15 12 14 14 33 55 47 51 57 48 50 53 56 58 59 59 57 53 52 54 54 53 56 60 66 71 72 71 73 76 80 77 96 86 79 77 77
34 39 44 40 42 39 23 18 22 24 20 16 13 19 14 10 35 42 53 49 54 52 53 53 56 59 60 60 59 57 55 57 57 56 60 64 69 74 74 74 73 77 81 83 91 93 78 78 75
31 48 48 52 50 38 31 24 23 26 23 20 18 18 17 13 36 43 54 46 42 47 53 56 58 60 61 61 61 60 60 60 60 60 59 62 65 68 72 77 77 79 83 84 90 90 78 78 77
38 48 52 44 39 33 28 25 23 22 22 21 17 18 17 18 47 64 83 79 61 54 57 60 60 62 63 63 62 63 64 64 63 62 61 63 66 66 70 75 75 84 86 83 86 82 77 78 78
31 45 44 45 42 36 28 22 23 22 27 19 17 21 16 20 43 61 86 87 70 66 65 66 65 65 65 62 61 64 65 66 67 66 66 67 71 71 72 75 79 84 83 81 84 81 81 77 76
40 40 51 51 43 39 28 23 22 27 25 17 15 20 22 22 67 75 75 82 86 76 75 81 90 78 68 64 61 61 64 67 69 72 72 71 74 76 76 78 83 81 80 82 83 81 80 78 80
48 63 73 47 45 35 31 34 28 23 23 22 18 18 18 32 75 78 75 78 87 86 90 99 100 97 84 78 69 68 68 65 71 74 77 80 80 80 79 81 85 85 82 81 83 81 76 73 75
50 76 53 47 35 36 37 39 34 27 28 28 26 22 15 16 63 78 89 90 88 91 89 86 96 98 94 78 78 76 74 72 70 74 80 83 86 86 82 83 86 87 83 82 82 81 76 77 80
36 52 44 36 36 34 30 29 26 28 31 26 25 21 22 16 18 66 73 78 76 83 80 87 88 71 71 77 80 80 81 76 73 71 80 85 92 95 93 90 96 92 88 86 87 84 86 77 82
35 34 31 31 31 28 28 23 24 24 23 20 21 21 20 19 20 24 52 47 60 70 64 73 77 91 65 65 69 83 82 74 72 75 81 90 97 99 100 100 98 93 91 87 90 92 91 85 79
37 34 31 28 28 30 29 31 28 23 19 20 20 19 20 20 20 15 13 12 13 55 60 64 66 79 85 78 73 74 80 69 75 81 79 86 94 100 100 100 100 97 94 92 97 94 88 86 80
22 24 22 23 23 23 23 25 24 22 19 19 18 19 19 20 20 17 15 13 12 12 29 52 67 66 80 84 81 77 82 72 76 77 86 86 91 99 100 100 100 99 98 92 88 80 94 96 98
28 36 32 31 29 30 22 26 25 20 17 19 19 18 18 18 16 18 14 14 11 11 10 21 51 65 71 73 71 69 64 77 74 79 88 93 92 94 99 97 98 99 99 99 89 86 95 100 100
30 35 40 30 27 25 23 31 21 19 19 22 20 19 18 19 18 15 14 14 12 13 12 12 26 67 77 75 70 71 66 59 66 72 85 97 94 86 99 100 97 97 99 99 95 89 100 100 98
39 49 42 36 27 27 24 31 23 21 23 23 22 22 21 19 19 24 36 35 26 16 13 12 23 58 81 81 81 77 67 71 71 74 81 93 98 86 93 97 100 99 98 99 100 98 100 100 100
49 47 43 40 29 28 32 32 27 24 22 24 24 25 25 38 46 61 63 64 59 49 21 14 17 54 77 96 100 98 92 81 76 80 80 88 99 90 90 92 100 98 99 100 100 98 100 99 100
35 39 44 38 32 31 34 32 30 26 25 27 30 52 81 77 67 63 65 71 77 66 57 20 17 45 93 97 100 100 99 100 100 95 81 82 97 86 93 96 100 100 99 99 98 99 100 100 100
34 38 41 35 31 34 36 34 30 29 26 50 76 78 80 79 70 65 67 74 80 84 79 68 26 35 84 93 98 99 100 100 100 100 100 82 91 87 94 100 99 98 99 100 97 98 100 100 100
41 42 41 40 34 33 36 42 29 25 56 68 68 70 73 80 78 74 71 74 75 82 89 88 76 57 71 93 100 99 100 99 99 100 99 99 97 88 98 100 99 98 99 100 99 100 99 99 100
49 39 38 41 44 52 32 54 28 48 59 71 66 67 84 82 78 75 75 73 74 80 89 92 95 82 89 99 96 97 91 90 96 100 96 92 92 97 94 100 100 100 99 99 99 99 99 100 99
45 38 42 42 47 54 46 53 48 65 68 69 67 75 89 84 84 80 72 72 76 82 89 94 97 94 91 100 98 99 94 90 99 88 32 42 99 86 94 98 98 100 100 100 99 100 100 98 99
28 34 41 52 56 61 47 51 52 51 73 73 68 79 75 78 74 73 70 74 79 85 92 95 99 100 96 96 99 100 93 95 100 100 96 100 100 83 97 98 93 100 99 100 99 100 100 100 100
32 39 53 55 68 61 48 56 50 52 69 74 79 84 84 80 78 76 74 76 81 86 93 97 99 99 99 92 97 100 94 94 95 100 100 99 100 99 100 88 98 99 100 100 100 99 100 100 100
43 42 58 64 71 60 41 60 51 63 66 74 85 84 82 83 77 77 80 79 83 88 94 98 100 100 97 93 96 99 97 94 89 96 99 100 100 100 100 98 99 100 98 98 99 100 94 96 100
45 51 46 54 58 65 55 50 48 73 75 90 87 84 86 84 81 78 80 84 85 91 96 99 100 100 100 99 98 100 93 92 93 97 99 100 100 99 98 97 97 99 94 99 100 96 99 100 99
36 44 75 86 86 75 63 59 66 73 79 90 89 91 88 82 80 79 77 82 87 93 96 99 100 100 100 100 100 100 100 95 93 91 100 100 100 100 97 98 98 100 100 98 98 98 100 100 100
37 53 77 81 88 97 93 82 91 96 95 93 86 86 87 86 84 81 82 83 88 93 96 98 100 100 100 100 99 99 100 99 98 95 100 95 88 97 99 99 99 99 99 100 100 99 99 100 100
44 82 75 93 92 88 94 85 86 88 89 86 88 84 82 83 82 80 80 82 90 93 96 97 99 100 100 100 100 100 100 91 75 100 95 90 81 90 97 98 100 99 99 100 100 100 96 100 100

GFSSGP_925_rhum_102.txt.gz
RH
29 26 24 18 14 10 9 8 7 9 9 9 9 11 10 9 10 12 10 52 61 58 71 68 60 57 53 53 50 54 60 60 58 57 51 50 54 58 61 61 68 77 89 90 90 78 72 76 74
24 23 19 13 12 11 9 7 8 7 9 11 11 11 11 12 11 15 20 46 62 57 70 81 62 56 52 50 50 55 61 59 60 62 58 58 58 60 60 58 64 73 86 85 77 72 72 75 74
24 23 14 13 12 12 10 8 8 8 11 10 11 10 12 13 14 19 26 45 58 60 65 68 56 53 52 49 49 54 58 61 61 62 62 63 62 62 60 56 59 67 87 87 82 74 74 76 72
18 14 13 14 14 11 11 9 10 10 10 10 11 12 11 14 19 21 35 61 62 61 62 67 61 52 52 49 48 50 54 60 64 66 66 67 66 63 61 59 62 74 85 84 91 85 75 75 74
18 13 14 16 14 12 12 11 10 10 11 11 12 11 13 12 15 26 41 64 71 67 67 79 76 61 54 51 49 49 51 55 58 60 62 64 67 66 64 65 67 73 81 80 87 88 79 78 76
15 15 17 16 13 11 13 12 12 12 12 11 14 14 13 13 14 27 42 64 79 76 78 81 92 71 59 53 54 52 53 55 56 55 56 60 66 68 68 70 70 73 77 79 85 87 80 80 78
16 17 17 15 14 14 14 14 14 14 14 14 15 18 13 12 14 26 42 64 82 85 84 85 94 87 64 58 57 57 58 58 57 58 58 60 66 70 73 76 74 74 76 80 85 86 81 80 79
14 15 16 16 16 15 12 14 12 14 13 16 15 16 17 14 13 19 35 56 74 87 91 91 96 99 93 90 66 64 63 62 61 61 61 64 69 74 78 77 78 75 75 78 81 83 84 78 80
14 16 17 14 15 14 12 15 13 17 18 15 16 15 15 13 13 13 20 36 66 80 85 98 100 99 99 91 87 75 72 69 67 66 66 68 82 84 85 85 87 78 75 82 81 81 80 79 81
18 16 15 11 12 13 12 16 13 16 13 14 15 12 12 12 13 14 14 19 54 66 79 85 96 99 98 100 98 96 89 89 88 85 88 86 79 78 75 81 91 80 81 86 83 76 79 76 88
16 20 15 16 16 13 13 14 12 14 16 14 16 14 12 13 13 15 14 12 25 50 65 74 86 92 96 99 99 100 95 90 87 84 81 83 78 77 82 79 91 90 92 85 85 88 82 82 82
17 15 14 13 12 16 15 13 13 12 13 11 11 12 12 12 13 12 12 12 13 19 37 61 75 86 93 89 93 97 99 99 99 98 98 92 93 75 76 73 78 82 81 77 78 76 78 81 80
20 13 12 12 12 13 12 14 15 14 12 11 11 13 12 12 12 11 11 12 13 14 17 31 62 78 81 90 83 84 96 93 90 100 100 99 99 90 76 72 80 80 76 83 81 86 90 88 88
13 16 15 17 17 16 19 15 15 15 12 13 13 13 12 12 12 12 12 15 18 19 19 21 35 59 75 81 80 77 80 75 90 99 98 100 99 86 97 93 93 72 80 86 89 95 88 90 87
17 20 16 16 16 15 16 18 17 15 13 14 13 12 12 13 13 14 23 29 30 32 34 37 31 39 63 75 78 79 72 76 70 90 99 98 98 98 90 98 95 93 86 94 100 99 98 95 93
21 20 23 17 16 16 19 20 16 12 14 13 12 13 14 13 18 28 38 38 38 39 43 48 47 42 40 59 67 72 73 76 69 75 97 100 98 98 99 99 98 100 96 98 99 100 99 99 96
22 24 22 19 18 18 20 19 14 13 14 15 14 14 14 18 27 36 40 41 44 45 51 53 55 55 47 42 60 66 71 83 77 74 82 91 98 98 99 99 99 100 98 99 99 100 99 100 95
25 24 21 22 17 19 19 18 15 11 13 17 15 15 19 27 31 38 40 44 47 49 54 54 56 62 63 57 46 63 64 90 81 81 78 85 99 97 99 96 99 99 98 99 99 100 100 99 97
22 21 22 19 17 22 19 15 13 14 16 17 15 22 29 34 34 35 40 44 48 50 55 56 58 62 65 58 41 52 62 81 78 72 78 87 96 99 99 99 100 99 100 99 98 99 99 99 99
25 25 23 18 16 16 18 19 17 16 16 15 17 31 37 38 35 38 42 46 51 54 58 62 62 64 66 65 57 45 53 59 70 71 78 89 95 100 99 100 99 100 100 99 98 100 100 99 97
27 24 22 19 20 22 24 23 18 17 18 27 31 37 41 41 43 41 43 48 53 56 61 66 68 71 74 75 70 60 60 59 72 85 91 94 96 99 100 100 98 100 100 100 99 99 99 99 100
28 19 19 23 29 27 22 21 18 16 24 31 36 41 42 44 43 43 44 49 55 60 67 74 77 78 78 82 75 66 56 55 62 71 89 92 99 100 100 98 98 98 100 99 98 96 99 99 98
26 22 29 26 30 29 25 28 15 17 24 31 38 45 47 47 46 46 46 50 54 65 72 79 84 85 86 89 90 87 66 63 56 64 83 98 100 100 100 100 95 100 98 98 98 100 94 97 99
27 32 30 30 30 39 25 24 16 21 21 29 42 50 52 50 47 45 46 50 55 64 75 83 88 90 92 94 95 94 85 65 58 62 83 99 100 100 100 100 100 100 100 100 98 98 93 97 98
39 36 49 50 46 36 19 22 16 21 31 36 51 54 54 51 49 47 47 50 59 68 77 86 92 94 95 97 99 97 91 71 69 65 78 99 98 100 100 100 100 86 62 77 100 98 96 98 99
40 32 45 52 35 26 29 29 37 50 52 56 56 55 54 52 49 48 49 55 62 72 79 89 96 96 97 99 100 100 85 68 75 74 82 90 95 91 99 99 85 75 47 62 100 98 96 94 98
30 36 23 33 32 34 24 28 54 64 65 61 57 55 55 52 51 51 50 59 66 75 82 95 97 97 97 100 100 100 85 77 87 87 85 86 79 78 82 92 95 89 96 98 100 99 96 100 100
34 27 48 42 46 40 22 22 28 63 60 48 50 55 56 52 52 52 53 62 69 77 84 95 97 97 99 100 100 100 92 95 94 90 88 87 77 82 90 96 98 98 99 100 100 100 98 99 100
28 38 50 46 44 44 38 34 57 56 50 50 48 55 59 57 57 55 56 62 68 74 83 93 95 98 99 100 100 100 100 97 98 99 100 97 98 99 90 83 97 99 100 100 100 99 99 99 99
25 36 35 42 37 43 57 41 50 53 53 51 48 56 59 59 58 56 57 63 68 72 81 89 98 98 99 100 100 100 100 100 100 100 100 100 100 100 100 95 98 96 100 100 99 99 98 99 100

GFSSGP_925_rhum_105.txt.gz
RH
16 22 16 13 14 10 9 7 5 6 7 6 6 7 8 8 8 12 11 29 44 46 70 53 51 56 54 53 51 50 50 52 57 55 45 46 50 52 56 62 67 74 88 88 79 85 87 73 63
23 15 14 13 14 11 8 6 7 6 7 7 8 8 8 9 8 12 16 24 35 45 51 75 62 58 55 53 50 50 48 54 59 58 47 48 52 56 58 62 66 74 86 88 90 88 90 82 77
22 16 14 12 13 12 9 7 7 6 8 8 8 8 10 10 10 14 21 33 39 42 49 69 69 62 58 53 51 51 52 56 59 59 53 50 52 57 60 61 68 76 86 87 84 84 85 78 76
15 12 12 15 14 10 9 8 8 7 8 7 7 9 8 11 14 16 24 34 48 46 50 59 70 65 61 56 54 55 57 60 62 64 62 57 56 59 61 60 65 71 80 83 77 82 79 77 76
16 12 16 14 13 10 8 8 8 9 8 8 8 10 9 10 11 14 23 37 53 54 52 61 66 66 63 57 55 55 58 62 64 63 65 65 63 62 62 60 60 63 79 85 77 76 75 73 75
14 12 17 15 12 9 8 9 10 10 10 9 9 10 10 10 11 14 22 39 61 64 59 73 76 68 64 59 54 55 56 59 63 67 69 69 68 67 64 62 61 62 75 78 78 85 77 74 76
16 15 17 15 13 11 10 9 12 11 10 10 9 15 12 10 13 13 18 33 55 71 70 68 93 86 66 63 60 57 59 58 58 61 67 71 71 70 68 66 65 67 69 73 76 82 81 76 77
12 14 16 14 14 13 9 10 10 11 11 12 12 15 13 11 13 12 13 22 44 66 77 74 80 90 93 91 64 62 60 59 57 58 62 66 70 73 73 72 72 70 72 74 79 80 83 75 77
13 15 17 15 13 11 9 11 9 9 14 12 12 13 12 13 12 11 12 15 34 60 72 81 81 88 86 82 88 68 67 64 63 64 66 69 89 89 88 86 86 74 75 73 75 77 83 82 78
16 18 16 12 11 11 9 10 11 11 12 13 11 11 11 11 11 12 13 13 18 45 62 81 86 93 93 82 79 88 87 84 84 80 82 88 78 74 73 78 87 86 79 74 75 82 81 83 83
16 20 14 12 11 11 12 10 9 10 13 12 12 12 11 11 11 12 12 12 12 25 51 61 76 91 96 90 93 90 73 76 78 80 77 80 73 69 72 67 83 90 93 85 86 93 92 82 74
18 15 12 12 11 11 13 12 12 11 11 9 9 9 9 11 12 12 11 11 12 13 25 50 60 74 82 75 83 80 73 82 69 69 76 71 74 65 61 59 64 77 78 78 74 78 78 75 73
16 14 12 10 10 10 9 10 10 9 8 8 9 10 11 11 11 11 10 10 11 13 14 19 40 58 69 78 68 72 73 75 78 81 85 69 62 62 58 57 56 69 66 74 70 76 75 74 74
13 12 12 12 11 11 12 11 11 11 10 10 10 10 11 11 10 10 11 11 16 20 20 24 25 34 52 63 72 69 69 67 75 70 89 94 86 82 66 59 57 57 66 76 70 72 74 78 79
16 17 14 13 13 14 13 16 15 11 10 11 10 12 11 10 11 11 14 20 21 24 27 34 37 32 37 53 60 65 66 66 59 63 73 92 98 89 69 75 74 64 60 72 74 80 78 83 83
21 20 23 17 14 13 14 21 12 10 11 12 11 11 11 11 12 15 25 25 26 29 35 40 42 46 49 43 50 56 56 65 64 57 66 85 92 85 81 69 83 84 67 80 84 82 86 83 83
28 31 25 20 14 15 15 20 13 11 12 12 11 11 11 12 14 24 28 28 31 32 39 42 46 48 52 55 50 46 54 58 60 61 58 74 82 80 87 74 86 80 76 90 89 89 90 89 81
39 34 25 24 16 16 17 19 14 11 12 12 12 11 11 13 17 27 28 33 36 38 42 43 45 49 54 56 54 49 44 54 58 57 61 66 82 84 89 88 91 90 87 94 99 97 98 96 85
30 31 32 19 14 17 18 16 13 12 11 10 12 13 13 17 23 26 33 36 40 41 44 48 51 53 52 51 49 43 36 40 50 56 57 63 74 87 88 90 92 92 92 93 98 97 98 99 96
35 32 33 27 20 17 18 16 12 11 10 12 12 13 17 24 24 28 32 36 42 46 51 54 55 57 58 56 54 54 50 41 42 48 58 63 72 85 92 90 90 93 94 92 96 96 98 98 97
58 47 33 42 35 19 18 17 15 13 12 12 12 15 24 27 30 30 32 36 42 45 54 58 61 65 66 66 65 61 58 56 54 56 56 61 70 83 92 92 92 95 96 96 96 97 94 92 99
76 43 32 38 32 30 17 29 17 14 15 15 20 27 28 32 32 32 34 37 41 44 54 61 66 70 68 70 73 74 68 53 36 42 50 63 67 79 91 95 91 95 97 97 98 95 92 88 94
63 40 45 41 30 26 25 27 19 14 17 21 25 28 34 36 36 36 36 39 40 46 54 62 69 71 73 78 83 86 85 72 58 48 45 55 71 80 85 98 99 99 97 99 95 94 92 90 92
59 63 42 37 32 46 42 30 22 19 15 20 27 34 40 39 37 36 37 40 42 49 58 66 71 74 79 87 91 92 93 90 76 52 50 53 75 88 93 96 100 100 100 96 90 64 93 89 87
65 87 81 77 70 61 25 28 29 19 14 21 36 39 42 40 39 38 38 40 46 53 61 71 77 80 83 92 97 98 99 98 92 74 59 54 83 98 100 100 100 100 99 76 43 36 92 89 89
59 70 64 75 66 50 30 39 51 36 37 42 42 43 42 40 39 39 40 45 50 56 65 77 81 82 86 95 99 100 100 100 97 83 65 63 76 93 98 100 100 100 98 85 84 94 94 93 93
63 57 36 46 42 44 52 49 56 50 51 45 45 42 42 39 40 42 42 48 53 60 67 80 82 84 90 98 100 100 100 100 97 84 65 72 81 88 95 99 99 100 99 98 98 96 97 96 94
33 36 47 51 68 46 34 40 50 65 51 42 40 41 38 37 40 43 43 48 54 61 66 78 81 88 95 98 100 100 100 100 95 72 68 73 79 87 89 92 100 95 89 91 92 91 93 96 92
30 62 53 59 53 54 48 60 63 59 44 42 40 39 38 40 43 43 44 49 54 61 66 73 84 90 96 99 100 100 100 100 100 88 78 74 75 78 79 89 96 96 94 74 84 84 90 92 94
26 27 41 75 53 65 44 54 51 43 42 34 34 36 37 42 44 45 45 49 55 62 67 71 85 91 96 100 100 100 100 100 100 100 99 84 85 80 80 88 86 91 96 97 79 70 85 91 94

GFSSGP_925_rhum_108.txt.gz
RH
15 16 21 15 19 16 14 9 6 6 6 6 6 6 8 7 8 19 22 26 33 55 55 44 49 51 52 50 50 50 50 51 52 52 47 43 45 46 52 57 66 65 66 76 73 68 71 70 65
28 24 14 14 20 18 12 7 6 7 8 7 7 7 7 8 8 11 19 27 35 46 60 48 52 53 55 54 53 52 52 52 52 55 53 45 47 49 53 57 64 66 84 85 77 79 82 79 66
27 21 15 16 17 18 13 8 7 7 7 7 7 7 8 11 12 13 21 28 40 36 57 68 53 51 58 57 56 52 49 51 53 59 57 46 47 52 52 58 60 64 81 83 87 88 86 88 77
17 12 14 19 18 12 10 9 7 7 7 7 7 8 7 10 13 14 20 29 42 45 44 62 65 58 60 59 57 54 51 54 57 60 59 48 49 54 56 58 59 65 80 83 82 80 80 78 77
15 14 18 18 15 12 10 8 8 9 8 7 7 9 9 11 11 12 20 31 51 55 52 62 62 64 60 60 58 56 55 56 60 60 60 54 52 55 58 59 58 65 77 82 80 74 76 75 76
17 14 20 19 14 11 9 8 9 10 9 9 9 9 9 8 10 13 14 27 50 64 64 60 67 67 63 60 59 59 59 63 65 66 67 64 60 60 61 61 58 60 66 78 84 77 75 74 75
18 18 20 17 16 13 11 9 10 10 10 10 9 11 10 10 14 13 13 15 39 65 68 75 71 73 70 62 63 62 62 64 68 69 69 68 68 67 66 64 60 60 62 77 75 71 76 78 76
14 16 19 17 16 14 10 9 9 11 11 9 11 14 15 13 13 13 12 12 23 59 68 71 82 82 80 68 66 67 65 64 63 68 72 74 76 74 73 69 65 64 69 75 72 72 74 74 78
12 19 21 18 15 13 9 9 9 8 9 11 10 12 12 11 12 11 11 12 16 52 67 69 79 81 89 89 72 69 69 67 66 66 69 72 78 79 82 76 72 71 76 75 74 75 76 78 78
16 20 20 15 13 13 10 10 9 10 11 13 13 11 10 11 11 13 13 14 14 21 66 68 71 83 84 85 86 70 68 68 67 68 70 73 80 92 89 84 80 81 78 79 78 78 78 83 85
16 21 18 16 14 14 13 12 10 11 12 11 12 12 11 12 13 15 13 12 12 15 52 80 69 73 83 79 86 84 83 78 76 78 81 72 80 81 80 81 81 82 87 85 86 83 86 86 85
20 16 16 15 14 13 12 11 12 12 12 10 10 10 10 11 14 16 14 12 11 12 18 61 72 77 76 80 85 90 83 82 83 80 80 84 77 76 77 71 78 78 83 86 87 83 86 86 84
21 18 15 14 13 13 11 12 12 11 9 8 8 9 10 11 11 11 11 11 11 13 17 21 36 63 73 76 85 83 77 77 74 79 79 77 81 75 72 71 69 76 75 82 79 82 85 84 77
21 19 18 15 13 12 14 13 12 11 9 9 9 10 10 11 12 11 11 11 15 19 21 25 33 34 37 66 69 78 76 74 76 75 76 80 75 72 67 65 60 71 63 69 69 71 77 78 76
20 23 19 18 17 16 13 16 16 13 12 11 11 10 10 11 10 11 12 17 19 23 27 34 35 37 45 41 50 67 68 73 72 75 76 75 74 79 71 65 62 57 69 61 67 68 72 77 78
28 27 34 24 19 16 16 23 15 12 12 12 11 11 11 11 10 11 18 24 23 26 34 39 43 47 49 51 49 46 55 64 68 67 71 78 76 72 85 76 68 65 60 66 71 69 77 79 82
32 41 38 31 21 18 18 22 15 12 13 12 12 12 11 12 12 18 26 25 28 31 38 41 43 46 51 54 56 54 47 48 63 66 65 70 83 77 88 87 76 63 66 74 80 80 80 85 84
38 33 29 32 25 21 20 20 15 13 12 14 12 12 12 12 13 27 26 32 35 39 43 46 50 53 54 53 52 53 52 42 45 60 66 64 72 84 83 90 82 81 78 77 86 86 84 87 83
30 32 35 28 23 28 30 29 17 14 14 14 14 12 12 13 24 27 32 37 40 44 49 53 54 57 61 59 57 54 52 50 42 43 57 61 65 78 84 87 86 88 86 81 92 89 86 91 89
34 42 45 40 30 29 35 45 43 15 14 13 12 12 13 15 24 29 32 36 41 45 52 54 57 61 65 65 68 68 67 66 63 60 53 58 57 67 82 86 90 88 90 88 94 95 98 92 83
34 38 46 48 38 34 39 55 44 23 14 11 11 11 13 24 29 30 31 37 40 45 51 56 60 64 67 67 70 70 69 67 62 56 46 48 60 58 71 88 92 89 86 90 94 98 97 94 99
45 35 40 47 56 81 44 83 47 25 19 13 12 15 26 30 30 31 34 37 39 47 52 58 63 66 66 72 78 82 82 79 77 74 67 50 58 61 65 77 90 94 73 87 85 91 95 86 95
43 56 62 73 77 66 61 65 44 24 28 22 22 28 35 36 35 35 36 38 41 48 56 63 69 70 74 78 83 88 90 88 85 82 77 70 60 63 64 82 91 94 92 84 89 93 94 90 88
57 72 67 70 72 94 58 53 61 42 26 18 26 40 39 37 38 34 36 40 45 51 59 68 74 77 77 80 86 92 95 95 94 92 88 81 71 59 67 69 92 96 94 95 90 67 92 95 86
55 91 92 92 92 68 36 53 60 37 47 24 55 46 40 40 40 38 40 44 49 54 61 69 76 78 79 83 90 95 98 99 99 98 96 91 84 75 69 68 86 99 100 90 86 90 98 91 94
53 78 74 90 85 57 41 90 73 70 55 61 67 56 40 41 41 41 42 47 50 56 63 72 77 80 82 88 93 98 100 100 100 100 99 98 89 80 68 83 74 80 94 100 98 86 94 87 86
75 91 57 67 71 94 74 56 56 70 61 65 71 57 40 39 40 43 41 47 52 58 63 72 81 84 86 90 96 99 100 100 100 100 100 100 95 85 74 89 85 100 91 87 97 99 96 73 67
50 46 97 94 88 87 46 56 84 68 64 52 54 44 38 36 38 40 42 48 54 60 64 70 80 86 91 93 96 98 100 100 100 100 100 100 92 84 75 92 99 100 99 97 99 86 81 88 96
36 41 80 97 55 78 60 96 95 92 82 56 42 38 40 40 42 43 45 49 56 60 66 72 80 90 96 97 95 99 100 100 100 100 100 99 99 75 78 90 98 100 100 100 100 96 96 94 90
28 35 70 98 94 90 82 77 84 88 63 36 32 35 38 41 44 45 47 51 57 62 66 73 82 88 96 98 97 98 100 100 100 100 100 100 100 98 77 82 87 99 100 97 97 99 95 92 91

GFSSGP_925_rhum_111.txt.gz
RH
8 15 23 25 30 32 29 20 14 10 10 9 8 10 9 8 16 38 30 35 50 50 44 51 48 44 47 48 48 47 46 48 48 46 40 39 41 40 42 42 49 55 56 57 61 64 65 68 66
10 25 28 27 32 35 29 16 12 11 10 8 8 8 8 12 15 26 29 33 46 52 50 44 53 49 50 51 53 53 51 49 48 49 46 41 42 43 46 46 50 51 52 55 57 56 59 63 60
21 30 30 30 33 35 27 14 10 10 8 8 8 8 10 20 16 24 27 34 41 62 56 49 50 53 52 52 54 55 54 52 52 52 52 44 43 46 48 49 52 55 71 80 71 70 82 80 70
24 22 23 30 33 24 19 15 9 9 8 8 8 9 11 14 14 20 27 34 45 59 66 58 55 53 57 56 56 56 54 54 55 56 56 49 46 50 50 51 51 59 76 81 84 84 80 77 74
26 26 32 32 28 21 15 12 11 9 10 9 9 10 12 14 16 18 24 28 35 62 63 67 61 52 52 58 57 58 55 56 57 62 60 54 49 52 54 54 53 57 72 82 83 76 69 73 74
28 27 34 37 28 19 15 13 11 12 10 10 10 10 10 14 14 14 18 27 41 52 65 65 67 64 56 58 59 58 58 60 62 61 61 59 51 52 57 58 57 59 68 81 83 74 70 70 66
26 31 35 31 25 21 16 12 12 12 13 12 13 14 15 19 13 13 13 18 45 51 67 67 67 68 68 61 60 60 62 64 65 63 64 63 58 56 59 61 61 60 64 70 82 80 72 72 68
23 26 29 26 25 24 15 12 11 12 12 13 12 16 15 18 13 12 11 12 57 62 57 72 75 75 73 70 64 61 62 65 68 70 69 70 70 67 66 66 66 62 62 63 81 81 74 78 75
17 30 30 26 23 19 15 18 13 9 11 11 12 12 13 14 12 12 12 12 37 64 65 76 79 71 77 76 70 65 66 67 69 75 76 76 78 76 75 73 70 66 64 63 75 76 75 77 81
24 34 28 20 18 20 18 17 15 14 14 14 13 13 12 12 13 13 13 15 15 64 68 63 71 77 71 81 77 69 65 65 67 69 73 77 76 74 76 76 75 71 69 70 76 79 78 81 81
24 28 22 20 17 18 19 18 15 15 17 17 17 18 16 15 15 15 13 13 13 41 66 66 66 73 68 91 88 78 66 67 68 68 68 67 70 72 76 74 78 77 79 79 81 83 84 82 80
29 24 21 19 17 18 18 16 17 14 15 14 13 13 10 11 13 18 14 12 12 17 55 73 71 75 74 70 88 85 78 68 67 69 69 70 70 80 87 85 80 79 80 83 81 81 81 79 79
30 26 23 21 20 19 17 16 16 16 12 11 10 10 12 13 13 13 13 12 14 23 34 48 66 69 80 78 78 87 90 85 76 69 68 72 73 70 80 83 83 82 79 80 82 82 80 78 76
30 29 28 23 21 20 21 20 17 15 14 13 12 12 12 15 14 12 12 13 22 29 37 36 40 40 39 64 80 74 77 83 86 84 80 78 78 75 73 77 79 78 79 77 77 82 82 81 79
30 35 30 28 24 23 20 24 22 17 14 15 14 12 13 14 14 14 19 24 31 37 37 41 44 47 49 50 51 61 79 78 73 77 78 81 82 82 76 73 75 73 73 76 73 74 77 84 82
38 36 44 30 27 25 27 36 23 17 17 16 15 15 14 14 14 20 25 30 38 40 42 43 45 47 50 52 54 53 50 54 68 74 70 73 73 77 83 76 73 69 66 74 74 72 76 78 80
46 56 47 39 28 29 30 35 24 28 23 17 15 15 16 17 31 29 29 40 43 45 48 50 52 54 54 54 53 53 51 48 44 51 72 69 69 70 71 76 76 72 72 70 69 69 68 78 80
55 54 44 41 29 38 43 36 27 25 28 24 17 18 18 19 35 36 42 44 46 49 52 54 56 58 59 60 58 55 54 52 53 54 45 51 70 70 72 69 70 70 74 75 77 73 70 78 81
41 41 39 33 32 39 43 42 45 37 36 34 20 16 16 33 41 45 45 44 48 50 52 56 60 64 66 68 69 68 69 64 56 53 55 52 66 70 76 82 74 70 78 81 77 77 87 88 85
34 38 44 38 32 38 43 50 40 35 37 35 30 17 18 39 42 46 48 46 51 54 57 60 65 67 68 75 75 78 79 75 71 65 54 52 51 52 74 81 94 93 84 87 84 77 90 95 91
32 42 43 42 36 41 48 52 45 34 31 31 26 15 17 39 42 46 47 56 55 58 62 66 68 70 74 75 79 81 81 81 84 80 70 63 69 68 64 70 85 95 90 83 79 97 87 97 96
44 36 58 65 74 86 64 85 52 42 38 33 34 23 41 46 43 44 48 56 61 63 64 67 72 75 77 78 82 87 91 92 91 92 89 84 69 74 74 74 77 78 90 80 78 81 72 66 91
56 63 69 72 79 76 68 86 55 40 39 34 42 39 47 46 44 48 51 55 60 62 67 70 76 79 80 82 86 90 92 94 94 94 95 94 91 83 82 74 75 73 80 76 84 87 63 86 90
59 70 65 70 82 95 61 66 59 47 46 58 54 47 46 45 46 48 50 55 59 64 69 74 80 81 82 86 89 94 94 95 96 97 97 97 98 97 90 83 74 75 74 77 92 81 87 95 86
76 79 94 93 97 86 38 64 64 47 53 63 68 72 50 47 51 53 54 57 63 68 73 76 82 84 86 89 91 96 99 99 100 99 98 98 98 99 100 94 73 73 78 75 78 83 78 80 96
74 75 87 94 92 87 64 92 74 77 88 86 80 76 61 50 48 54 56 62 64 70 76 79 82 87 90 94 96 97 99 100 100 100 100 100 100 100 99 100 89 80 57 63 86 88 71 79 90
73 91 57 86 74 90 73 65 68 83 92 90 77 69 58 48 50 53 58 62 66 70 76 81 83 92 94 97 98 98 98 100 100 100 100 100 100 100 100 100 98 88 54 48 90 79 83 88 75
61 57 95 96 93 89 59 74 97 98 100 95 81 56 55 59 52 54 58 63 67 69 73 82 85 89 94 97 98 99 100 100 100 100 100 100 100 100 100 100 98 92 73 46 85 80 83 98 99
59 68 78 88 97 96 85 99 100 100 99 95 82 59 53 53 56 57 60 64 69 72 74 82 86 91 95 97 99 100 100 100 100 100 100 100 100 100 100 99 100 94 87 71 81 91 100 97 98
39 53 61 97 92 98 98 99 92 84 88 79 52 54 55 56 58 59 62 66 70 75 77 80 86 92 96 97 99 100 100 100 100 100 100 100 100 100 100 100 100 88 71 61 70 98 98 97 100

GFSSGP_925_rhum_114.txt.gz
RH
11 16 26 25 30 37 35 25 16 14 9 9 8 9 9 12 18 30 34 41 50 47 43 50 51 51 51 53 54 49 44 45 44 40 37 38 38 38 38 41 50 55 55 55 60 67 72 70 73
12 22 28 32 36 40 35 22 14 12 9 9 8 10 12 20 26 35 33 45 50 50 47 46 50 51 51 51 53 52 51 49 47 44 39 39 40 40 39 41 48 51 50 50 52 56 59 66 66
24 26 31 33 40 40 33 16 13 11 9 8 9 9 16 21 24 30 37 46 53 56 51 48 49 50 52 50 51 54 54 53 51 48 43 42 43 42 43 43 44 46 48 51 54 57 60 64 64
27 25 28 33 36 30 23 20 15 10 10 8 8 11 13 17 21 29 39 44 58 60 59 50 49 49 51 55 54 54 55 53 53 53 49 44 45 46 47 46 46 48 53 68 67 67 80 79 73
26 32 34 35 34 27 21 18 16 15 10 9 9 9 16 22 28 30 24 24 32 51 63 57 56 54 53 54 56 56 55 55 55 55 56 49 46 49 50 50 50 53 56 66 77 81 82 76 74
27 32 39 41 33 25 21 18 16 15 11 11 10 11 19 19 27 30 24 28 29 43 61 66 66 62 58 57 56 57 56 55 55 56 60 57 49 50 53 54 53 54 59 70 80 82 72 71 72
28 34 39 33 32 27 20 16 17 16 14 13 13 15 21 17 14 14 20 36 40 43 50 62 65 66 61 59 60 58 57 55 57 59 62 62 52 50 55 58 58 56 58 70 80 83 73 71 72
28 31 31 30 29 28 19 18 16 17 15 14 12 17 22 19 13 12 12 26 51 54 57 60 66 68 68 68 65 62 60 58 58 62 65 65 57 53 54 59 62 60 60 68 78 82 79 72 72
20 33 41 32 25 24 18 21 16 14 15 15 14 12 15 14 13 12 12 21 67 67 66 69 69 74 76 75 70 68 63 62 66 68 75 73 71 64 61 62 65 66 64 66 70 77 79 75 79
27 38 32 26 22 22 20 20 20 18 18 16 17 16 13 16 14 14 15 14 51 78 78 75 75 77 75 77 78 72 72 68 68 76 80 83 78 75 72 70 69 70 68 65 67 75 79 79 80
27 30 24 22 21 22 22 20 17 19 20 17 18 17 16 15 17 17 14 13 13 20 68 72 66 81 77 74 77 80 76 74 72 71 76 79 79 81 83 80 79 79 76 73 72 78 84 82 78
33 28 27 26 24 25 26 22 22 18 19 15 16 14 14 12 17 20 15 13 13 16 42 72 71 75 82 85 87 78 76 73 72 70 70 73 76 79 81 80 81 76 77 76 75 78 82 83 79
38 33 30 30 29 28 24 24 24 22 19 16 14 13 13 15 15 14 13 13 30 51 72 84 79 84 89 89 91 87 84 77 69 68 67 66 68 68 74 76 75 75 73 77 77 79 82 85 83
36 38 36 31 31 28 27 25 24 21 20 18 16 16 14 15 15 14 16 24 37 44 47 48 50 51 57 74 79 87 92 97 86 77 72 71 69 67 70 76 84 84 79 76 78 79 81 83 84
36 43 38 35 31 29 26 30 30 23 21 20 18 17 15 15 15 16 17 42 44 50 52 54 52 52 53 54 55 56 64 78 92 99 95 89 79 78 75 74 83 84 84 82 82 82 86 87 85
43 44 54 34 28 29 30 41 27 25 27 28 24 22 19 17 16 23 42 48 56 56 52 52 50 49 51 53 53 53 54 55 57 58 71 90 91 85 81 82 78 74 86 85 87 88 92 93 91
52 69 56 43 31 32 35 43 34 28 31 31 33 32 28 20 38 45 56 59 56 54 56 56 53 54 53 52 53 53 54 54 55 57 58 60 61 83 79 76 72 74 81 87 86 92 92 94 94
64 64 54 52 39 36 43 40 31 32 36 34 34 32 30 24 47 56 63 61 59 58 56 55 55 55 52 52 54 52 54 51 53 54 55 56 58 60 91 84 72 70 70 76 90 95 92 87 86
51 54 55 46 34 39 39 39 39 35 36 34 32 32 31 52 54 59 62 63 65 64 62 63 60 65 62 67 67 66 72 65 60 58 59 57 57 58 60 61 94 83 77 73 72 72 96 96 88
56 59 54 37 33 37 42 47 40 36 34 31 32 31 49 53 54 60 67 71 74 71 68 67 67 68 70 74 78 81 77 72 72 70 64 63 64 62 64 70 74 88 97 89 94 82 77 83 84
49 50 44 43 54 45 51 60 43 33 36 32 30 30 43 57 58 62 68 76 76 76 72 70 71 74 77 78 80 82 80 82 80 75 73 68 71 72 71 67 70 73 95 100 96 91 79 73 94
54 55 59 64 70 74 63 80 46 38 38 36 34 55 64 64 58 62 68 76 78 78 73 76 77 80 82 79 84 91 96 96 92 95 95 90 84 78 81 84 76 73 70 86 97 99 92 82 84
60 61 66 70 80 89 68 93 46 37 42 39 61 77 80 76 72 64 68 74 76 76 78 78 78 76 82 88 89 93 99 99 97 96 98 98 98 97 88 88 92 84 68 67 97 100 98 86 84
65 65 64 75 87 99 58 72 70 54 58 63 73 76 76 70 63 62 66 72 77 79 79 84 85 81 87 92 93 95 96 98 98 97 98 99 99 98 100 100 100 98 92 76 87 98 100 90 78
68 72 89 88 86 87 56 67 63 93 94 80 83 86 80 68 70 66 68 72 76 82 81 81 89 90 90 94 97 97 96 99 100 99 99 99 100 100 100 100 100 100 100 97 92 100 100 99 96
77 72 89 90 93 89 58 88 99 95 94 93 84 84 86 77 71 67 68 71 74 82 83 85 87 92 92 95 97 99 99 100 100 100 100 100 100 100 100 100 100 100 100 100 96 96 97 96 95
77 86 59 86 87 96 71 74 76 96 100 99 100 96 96 89 75 75 74 74 74 80 86 86 90 93 96 96 100 100 100 100 100 100 100 100 100 100 100 100 100 100 100 100 99 100 90 96 88
63 64 93 96 96 96 70 92 94 100 100 100 100 100 100 93 84 77 74 74 76 80 83 87 91 95 98 99 100 99 100 100 100 100 100 100 100 100 99 99 100 100 100 100 100 96 94 95 82
73 72 81 81 94 97 95 96 98 100 94 97 99 96 80 68 67 69 74 78 80 79 82 87 92 96 98 98 98 98 98 99 100 100 100 100 100 100 100 100 100 100 100 100 100 94 91 91 82
52 61 74 94 88 97 94 97 95 86 83 74 74 75 73 73 70 69 73 76 79 81 84 88 95 98 99 99 98 98 98 98 99 100 100 100 100 100 100 100 100 100 100 100 100 99 86 85 97

GFSSGP_925_rhum_117.txt.gz
RH
13 19 28 24 29 38 35 27 20 15 12 9 10 9 11 16 19 21 36 44 50 45 44 51 50 51 53 54 53 49 45 42 40 39 40 42 43 48 51 55 57 59 64 68 64 71 75 79 81
22 28 25 32 36 38 30 26 20 16 12 12 10 10 14 28 32 37 39 50 52 48 46 50 51 51 53 56 55 51 49 46 42 40 41 40 41 42 44 50 57 61 61 64 73 77 78 76 78
24 26 28 35 45 38 31 21 22 18 14 10 10 11 18 23 30 34 37 47 54 50 50 50 51 51 52 54 53 51 51 50 46 42 41 41 41 40 41 46 53 56 55 56 61 65 66 71 71
25 25 29 34 36 32 26 23 20 20 16 11 9 12 17 20 27 28 42 52 52 54 52 50 51 50 49 52 54 53 52 52 50 45 42 42 43 43 43 44 49 50 49 49 52 54 57 61 65
26 32 34 35 35 29 23 20 20 20 18 11 9 10 19 27 26 40 41 48 53 57 57 53 51 54 54 51 53 56 56 54 52 50 46 44 44 46 46 45 48 49 50 59 60 60 70 74 73
30 34 41 41 35 28 22 19 18 20 19 16 14 12 20 23 40 38 38 40 50 50 61 59 56 55 56 56 57 57 58 58 55 52 52 47 46 48 50 50 50 52 56 65 69 74 75 72 71
30 36 39 36 34 29 21 18 21 20 20 18 18 21 22 18 27 30 31 35 42 50 55 63 64 64 63 62 60 59 59 59 56 55 57 56 49 49 51 54 53 56 62 68 76 80 75 70 69
32 34 32 32 32 30 20 20 18 18 20 16 16 21 23 19 14 14 23 34 43 47 52 56 65 67 66 64 64 63 63 60 57 56 59 62 57 52 53 56 58 58 62 69 76 83 80 72 71
24 36 43 34 29 25 20 24 18 16 17 18 14 14 17 17 16 16 20 54 58 63 63 63 70 71 71 69 66 67 67 65 62 62 65 67 68 58 56 60 62 62 62 65 74 82 86 80 75
30 41 37 28 23 26 23 24 23 21 22 21 18 17 14 11 14 16 17 30 68 68 64 64 67 74 78 79 79 75 73 76 77 77 79 82 78 71 66 64 64 67 67 68 74 82 86 89 81
28 34 29 24 24 28 29 29 23 21 23 19 22 20 19 16 19 20 18 17 48 45 58 65 72 78 82 84 84 84 80 80 83 88 88 87 92 85 81 75 72 75 76 77 81 88 90 94 84
34 30 30 30 31 34 34 29 29 25 25 19 19 19 17 17 18 23 20 15 16 53 39 72 88 88 87 83 85 87 89 80 82 86 99 100 100 99 92 84 81 81 80 79 78 82 87 93 87
40 36 37 36 34 34 31 33 30 30 24 22 20 18 19 19 18 13 13 17 18 29 72 93 95 97 98 97 99 99 98 90 81 76 78 89 99 99 100 99 96 78 81 83 83 80 82 90 93
39 42 42 37 37 36 35 32 29 26 24 24 23 24 22 21 19 16 14 21 60 80 86 73 70 74 80 80 78 87 96 100 99 94 90 89 88 87 84 88 99 88 83 84 84 81 80 82 90
38 46 43 39 37 34 33 36 33 25 30 31 31 30 29 29 23 19 16 34 64 66 61 56 54 55 60 59 58 61 67 71 78 88 95 100 99 89 90 86 86 78 73 81 84 88 92 92 92
46 48 56 38 31 30 31 44 34 30 28 29 34 34 32 29 29 22 24 57 65 65 60 57 54 51 50 50 52 53 54 57 62 69 73 76 79 95 100 98 93 85 79 71 74 78 100 100 100
59 69 59 46 34 34 36 42 34 27 30 33 38 35 35 32 37 67 69 70 67 67 63 59 54 50 49 47 46 47 50 52 55 56 59 63 67 71 75 92 100 97 92 79 82 88 100 100 100
69 71 60 52 38 40 46 43 31 30 38 39 37 34 37 46 72 69 70 74 75 73 69 61 57 54 49 45 43 41 42 45 51 56 59 59 59 60 63 69 77 98 100 93 88 81 86 78 88
54 59 64 53 44 47 45 41 36 33 39 38 34 33 40 74 69 71 74 76 76 76 73 71 63 62 50 43 49 57 64 58 55 60 66 66 65 61 59 60 62 69 92 100 99 87 78 83 97
61 67 67 54 45 44 48 47 40 37 39 36 35 38 66 70 72 73 78 79 80 82 83 83 83 80 78 74 73 68 70 73 69 66 65 72 74 74 72 70 67 65 67 80 99 99 100 97 82
62 67 64 60 55 52 56 60 41 33 33 32 34 35 58 70 75 76 74 80 83 85 85 83 85 82 83 79 73 68 63 64 71 71 72 78 83 88 87 84 82 80 76 69 71 97 98 98 95
71 49 55 63 66 80 58 77 43 42 53 62 75 83 77 74 72 73 77 82 84 84 82 79 83 85 83 81 85 93 98 99 99 95 92 89 93 94 96 99 99 97 92 89 76 69 98 100 99
56 60 58 66 77 84 82 85 72 66 81 91 86 84 89 86 82 79 81 80 81 85 88 85 82 82 85 89 92 95 96 97 98 98 99 98 98 93 94 98 98 100 100 100 99 85 77 100 99
64 62 66 83 86 98 65 68 77 94 97 89 83 79 79 81 77 75 82 87 88 82 84 87 88 89 88 89 94 97 96 98 99 99 100 99 100 99 99 99 99 99 99 100 100 99 99 97 99
64 68 96 93 96 90 59 75 95 95 95 95 96 96 96 93 94 90 76 78 84 87 88 86 93 96 97 96 98 97 98 99 100 100 100 100 100 100 100 99 99 99 100 99 100 100 99 96 99
78 74 87 91 91 86 68 80 97 96 90 90 94 96 97 100 98 97 96 82 79 83 88 91 93 96 100 100 99 99 100 100 100 100 100 100 100 100 100 100 99 99 100 100 100 100 100 98 98
76 85 61 86 89 97 76 96 98 96 95 93 96 95 98 98 100 100 100 98 86 85 88 91 95 97 99 100 100 100 99 99 100 100 100 100 100 100 100 100 100 100 100 100 100 100 100 100 97
63 63 87 93 91 92 76 86 95 99 100 100 100 100 100 97 98 95 99 99 98 93 92 91 97 100 99 99 99 99 100 100 100 100 100 100 100 100 100 100 100 100 100 100 100 100 100 100 98
74 81 78 81 90 92 95 88 88 98 96 98 99 98 97 96 93 90 92 92 90 94 96 97 99 99 98 100 99 100 100 100 99 100 100 100 100 100 100 100 100 100 100 100 100 99 100 100 99
59 65 84 92 94 90 95 90 75 89 86 86 80 85 88 88 90 89 90 86 83 87 91 98 100 98 98 98 99 100 98 100 100 99 100 100 100 100 100 100 100 100 100 100 100 100 99 100 100

GFSSGP_925_rhum_120.txt.gz
RH
21 23 28 24 26 33 30 25 22 19 19 12 12 11 11 18 31 28 37 41 49 42 45 47 44 48 52 52 45 42 42 41 42 44 45 46 48 49 54 59 59 59 68 88 91 91 88 80 77
23 27 23 32 32 30 26 27 21 19 17 17 12 16 20 27 34 38 43 46 50 44 44 48 49 51 52 53 50 47 44 43 43 44 45 46 48 49 50 52 56 58 64 77 94 91 85 78 76
24 24 27 37 43 31 28 22 24 21 19 14 10 14 19 23 30 40 34 48 49 48 44 48 48 52 55 56 54 50 48 45 44 43 44 46 47 48 47 49 54 57 61 65 78 89 82 70 70
25 25 32 34 33 31 27 26 22 22 19 15 12 12 19 24 28 30 43 52 53 53 51 50 52 53 55 56 57 53 51 50 46 45 44 46 48 48 47 49 52 53 53 58 67 72 70 68 68
24 33 37 36 34 29 26 22 20 23 20 20 18 19 22 27 33 34 49 57 56 56 57 56 54 54 55 55 54 52 51 52 50 45 45 46 47 46 47 50 52 52 53 53 57 59 60 60 62
32 35 40 39 34 28 26 21 20 22 21 21 19 23 21 20 43 50 46 51 53 56 58 58 55 55 53 54 55 54 52 53 53 50 47 47 47 48 50 52 53 52 51 52 56 58 61 69 70
33 38 39 36 35 30 23 20 22 22 23 20 18 24 24 18 24 38 39 39 42 46 53 58 57 57 58 58 57 58 60 59 57 55 53 50 50 50 52 53 54 52 52 61 66 66 76 78 75
34 36 36 35 35 30 21 20 20 21 23 18 16 19 19 18 16 16 26 51 62 61 56 56 60 63 64 65 64 62 62 64 64 62 60 58 55 55 57 58 57 56 55 63 69 77 78 76 72
26 39 44 34 31 27 21 27 21 19 20 21 17 14 15 14 15 14 14 26 50 59 60 65 67 68 70 69 69 71 70 67 68 68 67 70 68 62 68 68 66 62 60 65 69 78 81 78 75
33 44 39 30 26 25 27 28 27 24 26 24 21 19 16 16 13 17 19 17 22 58 52 63 68 71 71 72 73 71 73 78 74 73 74 80 82 78 72 73 73 72 70 70 72 78 85 88 84
31 38 31 26 25 35 36 35 26 26 30 23 26 23 22 18 17 19 17 18 16 16 51 64 72 75 78 78 79 81 82 81 88 90 91 96 99 100 94 82 80 81 80 79 79 84 92 94 93
36 32 31 34 36 36 38 32 31 27 29 23 24 24 23 21 24 22 19 17 15 16 25 66 79 80 82 87 87 84 86 90 91 96 99 99 99 99 97 98 98 88 83 84 82 82 87 87 91
41 40 42 41 39 37 36 38 35 33 29 26 24 24 26 27 26 24 22 21 18 19 20 57 82 92 98 99 98 98 94 90 95 98 99 100 98 99 98 99 97 100 100 92 86 85 85 87 88
42 44 45 42 40 40 40 38 30 29 28 29 29 30 29 29 30 28 26 25 21 26 32 57 84 90 98 98 98 98 98 99 100 99 97 100 100 99 100 98 98 98 100 99 89 86 90 98 99
40 48 46 40 36 36 33 30 33 29 29 29 29 34 34 34 30 32 37 29 58 83 84 84 91 95 93 85 83 82 88 90 96 97 99 100 99 98 99 100 99 99 99 94 81 86 87 99 100
48 51 57 35 38 32 33 43 31 33 28 28 30 33 33 33 46 76 78 79 78 76 75 74 74 70 67 64 63 64 65 66 69 73 78 80 84 88 90 96 99 100 99 96 86 88 98 100 98
64 60 60 50 36 38 39 45 36 30 29 33 31 40 41 38 76 81 84 84 78 74 71 70 68 68 66 59 57 56 55 55 57 58 60 61 64 67 72 76 81 84 98 100 99 80 91 98 100
64 72 64 59 40 42 49 49 40 35 36 36 36 41 40 84 85 82 82 78 76 75 71 67 64 62 61 61 55 48 46 51 54 56 57 59 62 62 60 62 65 68 76 93 100 99 89 86 100
56 55 60 57 48 56 56 48 42 38 40 43 40 41 52 86 80 82 84 84 82 80 80 80 72 71 69 64 59 54 56 59 60 60 63 65 67 68 69 68 65 68 70 71 94 100 100 98 96
63 69 73 62 51 48 52 54 46 44 44 65 83 72 83 85 79 76 81 83 83 84 81 83 88 85 80 82 83 79 74 70 70 68 70 71 76 81 81 82 80 79 79 73 66 90 100 100 94
68 71 70 70 56 55 64 61 50 51 73 79 86 82 81 84 82 76 77 86 89 89 89 85 86 90 91 89 81 69 74 77 78 74 73 78 83 89 93 95 97 98 97 93 80 76 80 100 97
80 60 62 62 68 79 57 84 71 74 81 77 89 86 87 84 77 76 81 83 86 89 92 92 95 80 94 96 98 95 97 95 96 98 95 87 87 89 96 99 99 100 99 98 100 97 90 90 99
66 52 59 66 76 82 77 85 71 83 86 85 91 91 94 95 92 95 96 89 89 93 94 92 92 93 92 95 100 99 99 98 98 98 100 99 97 99 100 99 99 98 99 99 99 99 99 99 97
61 64 65 84 85 94 74 75 76 92 95 95 95 95 96 96 95 94 94 97 97 94 97 97 95 95 93 98 99 100 100 98 98 99 99 100 100 100 99 99 99 99 100 99 99 99 99 98 99
62 69 95 95 95 90 63 77 84 94 95 94 95 97 97 96 96 96 94 93 94 93 94 98 98 98 100 99 98 98 100 100 100 100 100 99 100 100 100 98 99 99 99 99 100 100 100 99 99
78 71 81 94 92 78 69 89 82 85 82 84 84 88 92 96 96 96 98 100 100 97 92 86 92 96 98 99 98 99 100 100 100 100 100 100 100 100 99 98 99 99 98 100 100 99 99 99 100
80 82 68 94 91 96 80 88 93 87 90 92 94 94 96 96 96 92 96 99 100 100 99 95 99 99 98 99 100 99 100 100 100 100 100 100 100 100 99 99 99 99 98 99 99 99 99 100 100
67 64 92 99 94 90 76 81 91 98 98 94 99 100 100 96 94 87 89 94 97 100 100 99 100 100 100 100 99 100 100 99 99 99 99 100 100 100 100 100 99 99 99 100 99 100 99 100 100
78 81 77 81 88 90 92 88 83 87 89 95 95 98 94 90 88 86 88 91 96 96 97 99 99 100 99 98 99 100 99 98 98 100 99 100 98 98 100 100 100 100 100 99 99 100 100 100 99
67 72 77 94 91 92 94 89 80 82 85 86 91 84 84 83 85 81 78 80 83 92 99 99 99 98 99 100 99 99 99 100 100 100 100 99 100 100 100 100 100 100 100 100 100 100 100 100 100

GFSSGP_925_rhum_123.txt.gz
RH
23 26 27 21 18 20 20 20 19 18 18 14 13 11 15 18 28 23 37 42 51 50 45 46 46 48 48 43 41 45 45 46 46 47 50 46 46 50 52 54 55 70 88 79 70 75 74 70 68
24 27 21 22 20 19 18 21 21 19 17 17 15 16 15 20 32 35 37 49 54 43 42 47 47 48 50 48 43 44 46 48 49 46 47 49 50 51 53 56 56 62 88 85 69 73 72 70 70
25 23 19 24 27 20 21 21 21 18 17 15 12 12 19 25 30 38 36 54 53 47 51 52 49 49 51 53 49 45 45 48 50 51 49 50 51 53 52 52 54 56 65 72 62 66 72 72 70
25 20 22 22 24 25 22 21 20 18 16 15 17 14 18 30 34 36 52 54 54 53 50 52 50 50 51 53 54 51 48 46 48 49 52 52 51 54 53 49 51 53 56 64 70 80 75 65 63
23 22 24 27 27 25 23 20 19 19 19 17 17 18 19 22 49 60 60 56 55 54 53 50 52 52 54 55 56 54 52 50 47 48 51 54 57 56 53 51 51 52 56 63 75 90 76 62 60
22 24 26 26 28 25 22 20 18 20 20 17 17 20 17 20 32 46 51 58 58 59 55 52 50 52 54 56 57 57 55 54 53 49 50 52 56 56 55 55 56 55 55 60 73 74 67 58 57
24 25 28 30 30 27 22 19 21 22 21 18 17 18 17 15 16 25 33 40 50 60 62 60 57 55 57 58 58 57 56 56 57 56 51 51 52 54 56 58 60 59 58 57 62 65 62 59 62
24 26 31 29 29 26 21 20 20 22 21 18 17 18 17 16 17 15 15 22 34 46 58 65 67 64 61 62 64 64 64 62 60 60 60 56 56 57 58 62 65 66 64 61 63 66 66 72 73
23 28 33 30 29 25 22 25 24 19 20 21 17 17 16 18 17 17 16 18 20 39 46 61 65 67 68 70 69 69 68 69 70 71 68 66 75 83 84 75 72 72 70 68 76 76 78 83 79
24 32 31 27 25 24 29 29 28 25 25 24 20 20 20 21 19 20 20 22 23 20 28 49 64 70 73 75 76 77 76 78 76 74 79 81 76 76 92 90 77 77 78 77 86 87 91 92 95
29 29 28 24 25 33 32 30 26 27 28 24 25 23 22 22 25 26 24 23 25 20 18 27 48 67 76 78 79 78 81 81 83 87 90 90 97 98 97 96 90 97 92 95 95 96 96 99 98
31 29 28 32 34 34 34 30 29 27 24 24 23 23 22 22 24 25 24 24 24 24 18 16 24 72 78 81 84 88 84 85 92 98 98 98 99 99 98 99 99 100 96 99 99 96 98 96 97
38 37 38 35 36 34 34 34 31 29 25 24 22 22 23 24 24 25 27 28 29 27 27 31 68 76 82 85 90 97 91 93 93 99 99 98 98 96 96 97 99 99 100 100 100 98 100 99 97
40 40 38 36 32 35 34 31 30 29 26 24 22 22 23 25 29 38 53 57 65 73 82 80 92 99 100 98 95 96 93 98 98 98 99 100 99 97 96 97 94 95 97 96 98 100 100 100 100
38 41 37 32 32 32 31 24 28 28 26 24 22 22 22 29 59 74 83 80 84 83 86 88 94 93 99 100 100 100 97 98 99 100 99 99 99 100 99 98 98 95 95 93 93 98 100 100 100
42 43 31 30 31 33 27 30 26 28 26 25 25 24 27 58 74 79 80 80 79 80 82 82 81 79 80 82 86 86 87 89 89 89 90 91 92 95 97 99 100 99 99 100 100 99 100 100 100
51 31 47 36 32 32 33 39 30 27 29 30 28 29 35 68 73 78 78 79 79 81 84 81 75 71 73 77 72 71 70 70 71 69 67 68 69 71 74 78 83 88 90 97 100 100 100 100 100
33 46 52 44 32 38 43 42 36 31 32 44 54 50 70 75 73 74 75 76 75 76 80 83 81 76 71 72 76 74 73 72 71 75 72 63 62 60 59 60 60 64 69 77 94 98 100 100 99
46 47 51 48 42 51 48 44 38 38 67 74 70 71 79 76 69 70 74 76 75 77 77 81 84 84 82 85 81 79 79 84 84 87 86 77 75 72 72 75 66 63 68 77 72 88 99 100 100
54 58 55 52 46 46 44 46 52 67 81 84 82 81 80 74 68 68 73 75 78 82 84 84 86 90 88 88 90 92 93 87 92 90 93 94 98 97 97 96 98 98 97 95 90 90 90 99 96
61 62 62 60 52 47 50 48 65 63 71 78 78 77 77 80 81 75 74 78 83 86 87 90 95 95 98 94 84 83 85 82 82 84 87 94 99 100 99 100 99 98 99 99 100 100 94 88 100
68 55 56 60 56 60 51 61 58 69 71 82 85 93 93 89 82 80 81 80 83 88 91 87 94 99 100 100 94 89 92 93 94 94 93 96 99 100 100 100 99 99 99 99 99 99 99 100 90
52 52 53 56 63 70 61 67 69 66 68 94 90 92 91 93 93 88 86 88 85 85 87 94 91 96 100 100 99 99 95 95 96 95 96 97 99 99 100 100 99 99 100 99 100 99 98 97 99
53 58 62 70 70 77 57 58 63 69 69 88 89 88 88 89 87 84 88 91 96 98 94 90 92 96 98 95 99 97 100 99 98 97 97 98 97 99 99 100 100 99 99 99 99 99 99 99 100
52 61 66 78 86 67 61 70 47 78 74 74 80 88 92 88 88 89 91 91 93 95 94 98 100 100 100 99 97 99 100 99 99 99 99 98 97 98 99 100 100 99 100 100 100 100 99 99 99
64 53 60 74 74 58 62 68 55 72 75 72 76 82 85 90 91 92 89 90 93 93 95 94 94 94 96 100 100 99 100 100 100 99 99 99 99 99 100 100 100 99 99 99 100 99 98 99 100
70 73 52 71 82 87 54 56 76 79 83 85 90 85 89 88 88 87 87 89 91 92 95 99 99 96 98 98 99 98 98 98 100 100 100 100 100 99 100 100 100 100 100 100 100 99 100 99 99
58 54 84 95 85 80 55 59 62 99 99 94 95 98 97 90 84 81 80 84 89 89 96 97 98 98 99 98 99 99 100 100 100 99 100 100 100 100 100 100 100 100 100 100 100 99 100 100 100
67 69 69 69 82 68 56 56 77 88 78 87 87 94 95 85 80 74 74 77 83 88 93 96 98 98 100 99 100 100 100 99 100 100 100 100 100 100 100 100 100 100 100 99 100 100 100 100 100
54 61 64 86 89 93 90 62 67 64 65 75 82 90 80 77 72 67 70 74 77 84 89 93 98 99 100 100 100 100 100 100 100 100 100 100 100 100 100 100 100 100 100 100 100 100 100 100 100

GFSSGP_925_rhum_126.txt.gz
RH
28 27 24 16 14 11 12 15 14 14 13 11 11 11 13 13 20 23 34 44 59 57 71 55 46 49 42 43 44 47 50 52 56 54 48 44 44 45 45 50 58 62 65 61 56 64 67 67 66
25 24 17 13 14 12 13 14 15 14 13 11 10 11 12 20 23 28 29 56 56 62 67 76 51 52 47 40 43 42 42 48 52 55 51 44 46 48 49 52 58 65 66 60 57 65 66 66 66
26 19 13 14 14 12 14 14 15 13 12 11 9 10 16 25 25 30 48 61 58 60 62 76 53 53 53 46 42 44 43 44 48 51 54 50 50 51 51 53 59 74 80 72 66 67 68 68 67
18 14 14 15 14 17 15 15 15 13 12 11 10 12 16 24 30 40 55 56 56 61 65 72 54 52 53 52 47 43 44 45 49 51 54 54 53 55 56 58 59 65 83 86 74 74 66 68 70
16 14 16 16 17 16 15 15 14 15 14 12 12 16 17 20 35 44 51 54 55 61 67 71 54 54 54 54 53 49 45 44 47 50 53 57 57 58 59 62 63 64 70 89 79 69 67 70 71
17 15 18 16 18 16 15 15 14 16 14 13 13 14 15 15 18 26 37 45 58 66 73 76 61 57 58 58 59 58 54 50 47 48 50 55 58 59 60 62 64 65 65 68 70 69 64 72 70
20 20 18 19 20 20 17 15 17 17 16 15 14 15 13 13 16 18 20 33 46 62 77 80 83 74 61 64 67 67 64 60 56 52 52 55 58 63 64 64 65 68 67 67 69 76 73 68 67
18 20 20 19 21 21 17 16 16 18 17 16 14 16 16 16 17 16 16 16 21 42 64 80 85 89 87 86 70 70 70 66 63 62 57 56 60 65 64 64 66 69 71 73 74 77 73 64 61
15 20 16 18 21 20 18 18 16 16 18 18 15 16 18 18 17 17 17 17 21 23 27 51 75 82 87 86 84 70 69 71 70 71 69 68 80 76 82 78 84 73 73 73 73 72 71 68 67
18 20 18 20 19 19 20 21 20 18 16 18 16 16 18 19 19 21 19 18 20 22 24 25 43 69 82 79 83 88 85 85 87 85 84 93 85 79 76 76 81 88 82 82 78 76 78 76 78
20 19 20 20 20 21 21 20 20 19 18 15 21 18 18 17 18 20 20 19 21 21 20 22 29 55 76 71 76 76 75 77 83 90 91 98 99 99 94 81 85 90 87 87 88 93 96 90 74
22 18 18 19 24 24 23 21 20 16 16 15 18 18 16 16 17 20 22 25 27 28 28 44 48 48 67 72 75 74 74 82 86 91 99 97 97 94 96 98 93 81 74 77 78 80 82 81 78
22 21 25 24 25 23 21 21 19 16 18 17 17 16 16 18 24 28 36 39 46 50 58 65 75 94 85 78 77 87 88 93 93 98 99 96 95 98 98 96 95 95 91 88 86 86 83 85 84
29 28 25 22 19 20 24 16 20 20 19 19 17 16 17 29 38 41 47 52 57 60 64 76 82 95 97 99 99 98 97 100 100 99 99 100 96 96 98 98 98 94 93 93 94 95 89 89 93
28 28 20 18 19 21 20 16 20 19 19 18 17 18 23 41 49 56 60 59 61 63 69 75 79 89 95 99 100 100 100 100 100 100 100 100 100 100 100 97 98 98 98 90 87 96 95 96 97
25 27 16 21 20 24 17 10 17 19 18 18 19 23 34 49 56 60 62 60 60 65 70 73 78 82 87 93 88 95 95 98 99 98 99 99 100 100 100 100 99 99 100 100 99 95 95 97 99
29 12 19 18 19 20 19 18 15 16 20 24 28 31 43 49 53 60 59 59 59 64 69 71 76 79 79 72 81 79 83 79 78 77 80 88 89 89 89 86 92 99 96 95 97 99 98 96 97
11 19 23 16 19 22 22 20 20 20 26 41 37 45 48 52 54 59 60 62 62 63 67 73 78 80 78 72 72 71 70 72 70 72 79 84 86 88 83 72 79 83 76 80 90 93 97 100 99
23 22 20 17 21 32 25 25 22 27 39 45 49 55 57 59 56 57 60 61 61 65 67 72 77 85 83 76 75 74 73 69 68 69 80 81 86 91 86 78 76 76 73 72 80 80 81 90 97
29 28 25 22 30 35 24 27 31 45 56 58 56 60 63 62 57 58 57 59 62 64 68 72 80 87 88 82 84 76 77 69 71 72 74 80 86 90 92 100 99 100 97 93 86 80 74 70 86
32 32 26 30 30 28 34 25 46 51 58 61 63 62 65 66 63 57 59 61 61 64 66 66 72 81 90 92 83 74 68 64 66 68 70 80 86 96 100 100 100 100 100 100 100 100 98 75 64
26 27 33 36 37 32 35 28 34 40 54 55 58 64 65 63 60 63 62 69 69 72 75 75 77 76 82 88 84 83 67 63 74 71 76 80 87 95 99 100 100 100 100 100 100 100 100 100 91
27 36 37 38 40 41 32 43 25 38 45 51 53 66 67 68 72 70 74 78 82 83 84 85 80 82 85 88 95 89 85 79 75 74 80 82 85 90 96 99 99 100 100 100 100 100 99 99 100
35 41 43 45 41 46 27 34 19 40 36 45 51 59 63 71 70 74 79 79 79 79 77 80 80 82 88 94 92 92 92 94 90 88 81 82 85 89 92 97 98 100 100 100 100 100 100 99 100
38 41 43 39 48 34 39 39 26 34 40 44 53 57 68 70 76 75 72 71 74 76 78 78 77 75 82 88 92 93 94 90 88 94 95 92 92 93 94 99 100 100 100 100 100 100 100 100 100
42 38 36 39 30 30 41 46 38 41 46 50 50 57 68 80 81 74 73 73 77 74 81 83 78 77 83 87 90 90 92 92 93 97 98 99 96 96 97 98 99 100 100 100 100 100 100 100 99
47 57 32 41 39 61 32 25 58 59 68 61 62 67 76 81 73 75 72 74 77 73 85 88 84 83 86 88 90 93 96 96 95 92 95 98 99 95 98 99 100 100 100 100 100 100 100 100 100
43 35 67 58 61 55 28 28 37 82 90 72 70 77 80 78 76 68 63 66 72 78 85 89 87 91 91 93 93 92 95 96 95 93 95 96 96 98 99 100 100 100 100 100 100 100 100 100 99
52 55 52 46 47 50 42 36 64 78 61 72 68 71 83 79 68 62 58 60 68 74 80 85 89 91 94 94 93 93 95 94 93 95 97 96 96 97 99 99 99 99 99 99 99 99 99 100 99
30 35 40 68 65 67 68 53 37 38 45 49 52 66 81 68 62 53 54 58 66 73 77 82 88 89 92 93 94 96 94 92 90 92 93 96 95 95 95 97 98 96 98 99 98 97 98 98 98